Wetterdaten: Mittwoch, 12.04.2017
Datum Zeit Temp. A. Feuchte A. Luftdruck Regen Wind Richtung Richtung Sonnenschein ET UV Solar Taupunkt Windchill Windben Empfang
12.04.2017 00:00 7,1 C 77 % 1022,4 hPa 0,0 l/m 4,0 km/h (1 Bft) S-SW 200 0 min 0,000 mm 0,0 UV-I 0 W/m 3,3 C 7,1 C 6,4 km/h (2 Bft) 98,00 %
12.04.2017 00:02 7,0 C 78 % 1022,4 hPa 0,0 l/m 4,1 km/h (1 Bft) S-SW 200 0 min 0,000 mm 0,0 UV-I 0 W/m 3,4 C 7,0 C 4,8 km/h (1 Bft) 100,00 %
12.04.2017 00:04 6,9 C 78 % 1022,4 hPa 0,0 l/m 4,4 km/h (1 Bft) S-SW 200 0 min 0,000 mm 0,0 UV-I 0 W/m 3,3 C 6,9 C 6,4 km/h (2 Bft) 98,11 %
12.04.2017 00:06 6,9 C 78 % 1022,4 hPa 0,0 l/m 4,0 km/h (1 Bft) S-SW 200 0 min 0,000 mm 0,0 UV-I 0 W/m 3,3 C 6,9 C 4,8 km/h (1 Bft) 100,00 %
12.04.2017 00:08 6,9 C 79 % 1022,4 hPa 0,0 l/m 3,7 km/h (1 Bft) S-SW 200 0 min 0,000 mm 0,0 UV-I 0 W/m 3,5 C 6,9 C 4,8 km/h (1 Bft) 98,00 %
12.04.2017 00:10 6,8 C 79 % 1022,5 hPa 0,0 l/m 4,3 km/h (1 Bft) S-SW 200 0 min 0,000 mm 0,0 UV-I 0 W/m 3,4 C 6,8 C 6,4 km/h (2 Bft) 97,37 %
12.04.2017 00:12 6,8 C 79 % 1022,5 hPa 0,0 l/m 4,9 km/h (1 Bft) S-SW 200 0 min 0,000 mm 0,0 UV-I 0 W/m 3,4 C 6,8 C 6,4 km/h (2 Bft) 95,74 %
12.04.2017 00:14 6,8 C 79 % 1022,7 hPa 0,0 l/m 4,8 km/h (1 Bft) S-SW 202 0 min 0,000 mm 0,0 UV-I 0 W/m 3,4 C 6,8 C 6,4 km/h (2 Bft) 97,22 %
12.04.2017 00:16 6,8 C 79 % 1022,6 hPa 0,0 l/m 4,9 km/h (1 Bft) S-SW 204 0 min 0,000 mm 0,0 UV-I 0 W/m 3,4 C 6,8 C 6,4 km/h (2 Bft) 100,00 %
12.04.2017 00:18 6,8 C 79 % 1022,6 hPa 0,0 l/m 3,0 km/h (1 Bft) S-SW 204 0 min 0,000 mm 0,0 UV-I 0 W/m 3,4 C 6,8 C 6,4 km/h (2 Bft) 94,87 %
12.04.2017 00:20 6,8 C 79 % 1022,6 hPa 0,0 l/m 2,3 km/h (1 Bft) S-SW 204 0 min 0,000 mm 0,0 UV-I 0 W/m 3,4 C 6,8 C 3,2 km/h (1 Bft) 100,00 %
12.04.2017 00:22 6,7 C 79 % 1022,6 hPa 0,0 l/m 1,9 km/h (1 Bft) S-SW 204 0 min 0,000 mm 0,0 UV-I 0 W/m 3,3 C 6,7 C 3,2 km/h (1 Bft) 98,00 %
12.04.2017 00:24 6,6 C 80 % 1022,6 hPa 0,0 l/m 3,3 km/h (1 Bft) S-SW 204 0 min 0,000 mm 0,0 UV-I 0 W/m 3,4 C 6,6 C 4,8 km/h (1 Bft) 96,23 %
12.04.2017 00:26 6,5 C 81 % 1022,7 hPa 0,0 l/m 2,8 km/h (1 Bft) S-SW 204 0 min 0,000 mm 0,0 UV-I 0 W/m 3,5 C 6,5 C 4,8 km/h (1 Bft) 100,00 %
12.04.2017 00:28 6,5 C 81 % 1022,7 hPa 0,0 l/m 2,9 km/h (1 Bft) S-SW 204 0 min 0,000 mm 0,0 UV-I 0 W/m 3,5 C 6,5 C 3,2 km/h (1 Bft) 100,00 %
12.04.2017 00:30 6,4 C 81 % 1022,7 hPa 0,0 l/m 2,6 km/h (1 Bft) S-SW 204 0 min 0,000 mm 0,0 UV-I 0 W/m 3,4 C 6,4 C 3,2 km/h (1 Bft) 100,00 %
12.04.2017 00:32 6,4 C 81 % 1022,6 hPa 0,0 l/m 1,1 km/h (1 Bft) S-SW 204 0 min 0,000 mm 0,0 UV-I 0 W/m 3,4 C 6,4 C 3,2 km/h (1 Bft) 100,00 %
12.04.2017 00:34 6,3 C 81 % 1022,7 hPa 0,0 l/m 0,1 km/h (0 Bft) S-SW 204 0 min 0,000 mm 0,0 UV-I 0 W/m 3,3 C 6,3 C 1,6 km/h (1 Bft) 100,00 %
12.04.2017 00:36 6,1 C 82 % 1022,7 hPa 0,0 l/m 0,0 km/h (0 Bft) S-SW 204 0 min 0,000 mm 0,0 UV-I 0 W/m 3,3 C 6,1 C 0,0 km/h (0 Bft) 100,00 %
12.04.2017 00:38 6,0 C 82 % 1022,8 hPa 0,0 l/m 0,0 km/h (0 Bft) S-SW 204 0 min 0,000 mm 0,0 UV-I 0 W/m 3,2 C 6,0 C 0,0 km/h (0 Bft) 100,00 %
12.04.2017 00:40 5,9 C 83 % 1022,7 hPa 0,0 l/m 0,0 km/h (0 Bft) S-SW 204 0 min 0,000 mm 0,0 UV-I 0 W/m 3,2 C 5,9 C 0,0 km/h (0 Bft) 97,87 %
12.04.2017 00:42 5,9 C 83 % 1022,7 hPa 0,0 l/m 0,0 km/h (0 Bft) S-SW 204 0 min 0,000 mm 0,0 UV-I 0 W/m 3,2 C 5,9 C 0,0 km/h (0 Bft) 97,56 %
12.04.2017 00:44 5,9 C 83 % 1022,7 hPa 0,0 l/m 0,0 km/h (0 Bft) S-SW 204 0 min 0,000 mm 0,0 UV-I 0 W/m 3,2 C 5,9 C 0,0 km/h (0 Bft) 96,00 %
12.04.2017 00:46 5,9 C 84 % 1022,7 hPa 0,0 l/m 0,4 km/h (0 Bft) S-SW 204 0 min 0,000 mm 0,0 UV-I 0 W/m 3,4 C 5,9 C 1,6 km/h (1 Bft) 97,73 %
12.04.2017 00:48 5,9 C 84 % 1022,7 hPa 0,0 l/m 0,9 km/h (0 Bft) S-SW 204 0 min 0,000 mm 0,0 UV-I 0 W/m 3,4 C 5,9 C 3,2 km/h (1 Bft) 100,00 %
12.04.2017 00:50 5,9 C 84 % 1022,7 hPa 0,0 l/m 0,4 km/h (0 Bft) S-SW 204 0 min 0,000 mm 0,0 UV-I 0 W/m 3,4 C 5,9 C 1,6 km/h (1 Bft) 98,11 %
12.04.2017 00:52 5,9 C 84 % 1022,7 hPa 0,0 l/m 1,7 km/h (1 Bft) S-SW 204 0 min 0,000 mm 0,0 UV-I 0 W/m 3,4 C 5,9 C 3,2 km/h (1 Bft) 97,87 %
12.04.2017 00:54 5,9 C 85 % 1022,7 hPa 0,0 l/m 1,8 km/h (1 Bft) S-SW 204 0 min 0,000 mm 0,0 UV-I 0 W/m 3,6 C 5,9 C 3,2 km/h (1 Bft) 100,00 %
12.04.2017 00:56 5,9 C 85 % 1022,7 hPa 0,0 l/m 1,2 km/h (1 Bft) S-SW 204 0 min 0,000 mm 0,0 UV-I 0 W/m 3,6 C 5,9 C 3,2 km/h (1 Bft) 97,50 %
12.04.2017 00:58 6,0 C 85 % 1022,7 hPa 0,0 l/m 2,5 km/h (1 Bft) S-SW 204 0 min 0,000 mm 0,0 UV-I 0 W/m 3,7 C 6,0 C 4,8 km/h (1 Bft) 97,87 %
12.04.2017 01:00 6,1 C 85 % 1022,7 hPa 0,0 l/m 2,6 km/h (1 Bft) S-SW 204 0 min 0,000 mm 0,0 UV-I 0 W/m 3,8 C 6,1 C 4,8 km/h (1 Bft) 100,00 %
12.04.2017 01:02 6,2 C 84 % 1022,6 hPa 0,0 l/m 2,8 km/h (1 Bft) S-SW 204 0 min 0,000 mm 0,0 UV-I 0 W/m 3,7 C 6,2 C 4,8 km/h (1 Bft) 97,56 %
12.04.2017 01:04 6,3 C 84 % 1022,7 hPa 0,0 l/m 3,3 km/h (1 Bft) S-SW 204 0 min 0,000 mm 0,0 UV-I 0 W/m 3,8 C 6,3 C 4,8 km/h (1 Bft) 100,00 %
12.04.2017 01:06 6,3 C 84 % 1022,7 hPa 0,0 l/m 3,7 km/h (1 Bft) S-SW 204 0 min 0,000 mm 0,0 UV-I 0 W/m 3,8 C 6,3 C 4,8 km/h (1 Bft) 98,00 %
12.04.2017 01:08 6,4 C 84 % 1022,6 hPa 0,0 l/m 2,7 km/h (1 Bft) S-SW 204 0 min 0,000 mm 0,0 UV-I 0 W/m 3,9 C 6,4 C 4,8 km/h (1 Bft) 98,11 %
12.04.2017 01:10 6,4 C 83 % 1022,6 hPa 0,0 l/m 3,6 km/h (1 Bft) S-SW 204 0 min 0,000 mm 0,0 UV-I 0 W/m 3,7 C 6,4 C 4,8 km/h (1 Bft) 100,00 %
12.04.2017 01:12 6,4 C 83 % 1022,6 hPa 0,0 l/m 3,4 km/h (1 Bft) S-SW 204 0 min 0,000 mm 0,0 UV-I 0 W/m 3,7 C 6,4 C 4,8 km/h (1 Bft) 94,74 %
12.04.2017 01:14 6,4 C 83 % 1022,6 hPa 0,0 l/m 3,9 km/h (1 Bft) S-SW 204 0 min 0,000 mm 0,0 UV-I 0 W/m 3,7 C 6,4 C 4,8 km/h (1 Bft) 100,00 %
12.04.2017 01:16 6,5 C 83 % 1022,5 hPa 0,0 l/m 3,3 km/h (1 Bft) S-SW 204 0 min 0,000 mm 0,0 UV-I 0 W/m 3,8 C 6,5 C 6,4 km/h (2 Bft) 94,74 %
12.04.2017 01:18 6,5 C 83 % 1022,5 hPa 0,0 l/m 3,4 km/h (1 Bft) S-SW 204 0 min 0,000 mm 0,0 UV-I 0 W/m 3,8 C 6,5 C 4,8 km/h (1 Bft) 96,43 %
12.04.2017 01:20 6,6 C 82 % 1022,5 hPa 0,0 l/m 4,0 km/h (1 Bft) S-SW 204 0 min 0,000 mm 0,0 UV-I 0 W/m 3,8 C 6,6 C 6,4 km/h (2 Bft) 94,34 %
12.04.2017 01:22 6,6 C 82 % 1022,5 hPa 0,0 l/m 3,9 km/h (1 Bft) S-SW 204 0 min 0,000 mm 0,0 UV-I 0 W/m 3,8 C 6,6 C 6,4 km/h (2 Bft) 94,29 %
12.04.2017 01:24 6,6 C 82 % 1022,5 hPa 0,0 l/m 6,1 km/h (2 Bft) S-SW 204 0 min 0,000 mm 0,0 UV-I 0 W/m 3,8 C 6,6 C 8,0 km/h (2 Bft) 98,21 %
12.04.2017 01:26 6,6 C 82 % 1022,4 hPa 0,0 l/m 4,3 km/h (1 Bft) S-SW 204 0 min 0,000 mm 0,0 UV-I 0 W/m 3,8 C 6,6 C 6,4 km/h (2 Bft) 95,12 %
12.04.2017 01:28 6,5 C 82 % 1022,4 hPa 0,0 l/m 3,2 km/h (1 Bft) S-SW 204 0 min 0,000 mm 0,0 UV-I 0 W/m 3,7 C 6,5 C 6,4 km/h (2 Bft) 98,00 %
12.04.2017 01:30 6,5 C 82 % 1022,4 hPa 0,0 l/m 5,0 km/h (1 Bft) S-SW 203 0 min 0,000 mm 0,0 UV-I 0 W/m 3,7 C 6,5 C 8,0 km/h (2 Bft) 94,74 %
12.04.2017 01:32 6,5 C 82 % 1022,4 hPa 0,0 l/m 6,0 km/h (2 Bft) S-SW 207 0 min 0,000 mm 0,0 UV-I 0 W/m 3,7 C 6,5 C 8,0 km/h (2 Bft) 98,21 %
12.04.2017 01:34 6,5 C 82 % 1022,3 hPa 0,0 l/m 4,3 km/h (1 Bft) S-SW 207 0 min 0,000 mm 0,0 UV-I 0 W/m 3,7 C 6,5 C 6,4 km/h (2 Bft) 97,62 %
12.04.2017 01:36 6,4 C 82 % 1022,2 hPa 0,0 l/m 4,2 km/h (1 Bft) S-SW 207 0 min 0,000 mm 0,0 UV-I 0 W/m 3,6 C 6,4 C 6,4 km/h (2 Bft) 96,15 %
12.04.2017 01:38 6,4 C 83 % 1022,2 hPa 0,0 l/m 3,9 km/h (1 Bft) S-SW 207 0 min 0,000 mm 0,0 UV-I 0 W/m 3,7 C 6,4 C 8,0 km/h (2 Bft) 97,44 %
12.04.2017 01:40 6,3 C 83 % 1022,2 hPa 0,0 l/m 3,1 km/h (1 Bft) S-SW 207 0 min 0,000 mm 0,0 UV-I 0 W/m 3,6 C 6,3 C 4,8 km/h (1 Bft) 94,34 %
12.04.2017 01:42 6,3 C 83 % 1022,3 hPa 0,0 l/m 3,2 km/h (1 Bft) S-SW 207 0 min 0,000 mm 0,0 UV-I 0 W/m 3,6 C 6,3 C 4,8 km/h (1 Bft) 96,00 %
12.04.2017 01:44 6,3 C 83 % 1022,2 hPa 0,0 l/m 3,1 km/h (1 Bft) S-SW 207 0 min 0,000 mm 0,0 UV-I 0 W/m 3,6 C 6,3 C 4,8 km/h (1 Bft) 94,00 %
12.04.2017 01:46 6,2 C 83 % 1022,2 hPa 0,0 l/m 2,2 km/h (1 Bft) S-SW 207 0 min 0,000 mm 0,0 UV-I 0 W/m 3,5 C 6,2 C 6,4 km/h (2 Bft) 95,12 %
12.04.2017 01:48 6,2 C 84 % 1022,2 hPa 0,0 l/m 2,7 km/h (1 Bft) S-SW 207 0 min 0,000 mm 0,0 UV-I 0 W/m 3,7 C 6,2 C 4,8 km/h (1 Bft) 96,23 %
12.04.2017 01:50 6,2 C 84 % 1022,1 hPa 0,0 l/m 2,7 km/h (1 Bft) S-SW 207 0 min 0,000 mm 0,0 UV-I 0 W/m 3,7 C 6,2 C 4,8 km/h (1 Bft) 97,37 %
12.04.2017 01:52 6,2 C 84 % 1022,1 hPa 0,0 l/m 2,2 km/h (1 Bft) S-SW 207 0 min 0,000 mm 0,0 UV-I 0 W/m 3,7 C 6,2 C 4,8 km/h (1 Bft) 98,00 %
12.04.2017 01:54 6,2 C 84 % 1022,1 hPa 0,0 l/m 2,8 km/h (1 Bft) S-SW 207 0 min 0,000 mm 0,0 UV-I 0 W/m 3,7 C 6,2 C 4,8 km/h (1 Bft) 100,00 %
12.04.2017 01:56 6,2 C 84 % 1022,0 hPa 0,0 l/m 4,1 km/h (1 Bft) S-SW 207 0 min 0,000 mm 0,0 UV-I 0 W/m 3,7 C 6,2 C 6,4 km/h (2 Bft) 97,56 %
12.04.2017 01:58 6,2 C 84 % 1022,1 hPa 0,0 l/m 2,4 km/h (1 Bft) S-SW 207 0 min 0,000 mm 0,0 UV-I 0 W/m 3,7 C 6,2 C 4,8 km/h (1 Bft) 98,11 %
12.04.2017 02:00 6,2 C 84 % 1022,0 hPa 0,0 l/m 3,0 km/h (1 Bft) S-SW 207 0 min 0,000 mm 0,0 UV-I 0 W/m 3,7 C 6,2 C 4,8 km/h (1 Bft) 100,00 %
12.04.2017 02:02 6,2 C 84 % 1022,1 hPa 0,0 l/m 3,3 km/h (1 Bft) S-SW 207 0 min 0,000 mm 0,0 UV-I 0 W/m 3,7 C 6,2 C 4,8 km/h (1 Bft) 92,45 %
12.04.2017 02:04 6,2 C 84 % 1022,0 hPa 0,0 l/m 4,3 km/h (1 Bft) S-SW 207 0 min 0,000 mm 0,0 UV-I 0 W/m 3,7 C 6,2 C 6,4 km/h (2 Bft) 100,00 %
12.04.2017 02:06 6,2 C 84 % 1022,0 hPa 0,0 l/m 3,2 km/h (1 Bft) S-SW 207 0 min 0,000 mm 0,0 UV-I 0 W/m 3,7 C 6,2 C 8,0 km/h (2 Bft) 98,00 %
12.04.2017 02:08 6,2 C 84 % 1022,0 hPa 0,0 l/m 2,6 km/h (1 Bft) S-SW 207 0 min 0,000 mm 0,0 UV-I 0 W/m 3,7 C 6,2 C 4,8 km/h (1 Bft) 96,23 %
12.04.2017 02:10 6,2 C 84 % 1022,0 hPa 0,0 l/m 1,3 km/h (1 Bft) S-SW 207 0 min 0,000 mm 0,0 UV-I 0 W/m 3,7 C 6,2 C 3,2 km/h (1 Bft) 97,87 %
12.04.2017 02:12 6,2 C 84 % 1021,9 hPa 0,0 l/m 2,3 km/h (1 Bft) S-SW 207 0 min 0,000 mm 0,0 UV-I 0 W/m 3,7 C 6,2 C 4,8 km/h (1 Bft) 97,87 %
12.04.2017 02:14 6,2 C 84 % 1022,0 hPa 0,0 l/m 2,6 km/h (1 Bft) S-SW 207 0 min 0,000 mm 0,0 UV-I 0 W/m 3,7 C 6,2 C 4,8 km/h (1 Bft) 100,00 %
12.04.2017 02:16 6,2 C 84 % 1022,0 hPa 0,0 l/m 2,3 km/h (1 Bft) S-SW 207 0 min 0,000 mm 0,0 UV-I 0 W/m 3,7 C 6,2 C 4,8 km/h (1 Bft) 97,87 %
12.04.2017 02:18 6,2 C 84 % 1021,9 hPa 0,0 l/m 1,4 km/h (1 Bft) S-SW 207 0 min 0,000 mm 0,0 UV-I 0 W/m 3,7 C 6,2 C 3,2 km/h (1 Bft) 97,78 %
12.04.2017 02:20 6,1 C 85 % 1021,9 hPa 0,0 l/m 2,0 km/h (1 Bft) S-SW 207 0 min 0,000 mm 0,0 UV-I 0 W/m 3,8 C 6,1 C 4,8 km/h (1 Bft) 96,00 %
12.04.2017 02:22 6,2 C 85 % 1021,9 hPa 0,0 l/m 0,9 km/h (0 Bft) S-SW 207 0 min 0,000 mm 0,0 UV-I 0 W/m 3,9 C 6,2 C 3,2 km/h (1 Bft) 95,74 %
12.04.2017 02:24 6,2 C 85 % 1021,9 hPa 0,0 l/m 0,7 km/h (0 Bft) S-SW 207 0 min 0,000 mm 0,0 UV-I 0 W/m 3,9 C 6,2 C 1,6 km/h (1 Bft) 97,87 %
12.04.2017 02:26 6,2 C 85 % 1021,8 hPa 0,0 l/m 0,9 km/h (0 Bft) S-SW 207 0 min 0,000 mm 0,0 UV-I 0 W/m 3,9 C 6,2 C 3,2 km/h (1 Bft) 97,87 %
12.04.2017 02:28 6,2 C 85 % 1021,8 hPa 0,0 l/m 1,7 km/h (1 Bft) S-SW 207 0 min 0,000 mm 0,0 UV-I 0 W/m 3,9 C 6,2 C 3,2 km/h (1 Bft) 95,12 %
12.04.2017 02:30 6,2 C 85 % 1021,8 hPa 0,0 l/m 1,9 km/h (1 Bft) S-SW 207 0 min 0,000 mm 0,0 UV-I 0 W/m 3,9 C 6,2 C 3,2 km/h (1 Bft) 98,11 %
12.04.2017 02:32 6,2 C 85 % 1021,8 hPa 0,0 l/m 1,9 km/h (1 Bft) S-SW 207 0 min 0,000 mm 0,0 UV-I 0 W/m 3,9 C 6,2 C 3,2 km/h (1 Bft) 97,37 %
12.04.2017 02:34 6,3 C 85 % 1021,8 hPa 0,0 l/m 1,4 km/h (1 Bft) S-SW 207 0 min 0,000 mm 0,0 UV-I 0 W/m 4,0 C 6,3 C 3,2 km/h (1 Bft) 96,00 %
12.04.2017 02:36 6,3 C 85 % 1021,8 hPa 0,0 l/m 0,5 km/h (0 Bft) S-SW 207 0 min 0,000 mm 0,0 UV-I 0 W/m 4,0 C 6,3 C 1,6 km/h (1 Bft) 96,00 %
12.04.2017 02:38 6,3 C 85 % 1021,8 hPa 0,0 l/m 0,3 km/h (0 Bft) S-SW 207 0 min 0,000 mm 0,0 UV-I 0 W/m 4,0 C 6,3 C 1,6 km/h (1 Bft) 95,74 %
12.04.2017 02:40 6,3 C 85 % 1021,8 hPa 0,0 l/m 0,0 km/h (0 Bft) S-SW 207 0 min 0,000 mm 0,0 UV-I 0 W/m 4,0 C 6,3 C 0,0 km/h (0 Bft) 97,87 %
12.04.2017 02:42 6,2 C 85 % 1021,8 hPa 0,0 l/m 0,0 km/h (0 Bft) S-SW 207 0 min 0,000 mm 0,0 UV-I 0 W/m 3,9 C 6,2 C 0,0 km/h (0 Bft) 96,23 %
12.04.2017 02:44 6,2 C 85 % 1021,9 hPa 0,0 l/m 0,0 km/h (0 Bft) S-SW 207 0 min 0,000 mm 0,0 UV-I 0 W/m 3,9 C 6,2 C 0,0 km/h (0 Bft) 97,14 %
12.04.2017 02:46 6,1 C 85 % 1021,9 hPa 0,0 l/m 0,1 km/h (0 Bft) S-SW 207 0 min 0,000 mm 0,0 UV-I 0 W/m 3,8 C 6,1 C 1,6 km/h (1 Bft) 96,23 %
12.04.2017 02:48 5,9 C 85 % 1021,9 hPa 0,0 l/m 0,3 km/h (0 Bft) S-SW 207 0 min 0,000 mm 0,0 UV-I 0 W/m 3,6 C 5,9 C 1,6 km/h (1 Bft) 95,45 %
12.04.2017 02:50 5,7 C 86 % 1021,9 hPa 0,0 l/m 2,1 km/h (1 Bft) S-SW 207 0 min 0,000 mm 0,0 UV-I 0 W/m 3,5 C 5,7 C 3,2 km/h (1 Bft) 98,00 %
12.04.2017 02:52 5,7 C 86 % 1021,8 hPa 0,0 l/m 1,5 km/h (1 Bft) S-SW 207 0 min 0,000 mm 0,0 UV-I 0 W/m 3,5 C 5,7 C 3,2 km/h (1 Bft) 95,74 %
12.04.2017 02:54 5,6 C 87 % 1021,8 hPa 0,0 l/m 0,1 km/h (0 Bft) S-SW 207 0 min 0,000 mm 0,0 UV-I 0 W/m 3,6 C 5,6 C 1,6 km/h (1 Bft) 97,44 %
12.04.2017 02:56 5,6 C 87 % 1021,8 hPa 0,0 l/m 0,0 km/h (0 Bft) S-SW 207 0 min 0,000 mm 0,0 UV-I 0 W/m 3,6 C 5,6 C 0,0 km/h (0 Bft) 96,00 %
12.04.2017 02:58 5,7 C 87 % 1021,8 hPa 0,0 l/m 0,0 km/h (0 Bft) S-SW 207 0 min 0,000 mm 0,0 UV-I 0 W/m 3,7 C 5,7 C 0,0 km/h (0 Bft) 94,00 %
12.04.2017 03:00 5,7 C 87 % 1021,8 hPa 0,0 l/m 0,0 km/h (0 Bft) S-SW 207 0 min 0,000 mm 0,0 UV-I 0 W/m 3,7 C 5,7 C 0,0 km/h (0 Bft) 97,87 %
12.04.2017 03:02 5,6 C 87 % 1021,8 hPa 0,0 l/m 0,0 km/h (0 Bft) S-SW 207 0 min 0,000 mm 0,0 UV-I 0 W/m 3,6 C 5,6 C 0,0 km/h (0 Bft) 95,74 %
12.04.2017 03:04 5,5 C 87 % 1021,8 hPa 0,0 l/m 0,0 km/h (0 Bft) S-SW 207 0 min 0,000 mm 0,0 UV-I 0 W/m 3,5 C 5,5 C 0,0 km/h (0 Bft) 96,00 %
12.04.2017 03:06 5,4 C 88 % 1021,9 hPa 0,0 l/m 0,0 km/h (0 Bft) S-SW 207 0 min 0,000 mm 0,0 UV-I 0 W/m 3,6 C 5,4 C 0,0 km/h (0 Bft) 96,00 %
12.04.2017 03:08 5,4 C 88 % 1021,8 hPa 0,0 l/m 0,0 km/h (0 Bft) S-SW 207 0 min 0,000 mm 0,0 UV-I 0 W/m 3,6 C 5,4 C 0,0 km/h (0 Bft) 97,56 %
12.04.2017 03:10 5,4 C 88 % 1021,8 hPa 0,0 l/m 0,0 km/h (0 Bft) S-SW 207 0 min 0,000 mm 0,0 UV-I 0 W/m 3,6 C 5,4 C 0,0 km/h (0 Bft) 96,00 %
12.04.2017 03:12 5,3 C 88 % 1021,8 hPa 0,0 l/m 0,0 km/h (0 Bft) S-SW 207 0 min 0,000 mm 0,0 UV-I 0 W/m 3,5 C 5,3 C 0,0 km/h (0 Bft) 97,37 %
12.04.2017 03:14 5,3 C 88 % 1021,8 hPa 0,0 l/m 0,1 km/h (0 Bft) S-SW 207 0 min 0,000 mm 0,0 UV-I 0 W/m 3,5 C 5,3 C 1,6 km/h (1 Bft) 96,23 %
12.04.2017 03:16 5,3 C 89 % 1021,8 hPa 0,0 l/m 0,0 km/h (0 Bft) S-SW 207 0 min 0,000 mm 0,0 UV-I 0 W/m 3,6 C 5,3 C 0,0 km/h (0 Bft) 96,00 %
12.04.2017 03:18 5,3 C 89 % 1021,8 hPa 0,0 l/m 0,0 km/h (0 Bft) S-SW 207 0 min 0,000 mm 0,0 UV-I 0 W/m 3,6 C 5,3 C 0,0 km/h (0 Bft) 94,74 %
12.04.2017 03:20 5,3 C 89 % 1021,8 hPa 0,0 l/m 0,0 km/h (0 Bft) S-SW 207 0 min 0,000 mm 0,0 UV-I 0 W/m 3,6 C 5,3 C 0,0 km/h (0 Bft) 94,00 %
12.04.2017 03:22 5,4 C 89 % 1021,8 hPa 0,0 l/m 0,8 km/h (0 Bft) S-SW 207 0 min 0,000 mm 0,0 UV-I 0 W/m 3,7 C 5,4 C 3,2 km/h (1 Bft) 96,00 %
12.04.2017 03:24 5,4 C 89 % 1021,8 hPa 0,0 l/m 1,4 km/h (1 Bft) S-SW 207 0 min 0,000 mm 0,0 UV-I 0 W/m 3,7 C 5,4 C 3,2 km/h (1 Bft) 97,56 %
12.04.2017 03:26 5,4 C 88 % 1021,7 hPa 0,0 l/m 1,3 km/h (1 Bft) S-SW 207 0 min 0,000 mm 0,0 UV-I 0 W/m 3,6 C 5,4 C 3,2 km/h (1 Bft) 95,74 %
12.04.2017 03:28 5,4 C 88 % 1021,7 hPa 0,0 l/m 0,4 km/h (0 Bft) S-SW 207 0 min 0,000 mm 0,0 UV-I 0 W/m 3,6 C 5,4 C 1,6 km/h (1 Bft) 94,64 %
12.04.2017 03:30 5,4 C 88 % 1021,6 hPa 0,0 l/m 1,0 km/h (0 Bft) S-SW 207 0 min 0,000 mm 0,0 UV-I 0 W/m 3,6 C 5,4 C 3,2 km/h (1 Bft) 94,74 %
12.04.2017 03:32 5,3 C 88 % 1021,6 hPa 0,0 l/m 0,0 km/h (0 Bft) S-SW 207 0 min 0,000 mm 0,0 UV-I 0 W/m 3,5 C 5,3 C 0,0 km/h (0 Bft) 96,43 %
12.04.2017 03:34 5,2 C 89 % 1021,5 hPa 0,0 l/m 0,6 km/h (0 Bft) S-SW 207 0 min 0,000 mm 0,0 UV-I 0 W/m 3,5 C 5,2 C 3,2 km/h (1 Bft) 94,44 %
12.04.2017 03:36 5,2 C 89 % 1021,5 hPa 0,0 l/m 1,0 km/h (0 Bft) S-SW 207 0 min 0,000 mm 0,0 UV-I 0 W/m 3,5 C 5,2 C 3,2 km/h (1 Bft) 96,23 %
12.04.2017 03:38 5,3 C 89 % 1021,5 hPa 0,0 l/m 0,6 km/h (0 Bft) S-SW 207 0 min 0,000 mm 0,0 UV-I 0 W/m 3,6 C 5,3 C 1,6 km/h (1 Bft) 95,74 %
12.04.2017 03:40 5,3 C 89 % 1021,5 hPa 0,0 l/m 0,5 km/h (0 Bft) S-SW 207 0 min 0,000 mm 0,0 UV-I 0 W/m 3,6 C 5,3 C 3,2 km/h (1 Bft) 96,00 %
12.04.2017 03:42 5,3 C 89 % 1021,5 hPa 0,0 l/m 1,6 km/h (1 Bft) S-SW 207 0 min 0,000 mm 0,0 UV-I 0 W/m 3,6 C 5,3 C 3,2 km/h (1 Bft) 97,37 %
12.04.2017 03:44 5,4 C 89 % 1021,5 hPa 0,0 l/m 2,5 km/h (1 Bft) S-SW 207 0 min 0,000 mm 0,0 UV-I 0 W/m 3,7 C 5,4 C 4,8 km/h (1 Bft) 96,23 %
12.04.2017 03:46 5,4 C 89 % 1021,5 hPa 0,0 l/m 3,6 km/h (1 Bft) S-SW 207 0 min 0,000 mm 0,0 UV-I 0 W/m 3,7 C 5,4 C 4,8 km/h (1 Bft) 94,00 %
12.04.2017 03:48 5,5 C 89 % 1021,5 hPa 0,0 l/m 2,0 km/h (1 Bft) S-SW 207 0 min 0,000 mm 0,0 UV-I 0 W/m 3,8 C 5,5 C 4,8 km/h (1 Bft) 97,37 %
12.04.2017 03:50 5,6 C 88 % 1021,4 hPa 0,0 l/m 4,5 km/h (1 Bft) S-SW 209 0 min 0,000 mm 0,0 UV-I 0 W/m 3,8 C 5,6 C 8,0 km/h (2 Bft) 96,00 %
12.04.2017 03:52 5,5 C 88 % 1021,4 hPa 0,0 l/m 2,4 km/h (1 Bft) S-SW 208 0 min 0,000 mm 0,0 UV-I 0 W/m 3,7 C 5,5 C 4,8 km/h (1 Bft) 94,34 %
12.04.2017 03:54 5,4 C 88 % 1021,4 hPa 0,0 l/m 3,8 km/h (1 Bft) S-SW 209 0 min 0,000 mm 0,0 UV-I 0 W/m 3,6 C 5,4 C 6,4 km/h (2 Bft) 97,37 %
12.04.2017 03:56 5,4 C 88 % 1021,4 hPa 0,0 l/m 3,7 km/h (1 Bft) S-SW 209 0 min 0,000 mm 0,0 UV-I 0 W/m 3,6 C 5,4 C 8,0 km/h (2 Bft) 98,00 %
12.04.2017 03:58 5,4 C 88 % 1021,3 hPa 0,0 l/m 3,4 km/h (1 Bft) S-SW 205 0 min 0,000 mm 0,0 UV-I 0 W/m 3,6 C 5,4 C 6,4 km/h (2 Bft) 98,11 %
12.04.2017 04:00 5,4 C 88 % 1021,3 hPa 0,0 l/m 2,3 km/h (1 Bft) S-SW 205 0 min 0,000 mm 0,0 UV-I 0 W/m 3,6 C 5,4 C 4,8 km/h (1 Bft) 97,37 %
12.04.2017 04:05 5,4 C 88 % 1021,2 hPa 0,0 l/m 2,4 km/h (1 Bft) S-SW 205 0 min 0,000 mm 0,0 UV-I 0 W/m 3,6 C 5,4 C 4,8 km/h (1 Bft) 93,42 %
12.04.2017 04:06 5,4 C 88 % 1021,2 hPa 0,0 l/m 3,5 km/h (1 Bft) S-SW 205 0 min 0,000 mm 0,0 UV-I 0 W/m 3,6 C 5,4 C 4,8 km/h (1 Bft) 100,00 %
12.04.2017 04:08 5,4 C 88 % 1021,2 hPa 0,0 l/m 2,0 km/h (1 Bft) S-SW 205 0 min 0,000 mm 0,0 UV-I 0 W/m 3,6 C 5,4 C 4,8 km/h (1 Bft) 98,00 %
12.04.2017 04:10 5,4 C 88 % 1021,2 hPa 0,0 l/m 2,0 km/h (1 Bft) S-SW 205 0 min 0,000 mm 0,0 UV-I 0 W/m 3,6 C 5,4 C 4,8 km/h (1 Bft) 98,00 %
12.04.2017 04:12 5,4 C 88 % 1021,2 hPa 0,0 l/m 2,9 km/h (1 Bft) S-SW 205 0 min 0,000 mm 0,0 UV-I 0 W/m 3,6 C 5,4 C 4,8 km/h (1 Bft) 97,44 %
12.04.2017 04:14 5,4 C 88 % 1021,2 hPa 0,0 l/m 3,3 km/h (1 Bft) S-SW 205 0 min 0,000 mm 0,0 UV-I 0 W/m 3,6 C 5,4 C 6,4 km/h (2 Bft) 100,00 %
12.04.2017 04:16 5,3 C 88 % 1021,2 hPa 0,0 l/m 2,9 km/h (1 Bft) S-SW 205 0 min 0,000 mm 0,0 UV-I 0 W/m 3,5 C 5,3 C 6,4 km/h (2 Bft) 98,21 %
12.04.2017 04:18 5,3 C 88 % 1021,1 hPa 0,0 l/m 3,3 km/h (1 Bft) S-SW 205 0 min 0,000 mm 0,0 UV-I 0 W/m 3,5 C 5,3 C 6,4 km/h (2 Bft) 100,00 %
12.04.2017 04:20 5,3 C 88 % 1021,1 hPa 0,0 l/m 2,0 km/h (1 Bft) S-SW 205 0 min 0,000 mm 0,0 UV-I 0 W/m 3,5 C 5,3 C 4,8 km/h (1 Bft) 98,00 %
12.04.2017 04:22 5,2 C 88 % 1021,2 hPa 0,0 l/m 2,3 km/h (1 Bft) S-SW 205 0 min 0,000 mm 0,0 UV-I 0 W/m 3,4 C 5,2 C 4,8 km/h (1 Bft) 100,00 %
12.04.2017 04:24 5,2 C 88 % 1021,2 hPa 0,0 l/m 2,9 km/h (1 Bft) S-SW 205 0 min 0,000 mm 0,0 UV-I 0 W/m 3,4 C 5,2 C 4,8 km/h (1 Bft) 100,00 %
12.04.2017 04:26 5,2 C 88 % 1021,1 hPa 0,0 l/m 2,8 km/h (1 Bft) S-SW 205 0 min 0,000 mm 0,0 UV-I 0 W/m 3,4 C 5,2 C 4,8 km/h (1 Bft) 95,74 %
12.04.2017 04:28 5,2 C 88 % 1021,2 hPa 0,0 l/m 3,8 km/h (1 Bft) S-SW 205 0 min 0,000 mm 0,0 UV-I 0 W/m 3,4 C 5,2 C 6,4 km/h (2 Bft) 100,00 %
12.04.2017 04:30 5,2 C 88 % 1021,2 hPa 0,0 l/m 4,0 km/h (1 Bft) S-SW 205 0 min 0,000 mm 0,0 UV-I 0 W/m 3,4 C 5,2 C 6,4 km/h (2 Bft) 100,00 %
12.04.2017 04:32 5,2 C 88 % 1021,2 hPa 0,0 l/m 4,3 km/h (1 Bft) S-SW 205 0 min 0,000 mm 0,0 UV-I 0 W/m 3,4 C 5,2 C 6,4 km/h (2 Bft) 96,92 %
12.04.2017 04:34 5,2 C 88 % 1021,2 hPa 0,0 l/m 2,3 km/h (1 Bft) S-SW 205 0 min 0,000 mm 0,0 UV-I 0 W/m 3,4 C 5,2 C 4,8 km/h (1 Bft) 97,56 %
12.04.2017 04:36 5,1 C 88 % 1021,2 hPa 0,0 l/m 0,9 km/h (0 Bft) S-SW 205 0 min 0,000 mm 0,0 UV-I 0 W/m 3,3 C 5,1 C 1,6 km/h (1 Bft) 100,00 %
12.04.2017 04:38 5,1 C 88 % 1021,1 hPa 0,0 l/m 2,7 km/h (1 Bft) S-SW 205 0 min 0,000 mm 0,0 UV-I 0 W/m 3,3 C 5,1 C 4,8 km/h (1 Bft) 98,00 %
12.04.2017 04:40 4,9 C 88 % 1021,2 hPa 0,0 l/m 2,3 km/h (1 Bft) S-SW 205 0 min 0,000 mm 0,0 UV-I 0 W/m 3,1 C 4,9 C 4,8 km/h (1 Bft) 100,00 %
12.04.2017 04:42 4,9 C 89 % 1021,2 hPa 0,0 l/m 1,7 km/h (1 Bft) S-SW 205 0 min 0,000 mm 0,0 UV-I 0 W/m 3,2 C 4,9 C 3,2 km/h (1 Bft) 97,87 %
12.04.2017 04:44 4,9 C 88 % 1021,1 hPa 0,0 l/m 1,7 km/h (1 Bft) S-SW 205 0 min 0,000 mm 0,0 UV-I 0 W/m 3,1 C 4,9 C 3,2 km/h (1 Bft) 96,23 %
12.04.2017 04:46 4,9 C 88 % 1021,2 hPa 0,0 l/m 1,5 km/h (1 Bft) S-SW 205 0 min 0,000 mm 0,0 UV-I 0 W/m 3,1 C 4,9 C 4,8 km/h (1 Bft) 100,00 %
12.04.2017 04:48 4,9 C 89 % 1021,2 hPa 0,0 l/m 1,9 km/h (1 Bft) S-SW 205 0 min 0,000 mm 0,0 UV-I 0 W/m 3,2 C 4,9 C 3,2 km/h (1 Bft) 100,00 %
12.04.2017 04:50 5,0 C 88 % 1021,1 hPa 0,0 l/m 2,3 km/h (1 Bft) S-SW 205 0 min 0,000 mm 0,0 UV-I 0 W/m 3,2 C 5,0 C 4,8 km/h (1 Bft) 100,00 %
12.04.2017 04:52 5,0 C 88 % 1021,1 hPa 0,0 l/m 2,4 km/h (1 Bft) S-SW 205 0 min 0,000 mm 0,0 UV-I 0 W/m 3,2 C 5,0 C 4,8 km/h (1 Bft) 98,11 %
12.04.2017 04:54 4,9 C 88 % 1021,1 hPa 0,0 l/m 1,7 km/h (1 Bft) S-SW 205 0 min 0,000 mm 0,0 UV-I 0 W/m 3,1 C 4,9 C 3,2 km/h (1 Bft) 95,74 %
12.04.2017 04:56 4,9 C 88 % 1021,0 hPa 0,0 l/m 2,0 km/h (1 Bft) S-SW 205 0 min 0,000 mm 0,0 UV-I 0 W/m 3,1 C 4,9 C 3,2 km/h (1 Bft) 100,00 %
12.04.2017 04:58 4,9 C 88 % 1021,0 hPa 0,0 l/m 2,7 km/h (1 Bft) S-SW 205 0 min 0,000 mm 0,0 UV-I 0 W/m 3,1 C 4,9 C 4,8 km/h (1 Bft) 98,11 %
12.04.2017 05:00 4,9 C 88 % 1021,0 hPa 0,0 l/m 3,1 km/h (1 Bft) S-SW 205 0 min 0,000 mm 0,0 UV-I 0 W/m 3,1 C 4,9 C 4,8 km/h (1 Bft) 100,00 %
12.04.2017 05:02 4,9 C 88 % 1021,0 hPa 0,0 l/m 3,1 km/h (1 Bft) S-SW 205 0 min 0,000 mm 0,0 UV-I 0 W/m 3,1 C 4,9 C 4,8 km/h (1 Bft) 96,23 %
12.04.2017 05:04 4,8 C 88 % 1021,1 hPa 0,0 l/m 3,3 km/h (1 Bft) S-SW 205 0 min 0,000 mm 0,0 UV-I 0 W/m 3,0 C 4,8 C 4,8 km/h (1 Bft) 98,00 %
12.04.2017 05:06 4,8 C 88 % 1021,1 hPa 0,0 l/m 3,8 km/h (1 Bft) S-SW 205 0 min 0,000 mm 0,0 UV-I 0 W/m 3,0 C 4,8 C 4,8 km/h (1 Bft) 94,74 %
12.04.2017 05:08 4,8 C 88 % 1021,0 hPa 0,0 l/m 2,6 km/h (1 Bft) S-SW 205 0 min 0,000 mm 0,0 UV-I 0 W/m 3,0 C 4,8 C 4,8 km/h (1 Bft) 100,00 %
12.04.2017 05:10 4,7 C 89 % 1021,0 hPa 0,0 l/m 3,0 km/h (1 Bft) S-SW 205 0 min 0,000 mm 0,0 UV-I 0 W/m 3,0 C 4,7 C 4,8 km/h (1 Bft) 98,11 %
12.04.2017 05:12 4,7 C 89 % 1021,0 hPa 0,0 l/m 3,8 km/h (1 Bft) S-SW 205 0 min 0,000 mm 0,0 UV-I 0 W/m 3,0 C 4,7 C 4,8 km/h (1 Bft) 100,00 %
12.04.2017 05:14 4,7 C 89 % 1021,0 hPa 0,0 l/m 3,7 km/h (1 Bft) S-SW 205 0 min 0,000 mm 0,0 UV-I 0 W/m 3,0 C 4,7 C 4,8 km/h (1 Bft) 98,21 %
12.04.2017 05:16 4,6 C 89 % 1021,0 hPa 0,0 l/m 3,5 km/h (1 Bft) S-SW 205 0 min 0,000 mm 0,0 UV-I 0 W/m 2,9 C 4,6 C 4,8 km/h (1 Bft) 97,87 %
12.04.2017 05:18 4,6 C 89 % 1021,0 hPa 0,0 l/m 3,5 km/h (1 Bft) S-SW 205 0 min 0,000 mm 0,0 UV-I 0 W/m 2,9 C 4,6 C 4,8 km/h (1 Bft) 100,00 %
12.04.2017 05:20 4,5 C 89 % 1021,0 hPa 0,0 l/m 3,9 km/h (1 Bft) S-SW 205 0 min 0,000 mm 0,0 UV-I 0 W/m 2,8 C 4,5 C 6,4 km/h (2 Bft) 98,11 %
12.04.2017 05:22 4,5 C 89 % 1021,0 hPa 0,0 l/m 3,9 km/h (1 Bft) S-SW 205 0 min 0,000 mm 0,0 UV-I 0 W/m 2,8 C 4,5 C 6,4 km/h (2 Bft) 98,11 %
12.04.2017 05:24 4,5 C 89 % 1021,0 hPa 0,0 l/m 2,3 km/h (1 Bft) S-SW 205 0 min 0,000 mm 0,0 UV-I 0 W/m 2,8 C 4,5 C 3,2 km/h (1 Bft) 95,12 %
12.04.2017 05:26 4,5 C 89 % 1021,1 hPa 0,0 l/m 2,5 km/h (1 Bft) S-SW 205 0 min 0,000 mm 0,0 UV-I 0 W/m 2,8 C 4,5 C 3,2 km/h (1 Bft) 98,00 %
12.04.2017 05:28 4,4 C 90 % 1021,1 hPa 0,0 l/m 3,3 km/h (1 Bft) S-SW 205 0 min 0,000 mm 0,0 UV-I 0 W/m 2,9 C 4,4 C 4,8 km/h (1 Bft) 93,62 %
12.04.2017 05:30 4,4 C 89 % 1021,0 hPa 0,0 l/m 3,1 km/h (1 Bft) S-SW 205 0 min 0,000 mm 0,0 UV-I 0 W/m 2,7 C 4,4 C 4,8 km/h (1 Bft) 97,22 %
12.04.2017 05:32 4,4 C 90 % 1020,9 hPa 0,0 l/m 3,0 km/h (1 Bft) S-SW 205 0 min 0,000 mm 0,0 UV-I 0 W/m 2,9 C 4,4 C 4,8 km/h (1 Bft) 96,15 %
12.04.2017 05:34 4,4 C 90 % 1021,0 hPa 0,0 l/m 2,2 km/h (1 Bft) S-SW 205 0 min 0,000 mm 0,0 UV-I 0 W/m 2,9 C 4,4 C 4,8 km/h (1 Bft) 95,83 %
12.04.2017 05:36 4,4 C 89 % 1021,0 hPa 0,0 l/m 2,3 km/h (1 Bft) S-SW 205 0 min 0,000 mm 0,0 UV-I 0 W/m 2,7 C 4,4 C 4,8 km/h (1 Bft) 98,08 %
12.04.2017 05:38 4,4 C 89 % 1021,0 hPa 0,0 l/m 2,2 km/h (1 Bft) S-SW 205 0 min 0,000 mm 0,0 UV-I 0 W/m 2,7 C 4,4 C 4,8 km/h (1 Bft) 94,44 %
12.04.2017 05:40 4,3 C 89 % 1020,9 hPa 0,0 l/m 1,6 km/h (1 Bft) S-SW 205 0 min 0,000 mm 0,0 UV-I 0 W/m 2,7 C 4,3 C 4,8 km/h (1 Bft) 96,23 %
12.04.2017 05:42 4,3 C 90 % 1020,9 hPa 0,0 l/m 3,1 km/h (1 Bft) S-SW 205 0 min 0,000 mm 0,0 UV-I 0 W/m 2,8 C 4,3 C 4,8 km/h (1 Bft) 96,23 %
12.04.2017 05:44 4,3 C 90 % 1020,9 hPa 0,0 l/m 3,7 km/h (1 Bft) S-SW 205 0 min 0,000 mm 0,0 UV-I 0 W/m 2,8 C 4,3 C 6,4 km/h (2 Bft) 94,74 %
12.04.2017 05:46 4,3 C 90 % 1020,9 hPa 0,0 l/m 2,6 km/h (1 Bft) S-SW 205 0 min 0,000 mm 0,0 UV-I 0 W/m 2,8 C 4,3 C 4,8 km/h (1 Bft) 98,21 %
12.04.2017 05:48 4,2 C 90 % 1020,9 hPa 0,0 l/m 2,9 km/h (1 Bft) S-SW 205 0 min 0,000 mm 0,0 UV-I 0 W/m 2,7 C 4,2 C 4,8 km/h (1 Bft) 94,29 %
12.04.2017 05:50 4,2 C 90 % 1020,9 hPa 0,0 l/m 2,1 km/h (1 Bft) S-SW 205 0 min 0,000 mm 0,0 UV-I 0 W/m 2,7 C 4,2 C 3,2 km/h (1 Bft) 94,64 %
12.04.2017 05:52 4,2 C 90 % 1020,9 hPa 0,0 l/m 2,4 km/h (1 Bft) S-SW 205 0 min 0,000 mm 0,0 UV-I 0 W/m 2,7 C 4,2 C 4,8 km/h (1 Bft) 95,12 %
12.04.2017 05:54 4,2 C 90 % 1020,9 hPa 0,0 l/m 3,4 km/h (1 Bft) S-SW 205 0 min 0,000 mm 0,0 UV-I 0 W/m 2,7 C 4,2 C 4,8 km/h (1 Bft) 96,55 %
12.04.2017 05:56 4,2 C 90 % 1020,9 hPa 0,0 l/m 3,9 km/h (1 Bft) S-SW 205 0 min 0,000 mm 0,0 UV-I 0 W/m 2,7 C 4,2 C 4,8 km/h (1 Bft) 92,65 %
12.04.2017 05:58 4,2 C 90 % 1020,9 hPa 0,0 l/m 3,9 km/h (1 Bft) S-SW 205 0 min 0,000 mm 0,0 UV-I 0 W/m 2,7 C 4,2 C 6,4 km/h (2 Bft) 95,12 %
12.04.2017 06:00 4,1 C 90 % 1020,9 hPa 0,0 l/m 5,0 km/h (1 Bft) S-SW 205 0 min 0,000 mm 0,0 UV-I 0 W/m 2,6 C 4,1 C 8,0 km/h (2 Bft) 96,00 %
12.04.2017 06:02 4,1 C 91 % 1020,9 hPa 0,0 l/m 5,7 km/h (1 Bft) S-SW 204 0 min 0,000 mm 0,0 UV-I 0 W/m 2,8 C 4,1 C 8,0 km/h (2 Bft) 94,00 %
12.04.2017 06:04 4,2 C 91 % 1020,9 hPa 0,0 l/m 4,9 km/h (1 Bft) S-SW 207 0 min 0,000 mm 0,0 UV-I 0 W/m 2,9 C 4,2 C 8,0 km/h (2 Bft) 95,45 %
12.04.2017 06:06 4,1 C 91 % 1020,9 hPa 0,0 l/m 4,7 km/h (1 Bft) S-SW 207 0 min 0,000 mm 0,0 UV-I 0 W/m 2,8 C 4,1 C 6,4 km/h (2 Bft) 95,45 %
12.04.2017 06:08 4,1 C 91 % 1020,9 hPa 0,0 l/m 3,4 km/h (1 Bft) S-SW 207 0 min 0,000 mm 0,0 UV-I 0 W/m 2,8 C 4,1 C 6,4 km/h (2 Bft) 95,74 %
12.04.2017 06:10 4,1 C 91 % 1020,9 hPa 0,0 l/m 3,2 km/h (1 Bft) S-SW 207 0 min 0,000 mm 0,0 UV-I 0 W/m 2,8 C 4,1 C 6,4 km/h (2 Bft) 93,62 %
12.04.2017 06:12 4,1 C 91 % 1020,9 hPa 0,0 l/m 3,3 km/h (1 Bft) S-SW 207 0 min 0,000 mm 0,0 UV-I 0 W/m 2,8 C 4,1 C 4,8 km/h (1 Bft) 98,11 %
12.04.2017 06:14 4,1 C 91 % 1021,0 hPa 0,0 l/m 3,1 km/h (1 Bft) S-SW 207 0 min 0,000 mm 0,0 UV-I 4 W/m 2,8 C 4,1 C 4,8 km/h (1 Bft) 95,74 %
12.04.2017 06:16 4,1 C 91 % 1020,9 hPa 0,0 l/m 4,0 km/h (1 Bft) S-SW 207 0 min 0,000 mm 0,0 UV-I 5 W/m 2,8 C 4,1 C 4,8 km/h (1 Bft) 94,00 %
12.04.2017 06:18 4,1 C 91 % 1020,9 hPa 0,0 l/m 3,7 km/h (1 Bft) S-SW 207 0 min 0,000 mm 0,0 UV-I 5 W/m 2,8 C 4,1 C 4,8 km/h (1 Bft) 97,44 %
12.04.2017 06:20 4,1 C 91 % 1021,0 hPa 0,0 l/m 3,8 km/h (1 Bft) S-SW 207 0 min 0,000 mm 0,0 UV-I 5 W/m 2,8 C 4,1 C 6,4 km/h (2 Bft) 96,23 %
12.04.2017 06:22 4,1 C 91 % 1020,9 hPa 0,0 l/m 3,8 km/h (1 Bft) S-SW 207 0 min 0,000 mm 0,0 UV-I 6 W/m 2,8 C 4,1 C 6,4 km/h (2 Bft) 97,37 %
12.04.2017 06:24 4,1 C 91 % 1020,9 hPa 0,0 l/m 4,1 km/h (1 Bft) S-SW 207 0 min 0,000 mm 0,0 UV-I 7 W/m 2,8 C 4,1 C 6,4 km/h (2 Bft) 92,45 %
12.04.2017 06:26 4,1 C 91 % 1020,9 hPa 0,0 l/m 3,3 km/h (1 Bft) S-SW 207 0 min 0,000 mm 0,0 UV-I 9 W/m 2,8 C 4,1 C 6,4 km/h (2 Bft) 95,12 %
12.04.2017 06:28 4,1 C 91 % 1021,0 hPa 0,0 l/m 2,8 km/h (1 Bft) S-SW 207 0 min 0,000 mm 0,0 UV-I 10 W/m 2,8 C 4,1 C 4,8 km/h (1 Bft) 98,11 %
12.04.2017 06:30 4,1 C 90 % 1020,9 hPa 0,0 l/m 2,8 km/h (1 Bft) S-SW 207 0 min 0,000 mm 0,0 UV-I 11 W/m 2,6 C 4,1 C 4,8 km/h (1 Bft) 94,00 %
12.04.2017 06:32 4,1 C 91 % 1021,0 hPa 0,0 l/m 2,7 km/h (1 Bft) S-SW 207 2 min 0,000 mm 0,0 UV-I 12 W/m 2,8 C 4,1 C 3,2 km/h (1 Bft) 95,74 %
12.04.2017 06:34 4,1 C 91 % 1020,9 hPa 0,0 l/m 3,4 km/h (1 Bft) S-SW 207 0 min 0,000 mm 0,0 UV-I 13 W/m 2,8 C 4,1 C 4,8 km/h (1 Bft) 97,37 %
12.04.2017 06:36 4,1 C 91 % 1020,9 hPa 0,0 l/m 3,8 km/h (1 Bft) S-SW 207 0 min 0,000 mm 0,0 UV-I 15 W/m 2,8 C 4,1 C 4,8 km/h (1 Bft) 93,62 %
12.04.2017 06:38 4,1 C 91 % 1020,9 hPa 0,0 l/m 3,5 km/h (1 Bft) S-SW 207 0 min 0,000 mm 0,0 UV-I 16 W/m 2,8 C 4,1 C 4,8 km/h (1 Bft) 94,34 %
12.04.2017 06:40 4,1 C 91 % 1021,0 hPa 0,0 l/m 3,4 km/h (1 Bft) S-SW 207 0 min 0,000 mm 0,0 UV-I 18 W/m 2,8 C 4,1 C 4,8 km/h (1 Bft) 94,29 %
12.04.2017 06:42 4,1 C 91 % 1020,9 hPa 0,0 l/m 2,9 km/h (1 Bft) S-SW 207 0 min 0,000 mm 0,0 UV-I 20 W/m 2,8 C 4,1 C 4,8 km/h (1 Bft) 90,57 %
12.04.2017 06:44 4,1 C 91 % 1020,9 hPa 0,0 l/m 2,3 km/h (1 Bft) S-SW 207 0 min 0,000 mm 0,0 UV-I 22 W/m 2,8 C 4,1 C 3,2 km/h (1 Bft) 98,00 %
12.04.2017 06:46 4,1 C 91 % 1020,9 hPa 0,0 l/m 2,4 km/h (1 Bft) S-SW 207 0 min 0,000 mm 0,0 UV-I 24 W/m 2,8 C 4,1 C 3,2 km/h (1 Bft) 90,24 %
12.04.2017 06:48 4,1 C 91 % 1020,9 hPa 0,0 l/m 2,5 km/h (1 Bft) S-SW 207 0 min 0,000 mm 0,0 UV-I 26 W/m 2,8 C 4,1 C 3,2 km/h (1 Bft) 96,00 %
12.04.2017 06:50 4,1 C 91 % 1021,0 hPa 0,0 l/m 2,4 km/h (1 Bft) S-SW 207 0 min 0,000 mm 0,0 UV-I 29 W/m 2,8 C 4,1 C 3,2 km/h (1 Bft) 96,00 %
12.04.2017 06:52 4,1 C 91 % 1020,9 hPa 0,0 l/m 2,8 km/h (1 Bft) S-SW 207 0 min 0,000 mm 0,0 UV-I 31 W/m 2,8 C 4,1 C 4,8 km/h (1 Bft) 95,74 %
12.04.2017 06:54 4,1 C 91 % 1020,9 hPa 0,0 l/m 2,5 km/h (1 Bft) S-SW 207 0 min 0,000 mm 0,0 UV-I 33 W/m 2,8 C 4,1 C 4,8 km/h (1 Bft) 92,31 %
12.04.2017 06:56 4,1 C 91 % 1020,9 hPa 0,0 l/m 1,7 km/h (1 Bft) S-SW 207 0 min 0,000 mm 0,0 UV-I 35 W/m 2,8 C 4,1 C 3,2 km/h (1 Bft) 96,43 %
12.04.2017 06:58 4,1 C 91 % 1020,9 hPa 0,0 l/m 0,6 km/h (0 Bft) S-SW 207 0 min 0,000 mm 0,0 UV-I 36 W/m 2,8 C 4,1 C 3,2 km/h (1 Bft) 96,15 %
12.04.2017 07:00 4,1 C 91 % 1021,0 hPa 0,0 l/m 1,3 km/h (1 Bft) S-SW 207 0 min 0,000 mm 0,0 UV-I 39 W/m 2,8 C 4,1 C 3,2 km/h (1 Bft) 100,00 %
12.04.2017 07:02 4,1 C 91 % 1021,0 hPa 0,0 l/m 1,9 km/h (1 Bft) S-SW 207 0 min 0,000 mm 0,0 UV-I 40 W/m 2,8 C 4,1 C 4,8 km/h (1 Bft) 95,74 %
12.04.2017 07:04 4,1 C 91 % 1021,0 hPa 0,0 l/m 1,5 km/h (1 Bft) S-SW 207 0 min 0,000 mm 0,0 UV-I 43 W/m 2,8 C 4,1 C 3,2 km/h (1 Bft) 94,00 %
12.04.2017 07:06 4,1 C 91 % 1020,9 hPa 0,0 l/m 1,7 km/h (1 Bft) S-SW 207 0 min 0,000 mm 0,0 UV-I 45 W/m 2,8 C 4,1 C 3,2 km/h (1 Bft) 96,00 %
12.04.2017 07:08 4,1 C 91 % 1020,9 hPa 0,0 l/m 0,4 km/h (0 Bft) S-SW 207 0 min 0,000 mm 0,0 UV-I 48 W/m 2,8 C 4,1 C 1,6 km/h (1 Bft) 94,74 %
12.04.2017 07:10 4,1 C 91 % 1020,9 hPa 0,0 l/m 0,0 km/h (0 Bft) S-SW 207 0 min 0,000 mm 0,0 UV-I 51 W/m 2,8 C 4,1 C 0,0 km/h (0 Bft) 98,00 %
12.04.2017 07:12 4,1 C 91 % 1020,8 hPa 0,0 l/m 0,0 km/h (0 Bft) S-SW 207 0 min 0,000 mm 0,0 UV-I 55 W/m 2,8 C 4,1 C 0,0 km/h (0 Bft) 98,00 %
12.04.2017 07:14 4,0 C 91 % 1020,8 hPa 0,0 l/m 0,0 km/h (0 Bft) S-SW 207 0 min 0,000 mm 0,0 UV-I 59 W/m 2,7 C 4,0 C 1,6 km/h (1 Bft) 98,00 %
12.04.2017 07:16 4,1 C 91 % 1020,7 hPa 0,0 l/m 0,2 km/h (0 Bft) S-SW 207 0 min 0,000 mm 0,0 UV-I 63 W/m 2,8 C 4,1 C 1,6 km/h (1 Bft) 92,11 %
12.04.2017 07:18 4,1 C 92 % 1020,7 hPa 0,0 l/m 0,0 km/h (0 Bft) S-SW 207 0 min 0,000 mm 0,0 UV-I 65 W/m 2,9 C 4,1 C 0,0 km/h (0 Bft) 94,34 %
12.04.2017 07:20 4,2 C 92 % 1020,7 hPa 0,0 l/m 0,0 km/h (0 Bft) S-SW 207 0 min 0,000 mm 0,0 UV-I 70 W/m 3,0 C 4,2 C 0,0 km/h (0 Bft) 97,37 %
12.04.2017 07:22 4,2 C 92 % 1020,8 hPa 0,0 l/m 0,0 km/h (0 Bft) S-SW 207 0 min 0,000 mm 0,0 UV-I 74 W/m 3,0 C 4,2 C 0,0 km/h (0 Bft) 96,23 %
12.04.2017 07:24 4,3 C 91 % 1020,8 hPa 0,0 l/m 0,8 km/h (0 Bft) S-SW 207 0 min 0,000 mm 0,0 UV-I 78 W/m 3,0 C 4,3 C 1,6 km/h (1 Bft) 97,56 %
12.04.2017 07:26 4,3 C 91 % 1020,8 hPa 0,0 l/m 0,3 km/h (0 Bft) S-SW 207 0 min 0,000 mm 0,0 UV-I 82 W/m 3,0 C 4,3 C 1,6 km/h (1 Bft) 97,87 %
12.04.2017 07:28 4,4 C 91 % 1020,8 hPa 0,0 l/m 0,7 km/h (0 Bft) S-SW 207 0 min 0,000 mm 0,0 UV-I 84 W/m 3,1 C 4,4 C 1,6 km/h (1 Bft) 94,00 %
12.04.2017 07:30 4,4 C 91 % 1020,8 hPa 0,0 l/m 0,2 km/h (0 Bft) S-SW 207 0 min 0,000 mm 0,0 UV-I 88 W/m 3,1 C 4,4 C 1,6 km/h (1 Bft) 96,23 %
12.04.2017 07:32 4,4 C 91 % 1020,8 hPa 0,0 l/m 0,0 km/h (0 Bft) S-SW 207 0 min 0,000 mm 0,0 UV-I 90 W/m 3,1 C 4,4 C 1,6 km/h (1 Bft) 91,49 %
12.04.2017 07:34 4,5 C 91 % 1020,9 hPa 0,0 l/m 0,0 km/h (0 Bft) S-SW 207 0 min 0,000 mm 0,0 UV-I 91 W/m 3,2 C 4,5 C 0,0 km/h (0 Bft) 97,87 %
12.04.2017 07:36 4,6 C 91 % 1020,9 hPa 0,0 l/m 0,0 km/h (0 Bft) S-SW 207 0 min 0,000 mm 0,0 UV-I 93 W/m 3,3 C 4,6 C 0,0 km/h (0 Bft) 94,87 %
12.04.2017 07:38 4,7 C 91 % 1020,8 hPa 0,0 l/m 0,0 km/h (0 Bft) S-SW 207 0 min 0,000 mm 0,0 UV-I 93 W/m 3,4 C 4,7 C 0,0 km/h (0 Bft) 96,23 %
12.04.2017 07:40 4,7 C 91 % 1020,8 hPa 0,0 l/m 0,0 km/h (0 Bft) S-SW 207 0 min 0,000 mm 0,0 UV-I 96 W/m 3,4 C 4,7 C 0,0 km/h (0 Bft) 93,62 %
12.04.2017 07:42 4,7 C 91 % 1020,9 hPa 0,0 l/m 0,5 km/h (0 Bft) S-SW 207 0 min 0,000 mm 0,0 UV-I 98 W/m 3,4 C 4,7 C 1,6 km/h (1 Bft) 94,74 %
12.04.2017 07:44 4,7 C 91 % 1020,9 hPa 0,0 l/m 0,2 km/h (0 Bft) S-SW 207 0 min 0,000 mm 0,0 UV-I 100 W/m 3,4 C 4,7 C 1,6 km/h (1 Bft) 94,29 %
12.04.2017 07:46 4,8 C 91 % 1020,9 hPa 0,0 l/m 0,0 km/h (0 Bft) S-SW 207 0 min 0,000 mm 0,0 UV-I 104 W/m 3,5 C 4,8 C 0,0 km/h (0 Bft) 95,16 %
12.04.2017 07:48 4,9 C 91 % 1020,9 hPa 0,0 l/m 0,0 km/h (0 Bft) S-SW 207 0 min 0,000 mm 0,0 UV-I 110 W/m 3,6 C 4,9 C 0,0 km/h (0 Bft) 94,00 %
12.04.2017 07:50 5,0 C 91 % 1020,9 hPa 0,0 l/m 0,0 km/h (0 Bft) S-SW 207 0 min 0,000 mm 0,0 UV-I 114 W/m 3,7 C 5,0 C 0,0 km/h (0 Bft) 97,37 %
12.04.2017 07:52 5,1 C 90 % 1020,9 hPa 0,0 l/m 0,0 km/h (0 Bft) S-SW 207 0 min 0,000 mm 0,0 UV-I 120 W/m 3,6 C 5,1 C 0,0 km/h (0 Bft) 94,34 %
12.04.2017 07:54 5,1 C 90 % 1021,0 hPa 0,0 l/m 0,2 km/h (0 Bft) S-SW 207 0 min 0,000 mm 0,0 UV-I 124 W/m 3,6 C 5,1 C 1,6 km/h (1 Bft) 96,00 %
12.04.2017 07:56 5,2 C 90 % 1021,0 hPa 0,0 l/m 0,1 km/h (0 Bft) S-SW 207 0 min 0,000 mm 0,0 UV-I 127 W/m 3,7 C 5,2 C 1,6 km/h (1 Bft) 97,56 %
12.04.2017 07:58 5,2 C 90 % 1021,0 hPa 0,0 l/m 0,9 km/h (0 Bft) S-SW 207 0 min 0,000 mm 0,0 UV-I 129 W/m 3,7 C 5,2 C 3,2 km/h (1 Bft) 95,74 %
12.04.2017 08:00 5,2 C 90 % 1020,9 hPa 0,0 l/m 0,5 km/h (0 Bft) S-SW 207 0 min 0,025 mm 0,0 UV-I 132 W/m 3,7 C 5,2 C 1,6 km/h (1 Bft) 95,74 %
12.04.2017 08:02 5,2 C 89 % 1020,9 hPa 0,0 l/m 1,2 km/h (1 Bft) S-SW 207 0 min 0,000 mm 0,0 UV-I 135 W/m 3,5 C 5,2 C 3,2 km/h (1 Bft) 96,00 %
12.04.2017 08:04 5,3 C 89 % 1021,0 hPa 0,0 l/m 1,2 km/h (1 Bft) S-SW 207 0 min 0,000 mm 0,0 UV-I 139 W/m 3,6 C 5,3 C 3,2 km/h (1 Bft) 100,00 %
12.04.2017 08:06 5,4 C 90 % 1020,9 hPa 0,0 l/m 1,7 km/h (1 Bft) S-SW 207 0 min 0,000 mm 0,0 UV-I 143 W/m 3,9 C 5,4 C 3,2 km/h (1 Bft) 100,00 %
12.04.2017 08:08 5,4 C 89 % 1020,9 hPa 0,0 l/m 1,6 km/h (1 Bft) S-SW 207 0 min 0,000 mm 0,0 UV-I 144 W/m 3,7 C 5,4 C 3,2 km/h (1 Bft) 100,00 %
12.04.2017 08:10 5,6 C 89 % 1020,9 hPa 0,0 l/m 1,7 km/h (1 Bft) S-SW 207 0 min 0,000 mm 0,0 UV-I 144 W/m 3,9 C 5,6 C 3,2 km/h (1 Bft) 97,62 %
12.04.2017 08:12 5,6 C 89 % 1020,9 hPa 0,0 l/m 1,1 km/h (1 Bft) S-SW 207 0 min 0,000 mm 0,0 UV-I 146 W/m 3,9 C 5,6 C 3,2 km/h (1 Bft) 97,56 %
12.04.2017 08:14 5,7 C 89 % 1020,9 hPa 0,0 l/m 0,7 km/h (0 Bft) S-SW 207 0 min 0,000 mm 0,0 UV-I 148 W/m 4,0 C 5,7 C 3,2 km/h (1 Bft) 100,00 %
12.04.2017 08:16 5,7 C 88 % 1020,9 hPa 0,0 l/m 1,2 km/h (1 Bft) S-SW 207 0 min 0,000 mm 0,0 UV-I 154 W/m 3,9 C 5,7 C 3,2 km/h (1 Bft) 96,00 %
12.04.2017 08:18 5,7 C 88 % 1020,9 hPa 0,0 l/m 0,0 km/h (0 Bft) S-SW 207 0 min 0,000 mm 0,0 UV-I 157 W/m 3,9 C 5,7 C 1,6 km/h (1 Bft) 100,00 %
12.04.2017 08:20 5,8 C 88 % 1020,9 hPa 0,0 l/m 0,2 km/h (0 Bft) S-SW 207 0 min 0,000 mm 0,0 UV-I 160 W/m 4,0 C 5,8 C 1,6 km/h (1 Bft) 92,68 %
12.04.2017 08:22 5,8 C 89 % 1021,0 hPa 0,0 l/m 2,6 km/h (1 Bft) S-SW 207 0 min 0,000 mm 0,0 UV-I 162 W/m 4,1 C 5,8 C 4,8 km/h (1 Bft) 98,00 %
12.04.2017 08:24 5,9 C 88 % 1021,0 hPa 0,0 l/m 2,2 km/h (1 Bft) S-SW 207 0 min 0,000 mm 0,0 UV-I 168 W/m 4,1 C 5,9 C 3,2 km/h (1 Bft) 100,00 %
12.04.2017 08:26 5,9 C 88 % 1021,0 hPa 0,0 l/m 1,3 km/h (1 Bft) S-SW 207 0 min 0,000 mm 0,0 UV-I 173 W/m 4,1 C 5,9 C 3,2 km/h (1 Bft) 100,00 %
12.04.2017 08:28 5,9 C 88 % 1020,9 hPa 0,0 l/m 2,3 km/h (1 Bft) S-SW 207 0 min 0,000 mm 0,0 UV-I 175 W/m 4,1 C 5,9 C 4,8 km/h (1 Bft) 98,00 %
12.04.2017 08:30 5,9 C 88 % 1020,9 hPa 0,0 l/m 2,7 km/h (1 Bft) S-SW 207 0 min 0,000 mm 0,0 UV-I 176 W/m 4,1 C 5,9 C 4,8 km/h (1 Bft) 97,14 %
12.04.2017 08:32 6,0 C 88 % 1020,9 hPa 0,0 l/m 1,3 km/h (1 Bft) S-SW 207 0 min 0,000 mm 0,0 UV-I 177 W/m 4,2 C 6,0 C 3,2 km/h (1 Bft) 100,00 %
12.04.2017 08:34 6,1 C 88 % 1020,9 hPa 0,0 l/m 2,3 km/h (1 Bft) S-SW 207 0 min 0,000 mm 0,0 UV-I 177 W/m 4,3 C 6,1 C 4,8 km/h (1 Bft) 100,00 %
12.04.2017 08:36 6,1 C 87 % 1020,9 hPa 0,0 l/m 1,5 km/h (1 Bft) S-SW 207 0 min 0,000 mm 0,0 UV-I 178 W/m 4,1 C 6,1 C 3,2 km/h (1 Bft) 100,00 %
12.04.2017 08:38 6,1 C 87 % 1020,9 hPa 0,0 l/m 1,7 km/h (1 Bft) S-SW 207 0 min 0,000 mm 0,0 UV-I 179 W/m 4,1 C 6,1 C 3,2 km/h (1 Bft) 97,87 %
12.04.2017 08:40 6,2 C 88 % 1020,9 hPa 0,0 l/m 2,1 km/h (1 Bft) S-SW 207 0 min 0,000 mm 0,1 UV-I 182 W/m 4,4 C 6,2 C 3,2 km/h (1 Bft) 100,00 %
12.04.2017 08:42 6,2 C 87 % 1020,9 hPa 0,0 l/m 2,4 km/h (1 Bft) S-SW 207 0 min 0,000 mm 0,5 UV-I 184 W/m 4,2 C 6,2 C 3,2 km/h (1 Bft) 98,11 %
12.04.2017 08:44 6,3 C 86 % 1020,9 hPa 0,0 l/m 1,3 km/h (1 Bft) S-SW 207 0 min 0,000 mm 0,5 UV-I 188 W/m 4,1 C 6,3 C 3,2 km/h (1 Bft) 95,74 %
12.04.2017 08:46 6,2 C 86 % 1020,9 hPa 0,0 l/m 1,1 km/h (1 Bft) S-SW 207 0 min 0,000 mm 0,5 UV-I 194 W/m 4,0 C 6,2 C 3,2 km/h (1 Bft) 100,00 %
12.04.2017 08:48 6,3 C 87 % 1020,9 hPa 0,0 l/m 0,5 km/h (0 Bft) S-SW 207 0 min 0,000 mm 0,5 UV-I 205 W/m 4,3 C 6,3 C 1,6 km/h (1 Bft) 96,00 %
12.04.2017 08:50 6,4 C 87 % 1020,8 hPa 0,0 l/m 1,1 km/h (1 Bft) S-SW 208 0 min 0,000 mm 0,6 UV-I 215 W/m 4,4 C 6,4 C 3,2 km/h (1 Bft) 98,00 %
12.04.2017 08:52 6,4 C 85 % 1020,9 hPa 0,0 l/m 2,7 km/h (1 Bft) S-SW 208 0 min 0,000 mm 0,6 UV-I 225 W/m 4,1 C 6,4 C 3,2 km/h (1 Bft) 94,87 %
12.04.2017 08:54 6,4 C 85 % 1020,9 hPa 0,0 l/m 1,5 km/h (1 Bft) S-SW 208 2 min 0,000 mm 0,6 UV-I 245 W/m 4,1 C 6,4 C 3,2 km/h (1 Bft) 96,61 %
12.04.2017 08:56 6,4 C 85 % 1020,9 hPa 0,0 l/m 1,0 km/h (0 Bft) S-SW 208 2 min 0,000 mm 0,6 UV-I 252 W/m 4,1 C 6,4 C 3,2 km/h (1 Bft) 97,87 %
12.04.2017 08:58 6,6 C 86 % 1020,9 hPa 0,0 l/m 0,0 km/h (0 Bft) S-SW 207 2 min 0,000 mm 0,7 UV-I 260 W/m 4,4 C 6,6 C 1,6 km/h (1 Bft) 100,00 %
12.04.2017 09:00 6,8 C 86 % 1020,9 hPa 0,0 l/m 0,1 km/h (0 Bft) S-SW 207 2 min 0,000 mm 0,7 UV-I 285 W/m 4,6 C 6,8 C 1,6 km/h (1 Bft) 100,00 %
12.04.2017 09:02 6,8 C 84 % 1020,9 hPa 0,0 l/m 0,3 km/h (0 Bft) S-SW 208 2 min 0,077 mm 0,7 UV-I 291 W/m 4,3 C 6,8 C 1,6 km/h (1 Bft) 98,00 %
12.04.2017 09:04 6,9 C 85 % 1020,8 hPa 0,0 l/m 0,3 km/h (0 Bft) S-SW 208 2 min 0,000 mm 0,8 UV-I 295 W/m 4,6 C 6,9 C 1,6 km/h (1 Bft) 100,00 %
12.04.2017 09:06 7,0 C 85 % 1020,8 hPa 0,0 l/m 0,8 km/h (0 Bft) S-SW 208 2 min 0,000 mm 0,8 UV-I 298 W/m 4,7 C 7,0 C 3,2 km/h (1 Bft) 97,87 %
12.04.2017 09:08 7,0 C 83 % 1020,7 hPa 0,0 l/m 2,8 km/h (1 Bft) S-SW 211 2 min 0,000 mm 0,8 UV-I 326 W/m 4,3 C 7,0 C 4,8 km/h (1 Bft) 100,00 %
12.04.2017 09:10 7,1 C 83 % 1020,7 hPa 0,0 l/m 2,3 km/h (1 Bft) S-SW 211 2 min 0,000 mm 0,9 UV-I 347 W/m 4,4 C 7,1 C 4,8 km/h (1 Bft) 100,00 %
12.04.2017 09:12 7,2 C 84 % 1020,6 hPa 0,0 l/m 2,0 km/h (1 Bft) W-NW 287 2 min 0,000 mm 0,9 UV-I 368 W/m 4,7 C 7,2 C 4,8 km/h (1 Bft) 100,00 %
12.04.2017 09:14 7,3 C 82 % 1020,6 hPa 0,0 l/m 2,1 km/h (1 Bft) W-NW 287 2 min 0,000 mm 0,9 UV-I 384 W/m 4,4 C 7,3 C 4,8 km/h (1 Bft) 98,00 %
12.04.2017 09:16 7,4 C 81 % 1020,6 hPa 0,0 l/m 1,6 km/h (1 Bft) W 266 2 min 0,000 mm 1,0 UV-I 390 W/m 4,4 C 7,4 C 6,4 km/h (2 Bft) 100,00 %
12.04.2017 09:18 7,5 C 82 % 1020,6 hPa 0,0 l/m 5,4 km/h (1 Bft) W-SW 240 2 min 0,000 mm 1,0 UV-I 388 W/m 4,6 C 7,5 C 8,0 km/h (2 Bft) 98,00 %
12.04.2017 09:20 7,7 C 81 % 1020,6 hPa 0,0 l/m 3,9 km/h (1 Bft) W-SW 241 2 min 0,000 mm 1,0 UV-I 376 W/m 4,7 C 7,7 C 4,8 km/h (1 Bft) 100,00 %
12.04.2017 09:22 7,6 C 80 % 1020,6 hPa 0,0 l/m 4,4 km/h (1 Bft) W 261 2 min 0,000 mm 1,0 UV-I 363 W/m 4,4 C 7,6 C 6,4 km/h (2 Bft) 100,00 %
12.04.2017 09:24 7,6 C 80 % 1020,6 hPa 0,0 l/m 5,2 km/h (1 Bft) W-SW 239 2 min 0,000 mm 1,0 UV-I 359 W/m 4,4 C 7,6 C 8,0 km/h (2 Bft) 100,00 %
12.04.2017 09:26 7,7 C 80 % 1020,6 hPa 0,0 l/m 3,3 km/h (1 Bft) W-SW 239 2 min 0,000 mm 1,0 UV-I 361 W/m 4,5 C 7,7 C 6,4 km/h (2 Bft) 95,74 %
12.04.2017 09:28 7,8 C 81 % 1020,6 hPa 0,0 l/m 4,0 km/h (1 Bft) SW 234 2 min 0,000 mm 1,0 UV-I 373 W/m 4,7 C 7,8 C 6,4 km/h (2 Bft) 94,44 %
12.04.2017 09:30 7,8 C 80 % 1020,6 hPa 0,0 l/m 4,8 km/h (1 Bft) SW 234 2 min 0,000 mm 1,1 UV-I 388 W/m 4,6 C 7,8 C 6,4 km/h (2 Bft) 98,00 %
12.04.2017 09:32 7,8 C 80 % 1020,6 hPa 0,0 l/m 2,9 km/h (1 Bft) SW 215 2 min 0,000 mm 1,1 UV-I 365 W/m 4,6 C 7,8 C 4,8 km/h (1 Bft) 96,23 %
12.04.2017 09:34 7,9 C 80 % 1020,6 hPa 0,0 l/m 2,8 km/h (1 Bft) SW 215 2 min 0,000 mm 1,1 UV-I 381 W/m 4,7 C 7,9 C 4,8 km/h (1 Bft) 97,37 %
12.04.2017 09:36 7,9 C 80 % 1020,6 hPa 0,0 l/m 1,2 km/h (1 Bft) SW 215 2 min 0,000 mm 1,2 UV-I 404 W/m 4,7 C 7,9 C 3,2 km/h (1 Bft) 96,61 %
12.04.2017 09:38 8,1 C 82 % 1020,5 hPa 0,0 l/m 1,4 km/h (1 Bft) SW 215 2 min 0,000 mm 1,2 UV-I 404 W/m 5,2 C 8,1 C 3,2 km/h (1 Bft) 95,12 %
12.04.2017 09:40 8,1 C 79 % 1020,5 hPa 0,0 l/m 1,6 km/h (1 Bft) SW 215 2 min 0,000 mm 1,3 UV-I 419 W/m 4,7 C 8,1 C 3,2 km/h (1 Bft) 94,00 %
12.04.2017 09:42 8,3 C 81 % 1020,6 hPa 0,0 l/m 1,8 km/h (1 Bft) SW 215 2 min 0,000 mm 1,3 UV-I 416 W/m 5,2 C 8,3 C 3,2 km/h (1 Bft) 97,56 %
12.04.2017 09:44 8,3 C 79 % 1020,5 hPa 0,0 l/m 2,4 km/h (1 Bft) SW 215 2 min 0,000 mm 1,3 UV-I 405 W/m 4,9 C 8,3 C 6,4 km/h (2 Bft) 91,07 %
12.04.2017 09:46 8,3 C 79 % 1020,5 hPa 0,0 l/m 0,8 km/h (0 Bft) S-SW 213 2 min 0,000 mm 1,3 UV-I 414 W/m 4,9 C 8,3 C 6,4 km/h (2 Bft) 94,74 %
12.04.2017 09:48 8,2 C 78 % 1020,5 hPa 0,0 l/m 2,1 km/h (1 Bft) S-SW 212 2 min 0,000 mm 1,3 UV-I 424 W/m 4,6 C 8,2 C 3,2 km/h (1 Bft) 94,34 %
12.04.2017 09:50 8,2 C 79 % 1020,5 hPa 0,0 l/m 3,5 km/h (1 Bft) SW 223 2 min 0,000 mm 1,4 UV-I 441 W/m 4,8 C 8,2 C 6,4 km/h (2 Bft) 94,74 %
12.04.2017 09:52 8,3 C 78 % 1020,5 hPa 0,0 l/m 4,0 km/h (1 Bft) W-SW 254 2 min 0,000 mm 1,4 UV-I 458 W/m 4,7 C 8,3 C 6,4 km/h (2 Bft) 94,92 %
12.04.2017 09:54 8,4 C 79 % 1020,4 hPa 0,0 l/m 1,5 km/h (1 Bft) W-SW 254 2 min 0,000 mm 1,5 UV-I 482 W/m 5,0 C 8,4 C 3,2 km/h (1 Bft) 85,71 %
12.04.2017 09:56 8,6 C 78 % 1020,4 hPa 0,0 l/m 5,5 km/h (1 Bft) SW 234 2 min 0,000 mm 1,5 UV-I 498 W/m 5,0 C 8,6 C 8,0 km/h (2 Bft) 94,00 %
12.04.2017 09:58 8,6 C 76 % 1020,4 hPa 0,0 l/m 5,5 km/h (1 Bft) W-SW 252 2 min 0,000 mm 1,5 UV-I 504 W/m 4,6 C 8,6 C 8,0 km/h (2 Bft) 94,00 %
12.04.2017 10:00 8,5 C 78 % 1020,3 hPa 0,0 l/m 2,3 km/h (1 Bft) S 182 2 min 0,177 mm 1,5 UV-I 493 W/m 4,9 C 8,5 C 4,8 km/h (1 Bft) 96,00 %
12.04.2017 10:02 8,6 C 79 % 1020,4 hPa 0,0 l/m 2,4 km/h (1 Bft) S 182 2 min 0,000 mm 1,6 UV-I 510 W/m 5,2 C 8,6 C 4,8 km/h (1 Bft) 94,29 %
12.04.2017 10:04 8,8 C 78 % 1020,4 hPa 0,0 l/m 1,9 km/h (1 Bft) S 182 2 min 0,000 mm 1,7 UV-I 538 W/m 5,2 C 8,8 C 4,8 km/h (1 Bft) 98,11 %
12.04.2017 10:06 8,8 C 78 % 1020,3 hPa 0,0 l/m 1,1 km/h (1 Bft) S 182 2 min 0,000 mm 1,7 UV-I 539 W/m 5,2 C 8,8 C 3,2 km/h (1 Bft) 94,00 %
12.04.2017 10:09 9,1 C 77 % 1020,3 hPa 0,0 l/m 2,6 km/h (1 Bft) SW 235 3 min 0,000 mm 1,7 UV-I 539 W/m 5,3 C 9,1 C 6,4 km/h (2 Bft) 97,40 %
12.04.2017 10:10 9,1 C 77 % 1020,3 hPa 0,0 l/m 5,3 km/h (1 Bft) SW 229 1 min 0,000 mm 1,7 UV-I 526 W/m 5,3 C 9,1 C 6,4 km/h (2 Bft) 91,67 %
12.04.2017 10:12 9,3 C 76 % 1020,4 hPa 0,0 l/m 4,6 km/h (1 Bft) SW 229 2 min 0,000 mm 1,7 UV-I 527 W/m 5,3 C 9,3 C 9,7 km/h (2 Bft) 98,00 %
12.04.2017 10:14 9,4 C 75 % 1020,3 hPa 0,0 l/m 3,3 km/h (1 Bft) SW 215 2 min 0,000 mm 1,6 UV-I 491 W/m 5,2 C 9,4 C 4,8 km/h (1 Bft) 96,23 %
12.04.2017 10:16 9,7 C 74 % 1020,3 hPa 0,0 l/m 6,4 km/h (2 Bft) S-SW 204 2 min 0,000 mm 1,6 UV-I 477 W/m 5,3 C 9,7 C 9,7 km/h (2 Bft) 97,37 %
12.04.2017 10:18 9,8 C 72 % 1020,4 hPa 0,0 l/m 6,0 km/h (2 Bft) S-SW 209 2 min 0,000 mm 1,7 UV-I 485 W/m 5,0 C 9,8 C 9,7 km/h (2 Bft) 98,21 %
12.04.2017 10:20 9,6 C 72 % 1020,3 hPa 0,0 l/m 2,3 km/h (1 Bft) S-SW 209 2 min 0,000 mm 1,7 UV-I 513 W/m 4,8 C 9,6 C 6,4 km/h (2 Bft) 97,14 %
12.04.2017 10:22 9,5 C 73 % 1020,3 hPa 0,0 l/m 4,8 km/h (1 Bft) SW 214 2 min 0,000 mm 1,7 UV-I 513 W/m 4,9 C 9,5 C 8,0 km/h (2 Bft) 98,31 %
12.04.2017 10:24 9,5 C 71 % 1020,3 hPa 0,0 l/m 4,4 km/h (1 Bft) S 188 2 min 0,000 mm 1,7 UV-I 486 W/m 4,5 C 9,5 C 9,7 km/h (2 Bft) 91,49 %
12.04.2017 10:26 9,6 C 74 % 1020,2 hPa 0,0 l/m 5,3 km/h (1 Bft) SW 234 2 min 0,000 mm 1,8 UV-I 501 W/m 5,2 C 9,6 C 8,0 km/h (2 Bft) 95,12 %
12.04.2017 10:29 9,8 C 73 % 1020,3 hPa 0,0 l/m 3,0 km/h (1 Bft) SW 234 3 min 0,000 mm 1,8 UV-I 504 W/m 5,2 C 9,8 C 6,4 km/h (2 Bft) 97,26 %
12.04.2017 10:30 9,7 C 72 % 1020,3 hPa 0,0 l/m 0,6 km/h (0 Bft) SW 234 1 min 0,000 mm 1,8 UV-I 496 W/m 4,9 C 9,7 C 1,6 km/h (1 Bft) 95,83 %
12.04.2017 10:32 9,8 C 70 % 1020,3 hPa 0,0 l/m 2,5 km/h (1 Bft) W 263 2 min 0,000 mm 1,7 UV-I 464 W/m 4,6 C 9,8 C 6,4 km/h (2 Bft) 97,56 %
12.04.2017 10:34 9,8 C 69 % 1020,3 hPa 0,0 l/m 5,4 km/h (1 Bft) W 269 2 min 0,000 mm 1,7 UV-I 425 W/m 4,4 C 9,8 C 11,3 km/h (2 Bft) 98,11 %
12.04.2017 10:36 9,9 C 71 % 1020,3 hPa 0,0 l/m 3,3 km/h (1 Bft) W 281 2 min 0,000 mm 1,7 UV-I 420 W/m 4,9 C 9,9 C 4,8 km/h (1 Bft) 97,14 %
12.04.2017 10:38 9,9 C 71 % 1020,3 hPa 0,0 l/m 2,6 km/h (1 Bft) W-SW 248 2 min 0,000 mm 1,7 UV-I 437 W/m 4,9 C 9,9 C 4,8 km/h (1 Bft) 96,43 %
12.04.2017 10:40 9,9 C 71 % 1020,3 hPa 0,0 l/m 3,1 km/h (1 Bft) W-SW 250 2 min 0,000 mm 1,8 UV-I 469 W/m 4,9 C 9,9 C 4,8 km/h (1 Bft) 94,00 %
12.04.2017 10:42 9,9 C 70 % 1020,3 hPa 0,0 l/m 2,3 km/h (1 Bft) W-SW 240 2 min 0,000 mm 1,9 UV-I 491 W/m 4,7 C 9,9 C 4,8 km/h (1 Bft) 94,29 %
12.04.2017 10:44 9,8 C 71 % 1020,3 hPa 0,0 l/m 0,9 km/h (0 Bft) W-SW 240 2 min 0,000 mm 2,0 UV-I 514 W/m 4,8 C 9,8 C 4,8 km/h (1 Bft) 94,64 %
12.04.2017 10:46 9,8 C 71 % 1020,2 hPa 0,0 l/m 0,6 km/h (0 Bft) W-SW 240 2 min 0,000 mm 2,0 UV-I 510 W/m 4,8 C 9,8 C 3,2 km/h (1 Bft) 97,87 %
12.04.2017 10:48 9,9 C 71 % 1020,3 hPa 0,0 l/m 3,9 km/h (1 Bft) W-SW 243 2 min 0,000 mm 1,9 UV-I 471 W/m 4,9 C 9,9 C 8,0 km/h (2 Bft) 97,62 %
12.04.2017 10:50 10,1 C 66 % 1020,3 hPa 0,0 l/m 2,3 km/h (1 Bft) W-SW 245 2 min 0,000 mm 1,8 UV-I 416 W/m 4,0 C 10,1 C 6,4 km/h (2 Bft) 95,45 %
12.04.2017 10:52 10,2 C 67 % 1020,3 hPa 0,0 l/m 2,5 km/h (1 Bft) W-SW 244 2 min 0,000 mm 1,8 UV-I 402 W/m 4,4 C 10,2 C 6,4 km/h (2 Bft) 100,00 %
12.04.2017 10:54 10,3 C 66 % 1020,3 hPa 0,0 l/m 0,7 km/h (0 Bft) W-SW 244 2 min 0,000 mm 2,1 UV-I 499 W/m 4,2 C 10,3 C 4,8 km/h (1 Bft) 97,73 %
12.04.2017 10:56 10,5 C 67 % 1020,2 hPa 0,0 l/m 2,9 km/h (1 Bft) W-SW 248 2 min 0,000 mm 2,1 UV-I 540 W/m 4,6 C 10,5 C 6,4 km/h (2 Bft) 98,11 %
12.04.2017 10:58 10,8 C 66 % 1020,3 hPa 0,0 l/m 3,5 km/h (1 Bft) W 279 2 min 0,000 mm 2,1 UV-I 536 W/m 4,7 C 10,8 C 9,7 km/h (2 Bft) 100,00 %
12.04.2017 11:00 11,1 C 67 % 1020,2 hPa 0,0 l/m 1,8 km/h (1 Bft) W-NW 303 2 min 0,229 mm 2,2 UV-I 543 W/m 5,2 C 11,1 C 4,8 km/h (1 Bft) 98,53 %
12.04.2017 11:02 11,1 C 67 % 1020,1 hPa 0,0 l/m 2,5 km/h (1 Bft) NW 317 2 min 0,000 mm 2,2 UV-I 566 W/m 5,2 C 11,1 C 6,4 km/h (2 Bft) 97,56 %
12.04.2017 11:04 11,2 C 66 % 1020,2 hPa 0,0 l/m 3,3 km/h (1 Bft) W 262 2 min 0,000 mm 2,2 UV-I 546 W/m 5,1 C 11,2 C 6,4 km/h (2 Bft) 100,00 %
12.04.2017 11:06 11,2 C 67 % 1020,2 hPa 0,0 l/m 1,1 km/h (1 Bft) W 272 2 min 0,000 mm 2,3 UV-I 562 W/m 5,3 C 11,2 C 3,2 km/h (1 Bft) 97,56 %
12.04.2017 11:08 11,2 C 66 % 1020,1 hPa 0,0 l/m 2,0 km/h (1 Bft) NW 305 2 min 0,000 mm 2,3 UV-I 577 W/m 5,1 C 11,2 C 4,8 km/h (1 Bft) 100,00 %
12.04.2017 11:10 11,3 C 66 % 1020,1 hPa 0,0 l/m 3,2 km/h (1 Bft) N 11 2 min 0,000 mm 2,4 UV-I 573 W/m 5,2 C 11,3 C 6,4 km/h (2 Bft) 100,00 %
12.04.2017 11:12 11,1 C 66 % 1020,1 hPa 0,0 l/m 2,5 km/h (1 Bft) W-NW 298 2 min 0,000 mm 2,4 UV-I 585 W/m 5,0 C 11,1 C 4,8 km/h (1 Bft) 98,39 %
12.04.2017 11:14 10,9 C 66 % 1020,1 hPa 0,0 l/m 2,4 km/h (1 Bft) W-NW 302 2 min 0,000 mm 2,4 UV-I 592 W/m 4,8 C 10,9 C 4,8 km/h (1 Bft) 100,00 %
12.04.2017 11:16 10,9 C 66 % 1020,1 hPa 0,0 l/m 3,3 km/h (1 Bft) W-NW 283 2 min 0,000 mm 2,5 UV-I 605 W/m 4,8 C 10,9 C 6,4 km/h (2 Bft) 100,00 %
12.04.2017 11:18 11,1 C 65 % 1020,1 hPa 0,0 l/m 3,3 km/h (1 Bft) W-NW 284 2 min 0,000 mm 2,5 UV-I 612 W/m 4,8 C 11,1 C 6,4 km/h (2 Bft) 98,00 %
12.04.2017 11:20 11,2 C 66 % 1020,1 hPa 0,0 l/m 1,9 km/h (1 Bft) NO 46 2 min 0,000 mm 2,6 UV-I 634 W/m 5,1 C 11,2 C 6,4 km/h (2 Bft) 97,14 %
12.04.2017 11:22 11,3 C 66 % 1020,1 hPa 0,0 l/m 2,4 km/h (1 Bft) W-NW 292 2 min 0,000 mm 2,6 UV-I 633 W/m 5,2 C 11,3 C 4,8 km/h (1 Bft) 96,00 %
12.04.2017 11:24 11,4 C 69 % 1020,0 hPa 0,0 l/m 2,2 km/h (1 Bft) N-NO 28 2 min 0,000 mm 2,6 UV-I 623 W/m 5,9 C 11,4 C 4,8 km/h (1 Bft) 98,00 %
12.04.2017 11:26 11,4 C 62 % 1020,0 hPa 0,0 l/m 2,2 km/h (1 Bft) NO 54 2 min 0,000 mm 2,6 UV-I 607 W/m 4,4 C 11,4 C 4,8 km/h (1 Bft) 97,87 %
12.04.2017 11:28 11,7 C 66 % 1020,0 hPa 0,0 l/m 2,7 km/h (1 Bft) W 265 2 min 0,000 mm 2,7 UV-I 635 W/m 5,6 C 11,7 C 4,8 km/h (1 Bft) 94,00 %
12.04.2017 11:30 11,9 C 64 % 1019,9 hPa 0,0 l/m 2,8 km/h (1 Bft) NW 319 2 min 0,000 mm 2,8 UV-I 647 W/m 5,3 C 11,9 C 6,4 km/h (2 Bft) 97,78 %
12.04.2017 11:32 12,0 C 60 % 1019,9 hPa 0,0 l/m 2,9 km/h (1 Bft) W-NW 301 2 min 0,000 mm 2,9 UV-I 662 W/m 4,5 C 12,0 C 6,4 km/h (2 Bft) 94,34 %
12.04.2017 11:34 12,1 C 62 % 1019,9 hPa 0,0 l/m 5,5 km/h (1 Bft) W-NW 302 2 min 0,000 mm 2,9 UV-I 670 W/m 5,0 C 12,1 C 12,9 km/h (3 Bft) 97,62 %
12.04.2017 11:36 11,8 C 58 % 1019,9 hPa 0,0 l/m 3,8 km/h (1 Bft) W-NW 284 2 min 0,000 mm 2,9 UV-I 661 W/m 3,8 C 11,8 C 11,3 km/h (2 Bft) 93,18 %
12.04.2017 11:38 11,9 C 61 % 1019,9 hPa 0,0 l/m 2,9 km/h (1 Bft) NW 317 2 min 0,000 mm 2,9 UV-I 678 W/m 4,6 C 11,9 C 6,4 km/h (2 Bft) 97,73 %
12.04.2017 11:40 12,1 C 58 % 1019,9 hPa 0,0 l/m 1,3 km/h (1 Bft) W-NW 300 2 min 0,000 mm 2,9 UV-I 669 W/m 4,1 C 12,1 C 3,2 km/h (1 Bft) 97,87 %
12.04.2017 11:42 11,9 C 57 % 1019,8 hPa 0,0 l/m 2,4 km/h (1 Bft) W-NW 294 2 min 0,000 mm 3,1 UV-I 702 W/m 3,7 C 11,9 C 6,4 km/h (2 Bft) 96,30 %
12.04.2017 11:44 11,9 C 60 % 1019,8 hPa 0,0 l/m 2,4 km/h (1 Bft) W-NW 296 2 min 0,000 mm 3,1 UV-I 697 W/m 4,4 C 11,9 C 8,0 km/h (2 Bft) 94,00 %
12.04.2017 11:46 11,9 C 58 % 1019,7 hPa 0,0 l/m 3,1 km/h (1 Bft) NW 305 2 min 0,000 mm 3,1 UV-I 673 W/m 3,9 C 11,9 C 8,0 km/h (2 Bft) 97,37 %
12.04.2017 11:48 11,9 C 58 % 1019,7 hPa 0,0 l/m 2,0 km/h (1 Bft) NW 306 2 min 0,000 mm 3,0 UV-I 671 W/m 3,9 C 11,9 C 4,8 km/h (1 Bft) 96,00 %
12.04.2017 11:50 11,9 C 59 % 1019,6 hPa 0,0 l/m 1,4 km/h (1 Bft) NW 325 2 min 0,000 mm 3,1 UV-I 673 W/m 4,1 C 11,9 C 3,2 km/h (1 Bft) 98,11 %
12.04.2017 11:52 12,0 C 59 % 1019,6 hPa 0,0 l/m 2,4 km/h (1 Bft) NO 51 2 min 0,000 mm 3,2 UV-I 691 W/m 4,2 C 12,0 C 4,8 km/h (1 Bft) 100,00 %
12.04.2017 11:54 12,2 C 60 % 1019,6 hPa 0,0 l/m 1,6 km/h (1 Bft) W-NW 284 2 min 0,000 mm 2,9 UV-I 560 W/m 4,7 C 12,2 C 3,2 km/h (1 Bft) 98,11 %
12.04.2017 11:56 12,3 C 58 % 1019,6 hPa 0,0 l/m 2,5 km/h (1 Bft) NW 306 2 min 0,000 mm 2,7 UV-I 487 W/m 4,3 C 12,3 C 6,4 km/h (2 Bft) 97,87 %
12.04.2017 11:58 12,2 C 57 % 1019,6 hPa 0,0 l/m 2,9 km/h (1 Bft) NO 34 2 min 0,000 mm 2,9 UV-I 551 W/m 3,9 C 12,2 C 6,4 km/h (2 Bft) 100,00 %
12.04.2017 12:00 12,2 C 59 % 1019,5 hPa 0,0 l/m 1,9 km/h (1 Bft) NW 320 2 min 0,000 mm 2,9 UV-I 558 W/m 4,4 C 12,2 C 4,8 km/h (1 Bft) 100,00 %
12.04.2017 12:02 12,3 C 58 % 1019,5 hPa 0,0 l/m 4,3 km/h (1 Bft) NW 315 2 min 0,305 mm 3,1 UV-I 579 W/m 4,3 C 12,3 C 6,4 km/h (2 Bft) 100,00 %
12.04.2017 12:04 12,3 C 58 % 1019,5 hPa 0,0 l/m 3,4 km/h (1 Bft) NW 323 2 min 0,000 mm 3,3 UV-I 665 W/m 4,3 C 12,3 C 6,4 km/h (2 Bft) 98,11 %
12.04.2017 12:06 12,3 C 59 % 1019,4 hPa 0,0 l/m 3,0 km/h (1 Bft) NW 313 2 min 0,000 mm 3,1 UV-I 621 W/m 4,5 C 12,3 C 6,4 km/h (2 Bft) 97,44 %
12.04.2017 12:08 12,5 C 59 % 1019,4 hPa 0,0 l/m 3,3 km/h (1 Bft) N-NW 335 2 min 0,000 mm 3,1 UV-I 556 W/m 4,7 C 12,5 C 6,4 km/h (2 Bft) 100,00 %
12.04.2017 12:10 12,7 C 60 % 1019,4 hPa 0,0 l/m 3,2 km/h (1 Bft) NW 321 2 min 0,000 mm 3,3 UV-I 609 W/m 5,1 C 12,7 C 8,0 km/h (2 Bft) 97,56 %
12.04.2017 12:12 12,7 C 60 % 1019,4 hPa 0,0 l/m 3,1 km/h (1 Bft) W-NW 292 2 min 0,000 mm 2,8 UV-I 559 W/m 5,1 C 12,7 C 6,4 km/h (2 Bft) 100,00 %
12.04.2017 12:14 12,6 C 57 % 1019,3 hPa 0,0 l/m 2,3 km/h (1 Bft) N-NW 331 2 min 0,000 mm 2,8 UV-I 493 W/m 4,3 C 12,6 C 4,8 km/h (1 Bft) 97,56 %
12.04.2017 12:16 12,5 C 59 % 1019,3 hPa 0,0 l/m 2,7 km/h (1 Bft) NW 320 2 min 0,000 mm 3,0 UV-I 600 W/m 4,7 C 12,5 C 4,8 km/h (1 Bft) 100,00 %
12.04.2017 12:18 12,8 C 62 % 1019,3 hPa 0,0 l/m 2,1 km/h (1 Bft) NW 306 2 min 0,000 mm 3,0 UV-I 624 W/m 5,7 C 12,8 C 4,8 km/h (1 Bft) 97,37 %
12.04.2017 12:20 12,8 C 59 % 1019,2 hPa 0,0 l/m 3,7 km/h (1 Bft) NW 323 2 min 0,000 mm 3,0 UV-I 601 W/m 5,0 C 12,8 C 8,0 km/h (2 Bft) 100,00 %
12.04.2017 12:22 13,0 C 60 % 1019,2 hPa 0,0 l/m 3,2 km/h (1 Bft) SW 232 2 min 0,000 mm 3,0 UV-I 610 W/m 5,4 C 13,0 C 8,0 km/h (2 Bft) 97,14 %
12.04.2017 12:24 13,2 C 60 % 1019,2 hPa 0,0 l/m 3,0 km/h (1 Bft) W-NW 292 2 min 0,000 mm 3,1 UV-I 643 W/m 5,6 C 13,2 C 6,4 km/h (2 Bft) 98,11 %
12.04.2017 12:26 13,2 C 60 % 1019,2 hPa 0,0 l/m 5,3 km/h (1 Bft) W-NW 294 2 min 0,000 mm 3,1 UV-I 640 W/m 5,6 C 13,2 C 8,0 km/h (2 Bft) 100,00 %
12.04.2017 12:28 13,1 C 60 % 1019,2 hPa 0,0 l/m 3,0 km/h (1 Bft) W-NW 298 2 min 0,000 mm 3,0 UV-I 583 W/m 5,5 C 13,1 C 8,0 km/h (2 Bft) 98,31 %
12.04.2017 12:30 12,9 C 59 % 1019,1 hPa 0,0 l/m 3,7 km/h (1 Bft) NW 312 2 min 0,000 mm 2,8 UV-I 516 W/m 5,1 C 12,9 C 6,4 km/h (2 Bft) 100,00 %
12.04.2017 12:32 12,8 C 59 % 1019,1 hPa 0,0 l/m 2,5 km/h (1 Bft) NW 323 2 min 0,000 mm 3,0 UV-I 601 W/m 5,0 C 12,8 C 6,4 km/h (2 Bft) 98,11 %
12.04.2017 12:34 12,9 C 60 % 1019,1 hPa 0,0 l/m 3,8 km/h (1 Bft) N 355 2 min 0,000 mm 3,1 UV-I 592 W/m 5,3 C 12,9 C 6,4 km/h (2 Bft) 100,00 %
12.04.2017 12:36 13,1 C 63 % 1019,0 hPa 0,0 l/m 2,8 km/h (1 Bft) N-NW 329 2 min 0,000 mm 3,1 UV-I 648 W/m 6,2 C 13,1 C 4,8 km/h (1 Bft) 98,00 %
12.04.2017 12:38 13,2 C 61 % 1019,0 hPa 0,0 l/m 3,7 km/h (1 Bft) N-NW 333 2 min 0,000 mm 3,1 UV-I 649 W/m 5,8 C 13,2 C 8,0 km/h (2 Bft) 100,00 %
12.04.2017 12:40 13,2 C 59 % 1018,9 hPa 0,0 l/m 3,4 km/h (1 Bft) W-NW 297 2 min 0,000 mm 3,1 UV-I 645 W/m 5,4 C 13,2 C 6,4 km/h (2 Bft) 98,00 %
12.04.2017 12:42 13,3 C 59 % 1019,0 hPa 0,0 l/m 3,1 km/h (1 Bft) W-NW 284 2 min 0,000 mm 3,1 UV-I 645 W/m 5,5 C 13,3 C 6,4 km/h (2 Bft) 97,87 %
12.04.2017 12:44 13,4 C 62 % 1018,9 hPa 0,0 l/m 2,8 km/h (1 Bft) N 5 2 min 0,000 mm 3,1 UV-I 628 W/m 6,3 C 13,4 C 8,0 km/h (2 Bft) 100,00 %
12.04.2017 12:46 13,3 C 59 % 1018,9 hPa 0,0 l/m 1,7 km/h (1 Bft) N 5 2 min 0,000 mm 3,1 UV-I 609 W/m 5,5 C 13,3 C 8,0 km/h (2 Bft) 98,00 %
12.04.2017 12:48 13,2 C 59 % 1018,8 hPa 0,0 l/m 3,7 km/h (1 Bft) W-NW 291 2 min 0,000 mm 3,1 UV-I 591 W/m 5,4 C 13,2 C 8,0 km/h (2 Bft) 100,00 %
12.04.2017 12:50 13,2 C 58 % 1018,8 hPa 0,0 l/m 5,9 km/h (2 Bft) W 275 2 min 0,000 mm 3,0 UV-I 584 W/m 5,1 C 13,2 C 11,3 km/h (2 Bft) 96,15 %
12.04.2017 12:52 13,2 C 62 % 1018,7 hPa 0,0 l/m 3,1 km/h (1 Bft) NW 314 2 min 0,000 mm 3,1 UV-I 624 W/m 6,1 C 13,2 C 6,4 km/h (2 Bft) 100,00 %
12.04.2017 12:54 13,3 C 60 % 1018,6 hPa 0,0 l/m 3,4 km/h (1 Bft) W 271 2 min 0,000 mm 3,3 UV-I 664 W/m 5,7 C 13,3 C 6,4 km/h (2 Bft) 98,11 %
12.04.2017 12:56 13,5 C 57 % 1018,6 hPa 0,0 l/m 8,9 km/h (2 Bft) W-SW 244 2 min 0,000 mm 3,2 UV-I 655 W/m 5,2 C 12,0 C 12,9 km/h (3 Bft) 100,00 %
12.04.2017 12:58 13,6 C 57 % 1018,6 hPa 0,0 l/m 7,7 km/h (2 Bft) SW 216 2 min 0,000 mm 3,2 UV-I 650 W/m 5,2 C 12,8 C 14,5 km/h (3 Bft) 100,00 %
12.04.2017 13:00 13,8 C 56 % 1018,6 hPa 0,0 l/m 5,4 km/h (1 Bft) W 268 2 min 0,330 mm 3,2 UV-I 640 W/m 5,2 C 13,8 C 11,3 km/h (2 Bft) 100,00 %
12.04.2017 13:02 13,8 C 57 % 1018,5 hPa 0,0 l/m 9,6 km/h (2 Bft) W 265 2 min 0,000 mm 3,1 UV-I 617 W/m 5,4 C 12,0 C 17,7 km/h (3 Bft) 100,00 %
12.04.2017 13:04 13,8 C 55 % 1018,4 hPa 0,0 l/m 9,2 km/h (2 Bft) W-SW 239 2 min 0,000 mm 3,1 UV-I 614 W/m 4,9 C 12,2 C 14,5 km/h (3 Bft) 100,00 %
12.04.2017 13:06 13,7 C 54 % 1018,4 hPa 0,0 l/m 4,1 km/h (1 Bft) W-SW 238 2 min 0,000 mm 3,1 UV-I 607 W/m 4,6 C 13,7 C 6,4 km/h (2 Bft) 98,04 %
12.04.2017 13:08 13,7 C 56 % 1018,3 hPa 0,0 l/m 5,3 km/h (1 Bft) W 281 2 min 0,000 mm 3,1 UV-I 615 W/m 5,1 C 13,7 C 9,7 km/h (2 Bft) 100,00 %
12.04.2017 13:10 13,9 C 57 % 1018,3 hPa 0,0 l/m 2,3 km/h (1 Bft) W-NW 299 2 min 0,000 mm 3,1 UV-I 594 W/m 5,5 C 13,9 C 6,4 km/h (2 Bft) 100,00 %
12.04.2017 13:12 13,8 C 56 % 1018,3 hPa 0,0 l/m 2,0 km/h (1 Bft) SW 218 2 min 0,000 mm 3,1 UV-I 610 W/m 5,2 C 13,8 C 4,8 km/h (1 Bft) 100,00 %
12.04.2017 13:14 13,8 C 56 % 1018,2 hPa 0,0 l/m 7,7 km/h (2 Bft) W 277 2 min 0,000 mm 3,1 UV-I 606 W/m 5,2 C 13,0 C 14,5 km/h (3 Bft) 98,00 %
12.04.2017 13:16 13,9 C 55 % 1018,2 hPa 0,0 l/m 9,5 km/h (2 Bft) W-SW 250 2 min 0,000 mm 3,1 UV-I 609 W/m 5,0 C 12,1 C 14,5 km/h (3 Bft) 100,00 %
12.04.2017 13:18 13,9 C 57 % 1018,2 hPa 0,0 l/m 2,3 km/h (1 Bft) W-NW 300 2 min 0,000 mm 3,0 UV-I 593 W/m 5,5 C 13,9 C 8,0 km/h (2 Bft) 96,23 %
12.04.2017 13:20 14,0 C 56 % 1018,2 hPa 0,0 l/m 3,3 km/h (1 Bft) W 261 2 min 0,000 mm 3,0 UV-I 620 W/m 5,4 C 14,0 C 9,7 km/h (2 Bft) 95,45 %
12.04.2017 13:22 14,1 C 55 % 1018,1 hPa 0,0 l/m 1,6 km/h (1 Bft) W-NW 290 2 min 0,000 mm 3,2 UV-I 647 W/m 5,2 C 14,1 C 4,8 km/h (1 Bft) 97,44 %
12.04.2017 13:24 14,2 C 56 % 1018,0 hPa 0,0 l/m 5,3 km/h (1 Bft) S-SW 211 2 min 0,000 mm 3,2 UV-I 672 W/m 5,6 C 14,2 C 8,0 km/h (2 Bft) 96,55 %
12.04.2017 13:26 14,3 C 56 % 1017,9 hPa 0,0 l/m 4,5 km/h (1 Bft) S-SW 193 2 min 0,000 mm 3,2 UV-I 665 W/m 5,6 C 14,3 C 9,7 km/h (2 Bft) 97,44 %
12.04.2017 13:28 14,3 C 54 % 1017,9 hPa 0,0 l/m 2,1 km/h (1 Bft) S 185 2 min 0,000 mm 3,1 UV-I 639 W/m 5,1 C 14,3 C 4,8 km/h (1 Bft) 97,87 %
12.04.2017 13:30 14,3 C 56 % 1017,9 hPa 0,0 l/m 2,6 km/h (1 Bft) N-NO 13 2 min 0,000 mm 3,0 UV-I 602 W/m 5,6 C 14,3 C 6,4 km/h (2 Bft) 96,23 %
12.04.2017 13:32 14,4 C 57 % 1017,8 hPa 0,0 l/m 1,9 km/h (1 Bft) N-NO 25 2 min 0,000 mm 3,0 UV-I 602 W/m 6,0 C 14,4 C 6,4 km/h (2 Bft) 100,00 %
12.04.2017 13:34 14,5 C 57 % 1017,8 hPa 0,0 l/m 3,1 km/h (1 Bft) W-NW 302 2 min 0,000 mm 3,0 UV-I 600 W/m 6,1 C 14,5 C 6,4 km/h (2 Bft) 95,38 %
12.04.2017 13:36 14,5 C 58 % 1017,7 hPa 0,0 l/m 3,0 km/h (1 Bft) W-NW 300 2 min 0,000 mm 3,0 UV-I 607 W/m 6,3 C 14,5 C 4,8 km/h (1 Bft) 93,62 %
12.04.2017 13:38 14,4 C 55 % 1017,7 hPa 0,0 l/m 3,8 km/h (1 Bft) N-NW 340 2 min 0,000 mm 3,0 UV-I 618 W/m 5,5 C 14,4 C 8,0 km/h (2 Bft) 97,56 %
12.04.2017 13:40 14,2 C 53 % 1017,6 hPa 0,0 l/m 2,7 km/h (1 Bft) O-NO 63 2 min 0,000 mm 3,0 UV-I 603 W/m 4,8 C 14,2 C 4,8 km/h (1 Bft) 98,11 %
12.04.2017 13:42 14,1 C 56 % 1017,6 hPa 0,0 l/m 2,3 km/h (1 Bft) O-NO 74 2 min 0,000 mm 3,1 UV-I 614 W/m 5,5 C 14,1 C 3,2 km/h (1 Bft) 97,56 %
12.04.2017 13:44 14,1 C 58 % 1017,5 hPa 0,0 l/m 6,4 km/h (2 Bft) N 351 2 min 0,000 mm 3,0 UV-I 607 W/m 6,0 C 14,1 C 12,9 km/h (3 Bft) 98,11 %
12.04.2017 13:46 14,5 C 55 % 1017,5 hPa 0,0 l/m 8,6 km/h (2 Bft) SW 229 2 min 0,000 mm 3,0 UV-I 589 W/m 5,6 C 13,3 C 14,5 km/h (3 Bft) 95,45 %
12.04.2017 13:48 14,7 C 55 % 1017,5 hPa 0,0 l/m 2,8 km/h (1 Bft) NW 304 2 min 0,000 mm 3,1 UV-I 629 W/m 5,8 C 14,7 C 6,4 km/h (2 Bft) 97,87 %
12.04.2017 13:50 14,6 C 58 % 1017,4 hPa 0,0 l/m 3,7 km/h (1 Bft) N-NW 337 2 min 0,000 mm 3,1 UV-I 645 W/m 6,4 C 14,6 C 9,7 km/h (2 Bft) 94,00 %
12.04.2017 13:52 14,6 C 56 % 1017,4 hPa 0,0 l/m 3,5 km/h (1 Bft) NW 311 2 min 0,000 mm 3,2 UV-I 664 W/m 5,9 C 14,6 C 8,0 km/h (2 Bft) 92,68 %
12.04.2017 13:54 14,6 C 56 % 1017,4 hPa 0,0 l/m 2,9 km/h (1 Bft) NW 323 2 min 0,000 mm 3,3 UV-I 692 W/m 5,9 C 14,6 C 8,0 km/h (2 Bft) 96,00 %
12.04.2017 13:56 14,7 C 57 % 1017,3 hPa 0,0 l/m 2,4 km/h (1 Bft) N-NW 331 2 min 0,000 mm 3,3 UV-I 692 W/m 6,3 C 14,7 C 6,4 km/h (2 Bft) 95,12 %
12.04.2017 13:58 14,7 C 54 % 1017,4 hPa 0,0 l/m 4,0 km/h (1 Bft) W 269 2 min 0,000 mm 3,3 UV-I 705 W/m 5,5 C 14,7 C 11,3 km/h (2 Bft) 93,22 %
12.04.2017 14:00 14,7 C 53 % 1017,2 hPa 0,0 l/m 4,4 km/h (1 Bft) NO 48 2 min 0,000 mm 3,2 UV-I 667 W/m 5,2 C 14,7 C 8,0 km/h (2 Bft) 96,97 %
12.04.2017 14:02 14,8 C 57 % 1017,2 hPa 0,0 l/m 3,5 km/h (1 Bft) NO 34 2 min 0,356 mm 3,2 UV-I 669 W/m 6,4 C 14,8 C 8,0 km/h (2 Bft) 92,45 %
12.04.2017 14:04 14,9 C 57 % 1017,2 hPa 0,0 l/m 2,6 km/h (1 Bft) NW 323 2 min 0,000 mm 3,1 UV-I 670 W/m 6,5 C 14,9 C 6,4 km/h (2 Bft) 100,00 %
12.04.2017 14:06 15,1 C 59 % 1017,1 hPa 0,0 l/m 2,4 km/h (1 Bft) W-SW 251 2 min 0,000 mm 3,1 UV-I 658 W/m 7,1 C 15,1 C 6,4 km/h (2 Bft) 100,00 %
12.04.2017 14:08 15,3 C 55 % 1017,1 hPa 0,0 l/m 5,7 km/h (1 Bft) W-NW 282 2 min 0,000 mm 3,0 UV-I 649 W/m 6,3 C 15,3 C 12,9 km/h (3 Bft) 97,62 %
12.04.2017 14:10 15,3 C 53 % 1017,1 hPa 0,0 l/m 6,1 km/h (2 Bft) W-SW 238 2 min 0,000 mm 3,0 UV-I 639 W/m 5,8 C 15,3 C 9,7 km/h (2 Bft) 100,00 %
12.04.2017 14:12 15,1 C 51 % 1017,0 hPa 0,0 l/m 3,7 km/h (1 Bft) W-NW 290 2 min 0,000 mm 2,9 UV-I 607 W/m 5,0 C 15,1 C 8,0 km/h (2 Bft) 96,92 %
12.04.2017 14:14 15,0 C 55 % 1017,0 hPa 0,0 l/m 3,0 km/h (1 Bft) NW 307 2 min 0,000 mm 2,8 UV-I 583 W/m 6,0 C 15,0 C 4,8 km/h (1 Bft) 97,87 %
12.04.2017 14:16 15,0 C 55 % 1016,9 hPa 0,0 l/m 2,4 km/h (1 Bft) N-NW 335 2 min 0,000 mm 2,8 UV-I 580 W/m 6,0 C 15,0 C 4,8 km/h (1 Bft) 95,74 %
12.04.2017 14:18 15,0 C 53 % 1016,9 hPa 0,0 l/m 1,9 km/h (1 Bft) W-NW 302 2 min 0,000 mm 2,8 UV-I 595 W/m 5,5 C 15,0 C 4,8 km/h (1 Bft) 94,00 %
12.04.2017 14:20 14,9 C 53 % 1016,9 hPa 0,0 l/m 1,6 km/h (1 Bft) N-NO 16 2 min 0,000 mm 2,9 UV-I 604 W/m 5,4 C 14,9 C 6,4 km/h (2 Bft) 97,56 %
12.04.2017 14:22 14,9 C 54 % 1016,8 hPa 0,0 l/m 5,0 km/h (1 Bft) W 261 2 min 0,000 mm 2,9 UV-I 603 W/m 5,7 C 14,9 C 11,3 km/h (2 Bft) 98,00 %
12.04.2017 14:24 15,2 C 53 % 1016,8 hPa 0,0 l/m 6,8 km/h (2 Bft) N-NW 329 2 min 0,000 mm 2,9 UV-I 612 W/m 5,7 C 15,0 C 14,5 km/h (3 Bft) 100,00 %
12.04.2017 14:26 15,3 C 53 % 1016,8 hPa 0,0 l/m 3,2 km/h (1 Bft) NW 304 2 min 0,000 mm 3,0 UV-I 635 W/m 5,8 C 15,3 C 4,8 km/h (1 Bft) 97,56 %
12.04.2017 14:28 15,3 C 51 % 1016,7 hPa 0,0 l/m 3,9 km/h (1 Bft) W 271 2 min 0,000 mm 3,0 UV-I 664 W/m 5,2 C 15,3 C 6,4 km/h (2 Bft) 98,11 %
12.04.2017 14:30 15,4 C 52 % 1016,6 hPa 0,0 l/m 6,5 km/h (2 Bft) S-SW 205 2 min 0,000 mm 3,1 UV-I 692 W/m 5,6 C 15,4 C 12,9 km/h (3 Bft) 100,00 %
12.04.2017 14:32 15,7 C 57 % 1016,6 hPa 0,0 l/m 3,1 km/h (1 Bft) NW 324 2 min 0,000 mm 3,0 UV-I 683 W/m 7,2 C 15,7 C 9,7 km/h (2 Bft) 96,23 %
12.04.2017 14:34 15,7 C 56 % 1016,5 hPa 0,0 l/m 2,6 km/h (1 Bft) W 280 2 min 0,000 mm 3,0 UV-I 670 W/m 6,9 C 15,7 C 4,8 km/h (1 Bft) 100,00 %
12.04.2017 14:36 15,7 C 57 % 1016,5 hPa 0,0 l/m 3,5 km/h (1 Bft) N-NW 327 2 min 0,000 mm 3,0 UV-I 664 W/m 7,2 C 15,7 C 11,3 km/h (2 Bft) 100,00 %
12.04.2017 14:38 15,8 C 56 % 1016,5 hPa 0,0 l/m 3,2 km/h (1 Bft) N-NW 337 2 min 0,000 mm 2,9 UV-I 631 W/m 7,0 C 15,8 C 6,4 km/h (2 Bft) 97,22 %
12.04.2017 14:40 15,7 C 57 % 1016,5 hPa 0,0 l/m 2,1 km/h (1 Bft) NW 309 2 min 0,000 mm 2,7 UV-I 593 W/m 7,2 C 15,7 C 4,8 km/h (1 Bft) 100,00 %
12.04.2017 14:42 15,7 C 55 % 1016,5 hPa 0,0 l/m 5,1 km/h (1 Bft) NW 305 2 min 0,000 mm 2,6 UV-I 575 W/m 6,7 C 15,7 C 12,9 km/h (3 Bft) 97,87 %
12.04.2017 14:44 15,5 C 54 % 1016,4 hPa 0,0 l/m 3,3 km/h (1 Bft) NW 309 2 min 0,000 mm 2,6 UV-I 584 W/m 6,2 C 15,5 C 6,4 km/h (2 Bft) 97,44 %
12.04.2017 14:46 15,5 C 55 % 1016,3 hPa 0,0 l/m 1,8 km/h (1 Bft) N-NO 20 2 min 0,000 mm 2,6 UV-I 592 W/m 6,5 C 15,5 C 6,4 km/h (2 Bft) 98,00 %
12.04.2017 14:48 15,5 C 58 % 1016,3 hPa 0,0 l/m 0,8 km/h (0 Bft) NW 305 2 min 0,000 mm 2,6 UV-I 586 W/m 7,3 C 15,5 C 3,2 km/h (1 Bft) 94,00 %
12.04.2017 14:50 15,5 C 55 % 1016,4 hPa 0,0 l/m 3,8 km/h (1 Bft) N-NW 333 2 min 0,000 mm 2,7 UV-I 625 W/m 6,5 C 15,5 C 11,3 km/h (2 Bft) 96,00 %
12.04.2017 14:52 15,6 C 55 % 1016,3 hPa 0,0 l/m 4,4 km/h (1 Bft) W 275 2 min 0,000 mm 2,8 UV-I 649 W/m 6,6 C 15,6 C 11,3 km/h (2 Bft) 100,00 %
12.04.2017 14:54 15,7 C 57 % 1016,2 hPa 0,0 l/m 2,0 km/h (1 Bft) N 5 2 min 0,000 mm 2,8 UV-I 653 W/m 7,2 C 15,7 C 4,8 km/h (1 Bft) 100,00 %
12.04.2017 14:56 15,7 C 54 % 1016,1 hPa 0,0 l/m 2,3 km/h (1 Bft) NW 311 2 min 0,000 mm 2,8 UV-I 681 W/m 6,4 C 15,7 C 4,8 km/h (1 Bft) 97,87 %
12.04.2017 14:58 15,8 C 60 % 1016,1 hPa 0,0 l/m 2,8 km/h (1 Bft) N-NO 19 2 min 0,000 mm 2,7 UV-I 636 W/m 8,1 C 15,8 C 6,4 km/h (2 Bft) 100,00 %
12.04.2017 15:00 15,7 C 54 % 1016,1 hPa 0,0 l/m 2,0 km/h (1 Bft) N-NW 348 2 min 0,355 mm 2,6 UV-I 588 W/m 6,4 C 15,7 C 4,8 km/h (1 Bft) 100,00 %
12.04.2017 15:02 15,8 C 56 % 1015,9 hPa 0,0 l/m 4,1 km/h (1 Bft) N-NW 327 2 min 0,000 mm 2,5 UV-I 565 W/m 7,0 C 15,8 C 9,7 km/h (2 Bft) 100,00 %
12.04.2017 15:04 15,7 C 58 % 1015,9 hPa 0,0 l/m 2,4 km/h (1 Bft) N 350 2 min 0,000 mm 2,4 UV-I 546 W/m 7,5 C 15,7 C 6,4 km/h (2 Bft) 96,00 %
12.04.2017 15:06 15,5 C 52 % 1015,9 hPa 0,0 l/m 1,9 km/h (1 Bft) N 5 2 min 0,000 mm 2,3 UV-I 516 W/m 5,7 C 15,5 C 3,2 km/h (1 Bft) 92,68 %
12.04.2017 15:08 15,7 C 58 % 1015,9 hPa 0,0 l/m 2,0 km/h (1 Bft) NW 307 2 min 0,000 mm 2,3 UV-I 517 W/m 7,5 C 15,7 C 3,2 km/h (1 Bft) 100,00 %
12.04.2017 15:10 15,8 C 57 % 1015,8 hPa 0,0 l/m 2,1 km/h (1 Bft) N-NW 340 2 min 0,000 mm 2,2 UV-I 498 W/m 7,3 C 15,8 C 6,4 km/h (2 Bft) 94,34 %
12.04.2017 15:12 15,7 C 56 % 1015,7 hPa 0,0 l/m 2,3 km/h (1 Bft) NW 320 2 min 0,000 mm 2,1 UV-I 460 W/m 6,9 C 15,7 C 6,4 km/h (2 Bft) 96,23 %
12.04.2017 15:14 15,7 C 58 % 1015,8 hPa 0,0 l/m 3,2 km/h (1 Bft) W-NW 302 2 min 0,000 mm 2,1 UV-I 445 W/m 7,5 C 15,7 C 4,8 km/h (1 Bft) 97,37 %
12.04.2017 15:16 15,6 C 57 % 1015,7 hPa 0,0 l/m 3,3 km/h (1 Bft) NW 310 2 min 0,000 mm 2,2 UV-I 481 W/m 7,1 C 15,6 C 6,4 km/h (2 Bft) 95,74 %
12.04.2017 15:18 15,6 C 54 % 1015,7 hPa 0,0 l/m 2,1 km/h (1 Bft) N-NW 333 2 min 0,000 mm 2,1 UV-I 467 W/m 6,3 C 15,6 C 4,8 km/h (1 Bft) 94,00 %
12.04.2017 15:20 15,6 C 56 % 1015,6 hPa 0,0 l/m 2,7 km/h (1 Bft) N-NO 25 2 min 0,000 mm 2,1 UV-I 477 W/m 6,9 C 15,6 C 6,4 km/h (2 Bft) 98,11 %
12.04.2017 15:22 15,6 C 57 % 1015,6 hPa 0,0 l/m 3,1 km/h (1 Bft) N-NO 13 2 min 0,000 mm 2,1 UV-I 480 W/m 7,1 C 15,6 C 6,4 km/h (2 Bft) 95,24 %
12.04.2017 15:24 15,4 C 52 % 1015,6 hPa 0,0 l/m 2,2 km/h (1 Bft) N-NO 13 2 min 0,000 mm 2,1 UV-I 419 W/m 5,6 C 15,4 C 6,4 km/h (2 Bft) 95,12 %
12.04.2017 15:26 15,3 C 54 % 1015,5 hPa 0,0 l/m 2,5 km/h (1 Bft) N 9 2 min 0,000 mm 2,0 UV-I 426 W/m 6,0 C 15,3 C 4,8 km/h (1 Bft) 93,62 %
12.04.2017 15:28 15,3 C 56 % 1015,5 hPa 0,0 l/m 3,5 km/h (1 Bft) NW 306 2 min 0,000 mm 2,0 UV-I 434 W/m 6,6 C 15,3 C 8,0 km/h (2 Bft) 98,11 %
12.04.2017 15:30 15,4 C 54 % 1015,5 hPa 0,0 l/m 2,8 km/h (1 Bft) NW 306 2 min 0,000 mm 2,1 UV-I 475 W/m 6,1 C 15,4 C 8,0 km/h (2 Bft) 91,49 %
12.04.2017 15:32 15,4 C 55 % 1015,5 hPa 0,0 l/m 1,2 km/h (1 Bft) N-NW 342 2 min 0,000 mm 2,1 UV-I 475 W/m 6,4 C 15,4 C 4,8 km/h (1 Bft) 97,56 %
12.04.2017 15:34 15,4 C 57 % 1015,4 hPa 0,0 l/m 1,1 km/h (1 Bft) NW 323 2 min 0,000 mm 2,1 UV-I 489 W/m 6,9 C 15,4 C 3,2 km/h (1 Bft) 92,00 %
12.04.2017 15:36 15,6 C 57 % 1015,4 hPa 0,0 l/m 4,1 km/h (1 Bft) N-NW 337 2 min 0,000 mm 2,1 UV-I 522 W/m 7,1 C 15,6 C 11,3 km/h (2 Bft) 95,45 %
12.04.2017 15:38 15,6 C 60 % 1015,3 hPa 0,0 l/m 2,3 km/h (1 Bft) N 355 2 min 0,000 mm 2,1 UV-I 491 W/m 7,9 C 15,6 C 4,8 km/h (1 Bft) 98,21 %
12.04.2017 15:40 15,6 C 58 % 1015,2 hPa 0,0 l/m 2,9 km/h (1 Bft) N-NO 18 2 min 0,000 mm 2,0 UV-I 461 W/m 7,4 C 15,6 C 6,4 km/h (2 Bft) 95,12 %
12.04.2017 15:42 15,6 C 54 % 1015,2 hPa 0,0 l/m 4,6 km/h (1 Bft) N-NW 346 2 min 0,000 mm 1,9 UV-I 418 W/m 6,3 C 15,6 C 12,9 km/h (3 Bft) 96,00 %
12.04.2017 15:44 15,6 C 54 % 1015,2 hPa 0,0 l/m 4,1 km/h (1 Bft) W-NW 298 2 min 0,000 mm 1,8 UV-I 412 W/m 6,3 C 15,6 C 6,4 km/h (2 Bft) 97,37 %
12.04.2017 15:46 15,4 C 54 % 1015,1 hPa 0,0 l/m 3,2 km/h (1 Bft) N-NO 31 2 min 0,000 mm 1,8 UV-I 383 W/m 6,1 C 15,4 C 8,0 km/h (2 Bft) 94,00 %
12.04.2017 15:48 15,3 C 55 % 1015,1 hPa 0,0 l/m 2,9 km/h (1 Bft) N 5 2 min 0,000 mm 1,7 UV-I 355 W/m 6,3 C 15,3 C 8,0 km/h (2 Bft) 94,74 %
12.04.2017 15:50 15,3 C 57 % 1015,1 hPa 0,0 l/m 3,2 km/h (1 Bft) N-NW 338 0 min 0,000 mm 1,6 UV-I 325 W/m 6,8 C 15,3 C 9,7 km/h (2 Bft) 98,46 %
12.04.2017 15:52 15,2 C 56 % 1015,0 hPa 0,0 l/m 2,1 km/h (1 Bft) N 360 2 min 0,000 mm 1,6 UV-I 335 W/m 6,5 C 15,2 C 4,8 km/h (1 Bft) 95,12 %
12.04.2017 15:54 15,3 C 55 % 1015,0 hPa 0,0 l/m 2,8 km/h (1 Bft) NW 304 2 min 0,000 mm 1,7 UV-I 377 W/m 6,3 C 15,3 C 6,4 km/h (2 Bft) 97,56 %
12.04.2017 15:56 15,5 C 58 % 1015,0 hPa 0,0 l/m 2,1 km/h (1 Bft) NW 325 2 min 0,000 mm 1,8 UV-I 397 W/m 7,3 C 15,5 C 4,8 km/h (1 Bft) 91,84 %
12.04.2017 15:58 15,6 C 56 % 1014,9 hPa 0,0 l/m 2,1 km/h (1 Bft) N-NW 329 2 min 0,000 mm 2,0 UV-I 390 W/m 6,9 C 15,6 C 4,8 km/h (1 Bft) 93,62 %
12.04.2017 16:00 15,7 C 55 % 1014,9 hPa 0,0 l/m 1,9 km/h (1 Bft) NW 314 2 min 0,000 mm 1,8 UV-I 391 W/m 6,7 C 15,7 C 4,8 km/h (1 Bft) 97,22 %
12.04.2017 16:02 15,7 C 52 % 1014,9 hPa 0,0 l/m 2,9 km/h (1 Bft) W 273 2 min 0,254 mm 1,7 UV-I 411 W/m 5,9 C 15,7 C 4,8 km/h (1 Bft) 97,01 %
12.04.2017 16:04 15,9 C 53 % 1014,8 hPa 0,0 l/m 2,6 km/h (1 Bft) W-NW 285 2 min 0,000 mm 1,9 UV-I 453 W/m 6,3 C 15,9 C 4,8 km/h (1 Bft) 97,22 %
12.04.2017 16:06 16,0 C 50 % 1014,8 hPa 0,0 l/m 1,1 km/h (1 Bft) W-NW 286 2 min 0,000 mm 2,0 UV-I 606 W/m 5,6 C 16,0 C 3,2 km/h (1 Bft) 94,74 %
12.04.2017 16:08 16,2 C 55 % 1014,8 hPa 0,0 l/m 1,9 km/h (1 Bft) NW 323 2 min 0,000 mm 1,9 UV-I 582 W/m 7,2 C 16,2 C 4,8 km/h (1 Bft) 96,92 %
12.04.2017 16:10 16,4 C 51 % 1014,7 hPa 0,0 l/m 2,7 km/h (1 Bft) W-NW 293 2 min 0,000 mm 1,9 UV-I 574 W/m 6,2 C 16,4 C 4,8 km/h (1 Bft) 97,37 %
12.04.2017 16:12 16,6 C 54 % 1014,7 hPa 0,0 l/m 2,8 km/h (1 Bft) N-NW 327 2 min 0,000 mm 1,9 UV-I 603 W/m 7,3 C 16,6 C 8,0 km/h (2 Bft) 95,74 %
12.04.2017 16:14 16,6 C 49 % 1014,7 hPa 0,0 l/m 1,6 km/h (1 Bft) N-NO 14 2 min 0,000 mm 1,9 UV-I 614 W/m 5,8 C 16,6 C 4,8 km/h (1 Bft) 95,92 %
12.04.2017 16:16 16,8 C 52 % 1014,6 hPa 0,0 l/m 4,5 km/h (1 Bft) W-SW 252 2 min 0,000 mm 1,7 UV-I 576 W/m 6,9 C 16,8 C 11,3 km/h (2 Bft) 94,34 %
12.04.2017 16:18 16,8 C 48 % 1014,6 hPa 0,0 l/m 8,1 km/h (2 Bft) S-SW 196 2 min 0,000 mm 1,6 UV-I 447 W/m 5,7 C 15,9 C 12,9 km/h (3 Bft) 94,74 %
12.04.2017 16:20 16,8 C 48 % 1014,5 hPa 0,0 l/m 5,6 km/h (1 Bft) NW 311 2 min 0,000 mm 1,6 UV-I 468 W/m 5,7 C 16,8 C 9,7 km/h (2 Bft) 98,11 %
12.04.2017 16:22 16,8 C 49 % 1014,5 hPa 0,0 l/m 2,8 km/h (1 Bft) W 281 2 min 0,000 mm 1,6 UV-I 473 W/m 6,0 C 16,8 C 8,0 km/h (2 Bft) 95,12 %
12.04.2017 16:24 16,9 C 52 % 1014,5 hPa 0,0 l/m 0,7 km/h (0 Bft) W 281 2 min 0,000 mm 1,6 UV-I 478 W/m 7,0 C 16,9 C 1,6 km/h (1 Bft) 98,11 %
12.04.2017 16:26 16,8 C 53 % 1014,5 hPa 0,0 l/m 2,3 km/h (1 Bft) N 5 2 min 0,000 mm 1,5 UV-I 466 W/m 7,2 C 16,8 C 4,8 km/h (1 Bft) 96,00 %
12.04.2017 16:28 16,8 C 51 % 1014,5 hPa 0,0 l/m 2,1 km/h (1 Bft) N 5 2 min 0,000 mm 1,5 UV-I 535 W/m 6,6 C 16,8 C 3,2 km/h (1 Bft) 97,37 %
12.04.2017 16:30 16,8 C 54 % 1014,5 hPa 0,0 l/m 3,2 km/h (1 Bft) N-NO 33 2 min 0,000 mm 1,5 UV-I 534 W/m 7,4 C 16,8 C 6,4 km/h (2 Bft) 96,00 %
12.04.2017 16:32 16,7 C 50 % 1014,5 hPa 0,0 l/m 2,0 km/h (1 Bft) N 11 2 min 0,000 mm 1,5 UV-I 490 W/m 6,2 C 16,7 C 6,4 km/h (2 Bft) 96,00 %
12.04.2017 16:34 16,8 C 49 % 1014,4 hPa 0,0 l/m 2,2 km/h (1 Bft) NW 322 2 min 0,000 mm 1,5 UV-I 526 W/m 6,0 C 16,8 C 6,4 km/h (2 Bft) 97,56 %
12.04.2017 16:36 16,7 C 51 % 1014,4 hPa 0,0 l/m 2,2 km/h (1 Bft) NW 306 2 min 0,000 mm 1,4 UV-I 462 W/m 6,5 C 16,7 C 4,8 km/h (1 Bft) 96,43 %
12.04.2017 16:38 16,8 C 49 % 1014,4 hPa 0,0 l/m 1,5 km/h (1 Bft) NW 307 2 min 0,000 mm 1,3 UV-I 387 W/m 6,0 C 16,8 C 3,2 km/h (1 Bft) 92,68 %
12.04.2017 16:40 16,7 C 50 % 1014,4 hPa 0,0 l/m 1,7 km/h (1 Bft) NW 306 2 min 0,000 mm 1,2 UV-I 313 W/m 6,2 C 16,7 C 3,2 km/h (1 Bft) 95,74 %
12.04.2017 16:42 16,4 C 49 % 1014,4 hPa 0,0 l/m 1,2 km/h (1 Bft) NW 315 0 min 0,000 mm 1,1 UV-I 207 W/m 5,7 C 16,4 C 3,2 km/h (1 Bft) 98,11 %
12.04.2017 16:44 16,2 C 50 % 1014,3 hPa 0,0 l/m 0,7 km/h (0 Bft) NW 315 0 min 0,000 mm 1,0 UV-I 188 W/m 5,8 C 16,2 C 3,2 km/h (1 Bft) 94,44 %
12.04.2017 16:46 16,1 C 51 % 1014,2 hPa 0,0 l/m 3,8 km/h (1 Bft) N-NO 19 0 min 0,000 mm 1,0 UV-I 191 W/m 6,0 C 16,1 C 8,0 km/h (2 Bft) 98,00 %
12.04.2017 16:48 16,0 C 52 % 1014,2 hPa 0,0 l/m 1,4 km/h (1 Bft) N-NO 17 0 min 0,000 mm 1,2 UV-I 226 W/m 6,2 C 16,0 C 3,2 km/h (1 Bft) 96,00 %
12.04.2017 16:50 16,2 C 51 % 1014,1 hPa 0,0 l/m 5,1 km/h (1 Bft) W 277 2 min 0,000 mm 1,2 UV-I 463 W/m 6,1 C 16,2 C 9,7 km/h (2 Bft) 95,12 %
12.04.2017 16:52 16,5 C 49 % 1014,2 hPa 0,0 l/m 1,5 km/h (1 Bft) W-NW 286 2 min 0,000 mm 1,2 UV-I 446 W/m 5,8 C 16,5 C 3,2 km/h (1 Bft) 96,23 %
12.04.2017 16:54 16,6 C 50 % 1014,2 hPa 0,0 l/m 0,7 km/h (0 Bft) W-NW 287 2 min 0,000 mm 1,1 UV-I 339 W/m 6,1 C 16,6 C 3,2 km/h (1 Bft) 95,12 %
12.04.2017 16:56 16,5 C 51 % 1014,1 hPa 0,0 l/m 1,3 km/h (1 Bft) NW 311 0 min 0,000 mm 0,9 UV-I 179 W/m 6,3 C 16,5 C 3,2 km/h (1 Bft) 98,00 %
12.04.2017 16:58 16,3 C 52 % 1014,1 hPa 0,0 l/m 0,4 km/h (0 Bft) NW 311 2 min 0,000 mm 1,0 UV-I 275 W/m 6,4 C 16,3 C 1,6 km/h (1 Bft) 94,34 %
12.04.2017 17:00 16,4 C 53 % 1014,1 hPa 0,0 l/m 0,6 km/h (0 Bft) NW 311 2 min 0,000 mm 1,1 UV-I 451 W/m 6,8 C 16,4 C 3,2 km/h (1 Bft) 97,50 %
12.04.2017 17:02 16,4 C 49 % 1014,0 hPa 0,0 l/m 2,7 km/h (1 Bft) NW 312 0 min 0,254 mm 1,0 UV-I 245 W/m 5,7 C 16,4 C 3,2 km/h (1 Bft) 95,45 %
12.04.2017 17:04 16,4 C 49 % 1014,0 hPa 0,0 l/m 3,1 km/h (1 Bft) N 355 0 min 0,000 mm 0,9 UV-I 208 W/m 5,7 C 16,4 C 4,8 km/h (1 Bft) 98,00 %
12.04.2017 17:06 16,4 C 50 % 1013,9 hPa 0,0 l/m 2,8 km/h (1 Bft) N-NO 13 0 min 0,000 mm 0,8 UV-I 195 W/m 6,0 C 16,4 C 4,8 km/h (1 Bft) 97,87 %
12.04.2017 17:08 16,4 C 52 % 1013,9 hPa 0,0 l/m 1,7 km/h (1 Bft) N-NO 13 2 min 0,000 mm 0,9 UV-I 319 W/m 6,5 C 16,4 C 3,2 km/h (1 Bft) 94,00 %
12.04.2017 17:10 16,4 C 55 % 1013,9 hPa 0,0 l/m 0,8 km/h (0 Bft) N-NO 13 2 min 0,000 mm 0,9 UV-I 383 W/m 7,3 C 16,4 C 3,2 km/h (1 Bft) 97,37 %
12.04.2017 17:12 16,6 C 51 % 1013,8 hPa 0,0 l/m 1,4 km/h (1 Bft) N-NW 338 2 min 0,000 mm 0,9 UV-I 390 W/m 6,4 C 16,6 C 3,2 km/h (1 Bft) 96,23 %
12.04.2017 17:14 16,8 C 50 % 1013,7 hPa 0,0 l/m 0,7 km/h (0 Bft) N-NW 338 2 min 0,000 mm 0,9 UV-I 351 W/m 6,3 C 16,8 C 3,2 km/h (1 Bft) 96,00 %
12.04.2017 17:16 16,8 C 51 % 1013,7 hPa 0,0 l/m 1,0 km/h (0 Bft) NW 305 2 min 0,000 mm 0,9 UV-I 298 W/m 6,6 C 16,8 C 4,8 km/h (1 Bft) 96,00 %
12.04.2017 17:18 16,8 C 51 % 1013,7 hPa 0,0 l/m 2,7 km/h (1 Bft) W-NW 302 0 min 0,000 mm 0,7 UV-I 188 W/m 6,6 C 16,8 C 4,8 km/h (1 Bft) 94,44 %
12.04.2017 17:20 16,8 C 48 % 1013,7 hPa 0,0 l/m 3,9 km/h (1 Bft) W 268 0 min 0,000 mm 0,7 UV-I 197 W/m 5,7 C 16,8 C 9,7 km/h (2 Bft) 94,44 %
12.04.2017 17:22 16,8 C 47 % 1013,6 hPa 0,0 l/m 2,4 km/h (1 Bft) W-SW 252 2 min 0,000 mm 0,7 UV-I 279 W/m 5,4 C 16,8 C 6,4 km/h (2 Bft) 88,89 %
12.04.2017 17:24 16,8 C 49 % 1013,6 hPa 0,0 l/m 1,2 km/h (1 Bft) W-SW 255 2 min 0,000 mm 0,7 UV-I 278 W/m 6,0 C 16,8 C 3,2 km/h (1 Bft) 94,74 %
12.04.2017 17:26 16,8 C 47 % 1013,6 hPa 0,0 l/m 5,3 km/h (1 Bft) W-SW 237 0 min 0,000 mm 0,6 UV-I 212 W/m 5,4 C 16,8 C 8,0 km/h (2 Bft) 94,34 %
12.04.2017 17:28 16,8 C 48 % 1013,6 hPa 0,0 l/m 5,0 km/h (1 Bft) W-SW 254 0 min 0,000 mm 0,6 UV-I 189 W/m 5,7 C 16,8 C 8,0 km/h (2 Bft) 94,00 %
12.04.2017 17:30 16,7 C 47 % 1013,6 hPa 0,0 l/m 4,3 km/h (1 Bft) SW 233 0 min 0,000 mm 0,5 UV-I 184 W/m 5,3 C 16,7 C 6,4 km/h (2 Bft) 92,00 %
12.04.2017 17:32 16,8 C 46 % 1013,5 hPa 0,0 l/m 4,8 km/h (1 Bft) W 268 0 min 0,000 mm 0,5 UV-I 193 W/m 5,1 C 16,8 C 6,4 km/h (2 Bft) 95,12 %
12.04.2017 17:34 16,8 C 51 % 1013,5 hPa 0,0 l/m 1,7 km/h (1 Bft) W 268 0 min 0,000 mm 0,5 UV-I 191 W/m 6,6 C 16,8 C 4,8 km/h (1 Bft) 94,00 %
12.04.2017 17:36 16,7 C 51 % 1013,5 hPa 0,0 l/m 1,2 km/h (1 Bft) W 268 0 min 0,000 mm 0,5 UV-I 189 W/m 6,5 C 16,7 C 3,2 km/h (1 Bft) 92,11 %
12.04.2017 17:38 16,7 C 48 % 1013,4 hPa 0,0 l/m 5,6 km/h (1 Bft) W-SW 257 0 min 0,000 mm 0,5 UV-I 196 W/m 5,6 C 16,7 C 9,7 km/h (2 Bft) 92,86 %
12.04.2017 17:40 16,7 C 48 % 1013,5 hPa 0,0 l/m 4,0 km/h (1 Bft) W-NW 298 2 min 0,000 mm 0,5 UV-I 194 W/m 5,6 C 16,7 C 9,7 km/h (2 Bft) 94,00 %
12.04.2017 17:42 16,8 C 50 % 1013,4 hPa 0,0 l/m 1,0 km/h (0 Bft) W-NW 298 2 min 0,000 mm 0,5 UV-I 192 W/m 6,3 C 16,8 C 3,2 km/h (1 Bft) 95,74 %
12.04.2017 17:44 16,7 C 51 % 1013,4 hPa 0,0 l/m 2,7 km/h (1 Bft) W-NW 299 2 min 0,000 mm 0,5 UV-I 199 W/m 6,5 C 16,7 C 4,8 km/h (1 Bft) 97,56 %
12.04.2017 17:46 16,6 C 50 % 1013,3 hPa 0,0 l/m 2,9 km/h (1 Bft) W 273 2 min 0,000 mm 0,5 UV-I 235 W/m 6,1 C 16,6 C 4,8 km/h (1 Bft) 92,45 %
12.04.2017 17:48 16,7 C 49 % 1013,3 hPa 0,0 l/m 4,7 km/h (1 Bft) W 259 2 min 0,000 mm 0,5 UV-I 246 W/m 5,9 C 16,7 C 9,7 km/h (2 Bft) 97,37 %
12.04.2017 17:50 16,8 C 47 % 1013,2 hPa 0,0 l/m 5,2 km/h (1 Bft) W 262 2 min 0,000 mm 0,5 UV-I 325 W/m 5,4 C 16,8 C 11,3 km/h (2 Bft) 96,23 %
12.04.2017 17:52 16,8 C 46 % 1013,2 hPa 0,0 l/m 4,7 km/h (1 Bft) W 261 2 min 0,000 mm 0,5 UV-I 334 W/m 5,1 C 16,8 C 9,7 km/h (2 Bft) 97,56 %
12.04.2017 17:54 16,9 C 47 % 1013,2 hPa 0,0 l/m 2,3 km/h (1 Bft) W 261 2 min 0,000 mm 0,2 UV-I 297 W/m 5,5 C 16,9 C 4,8 km/h (1 Bft) 96,00 %
12.04.2017 17:56 16,9 C 46 % 1013,2 hPa 0,0 l/m 2,0 km/h (1 Bft) W 261 2 min 0,000 mm 0,0 UV-I 194 W/m 5,2 C 16,9 C 3,2 km/h (1 Bft) 96,00 %
12.04.2017 17:58 16,9 C 47 % 1013,1 hPa 0,0 l/m 2,4 km/h (1 Bft) W 261 0 min 0,000 mm 0,0 UV-I 156 W/m 5,5 C 16,9 C 4,8 km/h (1 Bft) 100,00 %
12.04.2017 18:00 16,9 C 48 % 1013,1 hPa 0,0 l/m 3,8 km/h (1 Bft) W 261 0 min 0,000 mm 0,0 UV-I 143 W/m 5,8 C 16,9 C 4,8 km/h (1 Bft) 100,00 %
12.04.2017 18:02 16,9 C 47 % 1013,1 hPa 0,0 l/m 4,6 km/h (1 Bft) W-SW 258 0 min 0,153 mm 0,0 UV-I 138 W/m 5,5 C 16,9 C 6,4 km/h (2 Bft) 94,00 %
12.04.2017 18:04 16,9 C 48 % 1013,1 hPa 0,0 l/m 4,9 km/h (1 Bft) W-SW 257 0 min 0,000 mm 0,0 UV-I 131 W/m 5,8 C 16,9 C 8,0 km/h (2 Bft) 94,00 %
12.04.2017 18:06 16,8 C 48 % 1013,1 hPa 0,0 l/m 5,5 km/h (1 Bft) SW 221 0 min 0,000 mm 0,0 UV-I 117 W/m 5,7 C 16,8 C 9,7 km/h (2 Bft) 100,00 %
12.04.2017 18:08 16,8 C 48 % 1013,1 hPa 0,0 l/m 5,2 km/h (1 Bft) W-SW 253 0 min 0,000 mm 0,0 UV-I 112 W/m 5,7 C 16,8 C 11,3 km/h (2 Bft) 100,00 %
12.04.2017 18:10 16,8 C 47 % 1013,0 hPa 0,0 l/m 9,1 km/h (2 Bft) W 265 0 min 0,000 mm 0,0 UV-I 108 W/m 5,4 C 15,5 C 12,9 km/h (3 Bft) 100,00 %
12.04.2017 18:12 16,7 C 48 % 1013,1 hPa 0,0 l/m 4,5 km/h (1 Bft) SW 236 0 min 0,000 mm 0,0 UV-I 103 W/m 5,6 C 16,7 C 6,4 km/h (2 Bft) 100,00 %
12.04.2017 18:14 16,7 C 49 % 1013,0 hPa 0,0 l/m 3,4 km/h (1 Bft) W-SW 243 0 min 0,000 mm 0,0 UV-I 97 W/m 5,9 C 16,7 C 6,4 km/h (2 Bft) 98,00 %
12.04.2017 18:16 16,7 C 49 % 1013,0 hPa 0,0 l/m 4,4 km/h (1 Bft) SW 236 0 min 0,000 mm 0,0 UV-I 90 W/m 5,9 C 16,7 C 8,0 km/h (2 Bft) 100,00 %
12.04.2017 18:18 16,7 C 49 % 1013,0 hPa 0,0 l/m 7,5 km/h (2 Bft) SW 229 0 min 0,000 mm 0,0 UV-I 86 W/m 5,9 C 16,1 C 14,5 km/h (3 Bft) 94,74 %
12.04.2017 18:20 16,6 C 48 % 1013,0 hPa 0,0 l/m 7,8 km/h (2 Bft) W-SW 256 0 min 0,000 mm 0,0 UV-I 81 W/m 5,5 C 15,9 C 12,9 km/h (3 Bft) 98,11 %
12.04.2017 18:22 16,6 C 48 % 1013,0 hPa 0,0 l/m 5,1 km/h (1 Bft) W-SW 257 0 min 0,000 mm 0,0 UV-I 73 W/m 5,5 C 16,6 C 11,3 km/h (2 Bft) 97,73 %
12.04.2017 18:24 16,5 C 49 % 1012,9 hPa 0,0 l/m 4,8 km/h (1 Bft) W 269 0 min 0,000 mm 0,0 UV-I 69 W/m 5,8 C 16,5 C 9,7 km/h (2 Bft) 97,56 %
12.04.2017 18:26 16,4 C 52 % 1012,9 hPa 0,0 l/m 2,5 km/h (1 Bft) W-NW 296 0 min 0,000 mm 0,0 UV-I 69 W/m 6,5 C 16,4 C 6,4 km/h (2 Bft) 100,00 %
12.04.2017 18:28 16,2 C 51 % 1012,9 hPa 0,0 l/m 2,0 km/h (1 Bft) NW 312 0 min 0,000 mm 0,0 UV-I 74 W/m 6,1 C 16,2 C 6,4 km/h (2 Bft) 96,23 %
12.04.2017 18:30 16,1 C 51 % 1012,8 hPa 0,0 l/m 3,4 km/h (1 Bft) NW 322 0 min 0,000 mm 0,0 UV-I 77 W/m 6,0 C 16,1 C 6,4 km/h (2 Bft) 97,73 %
12.04.2017 18:33 16,0 C 49 % 1012,8 hPa 0,0 l/m 3,4 km/h (1 Bft) W 267 0 min 0,000 mm 0,0 UV-I 78 W/m 5,3 C 16,0 C 11,3 km/h (2 Bft) 100,00 %
12.04.2017 18:34 16,0 C 50 % 1012,8 hPa 0,0 l/m 2,6 km/h (1 Bft) W 267 0 min 0,000 mm 0,0 UV-I 77 W/m 5,6 C 16,0 C 4,8 km/h (1 Bft) 96,15 %
12.04.2017 18:36 16,0 C 50 % 1012,7 hPa 0,0 l/m 3,9 km/h (1 Bft) W-NW 288 0 min 0,000 mm 0,0 UV-I 77 W/m 5,6 C 16,0 C 6,4 km/h (2 Bft) 100,00 %
12.04.2017 18:38 16,0 C 51 % 1012,7 hPa 0,0 l/m 1,8 km/h (1 Bft) W 273 0 min 0,000 mm 0,0 UV-I 77 W/m 5,9 C 16,0 C 4,8 km/h (1 Bft) 100,00 %
12.04.2017 18:40 16,0 C 50 % 1012,6 hPa 0,0 l/m 4,5 km/h (1 Bft) W 261 0 min 0,000 mm 0,0 UV-I 77 W/m 5,6 C 16,0 C 9,7 km/h (2 Bft) 95,12 %
12.04.2017 18:42 16,0 C 48 % 1012,6 hPa 0,0 l/m 4,1 km/h (1 Bft) W 265 0 min 0,000 mm 0,0 UV-I 78 W/m 5,0 C 16,0 C 9,7 km/h (2 Bft) 96,00 %
12.04.2017 18:44 16,0 C 49 % 1012,6 hPa 0,0 l/m 2,2 km/h (1 Bft) W 265 0 min 0,000 mm 0,0 UV-I 79 W/m 5,3 C 16,0 C 4,8 km/h (1 Bft) 96,23 %
12.04.2017 18:46 16,0 C 49 % 1012,6 hPa 0,0 l/m 3,8 km/h (1 Bft) W 275 0 min 0,000 mm 0,0 UV-I 77 W/m 5,3 C 16,0 C 6,4 km/h (2 Bft) 92,11 %
12.04.2017 18:48 15,9 C 49 % 1012,6 hPa 0,0 l/m 2,6 km/h (1 Bft) W 275 0 min 0,000 mm 0,0 UV-I 73 W/m 5,2 C 15,9 C 3,2 km/h (1 Bft) 94,34 %
12.04.2017 18:50 15,9 C 50 % 1012,6 hPa 0,0 l/m 3,5 km/h (1 Bft) W 275 0 min 0,000 mm 0,0 UV-I 67 W/m 5,5 C 15,9 C 4,8 km/h (1 Bft) 100,00 %
12.04.2017 18:52 15,9 C 50 % 1012,5 hPa 0,0 l/m 3,0 km/h (1 Bft) W 275 0 min 0,000 mm 0,0 UV-I 60 W/m 5,5 C 15,9 C 4,8 km/h (1 Bft) 98,11 %
12.04.2017 18:54 15,9 C 50 % 1012,5 hPa 0,0 l/m 1,3 km/h (1 Bft) W 275 0 min 0,000 mm 0,0 UV-I 54 W/m 5,5 C 15,9 C 3,2 km/h (1 Bft) 95,74 %
12.04.2017 18:56 15,9 C 51 % 1012,5 hPa 0,0 l/m 0,7 km/h (0 Bft) W 275 0 min 0,000 mm 0,0 UV-I 48 W/m 5,8 C 15,9 C 3,2 km/h (1 Bft) 100,00 %
12.04.2017 18:58 15,8 C 51 % 1012,4 hPa 0,0 l/m 0,3 km/h (0 Bft) W 275 0 min 0,000 mm 0,0 UV-I 45 W/m 5,7 C 15,8 C 1,6 km/h (1 Bft) 98,21 %
12.04.2017 19:00 15,8 C 51 % 1012,4 hPa 0,0 l/m 1,6 km/h (1 Bft) W 275 0 min 0,000 mm 0,0 UV-I 42 W/m 5,7 C 15,8 C 3,2 km/h (1 Bft) 97,56 %
12.04.2017 19:02 15,8 C 49 % 1012,4 hPa 0,0 l/m 3,0 km/h (1 Bft) W 275 0 min 0,076 mm 0,0 UV-I 42 W/m 5,1 C 15,8 C 4,8 km/h (1 Bft) 98,00 %
12.04.2017 19:04 15,8 C 49 % 1012,4 hPa 0,0 l/m 0,9 km/h (0 Bft) W 275 0 min 0,000 mm 0,0 UV-I 42 W/m 5,1 C 15,8 C 1,6 km/h (1 Bft) 98,00 %
12.04.2017 19:06 15,8 C 51 % 1012,4 hPa 0,0 l/m 1,3 km/h (1 Bft) W 275 0 min 0,000 mm 0,0 UV-I 42 W/m 5,7 C 15,8 C 3,2 km/h (1 Bft) 94,74 %
12.04.2017 19:08 15,8 C 50 % 1012,4 hPa 0,0 l/m 0,8 km/h (0 Bft) W 275 0 min 0,000 mm 0,0 UV-I 40 W/m 5,4 C 15,8 C 1,6 km/h (1 Bft) 98,00 %
12.04.2017 19:10 15,8 C 50 % 1012,4 hPa 0,0 l/m 1,0 km/h (0 Bft) W 275 0 min 0,000 mm 0,0 UV-I 37 W/m 5,4 C 15,8 C 3,2 km/h (1 Bft) 98,00 %
12.04.2017 19:12 15,8 C 51 % 1012,4 hPa 0,0 l/m 3,0 km/h (1 Bft) SW 231 0 min 0,000 mm 0,0 UV-I 33 W/m 5,7 C 15,8 C 6,4 km/h (2 Bft) 100,00 %
12.04.2017 19:14 15,7 C 51 % 1012,3 hPa 0,0 l/m 1,4 km/h (1 Bft) SW 231 0 min 0,000 mm 0,0 UV-I 31 W/m 5,6 C 15,7 C 3,2 km/h (1 Bft) 95,74 %
12.04.2017 19:16 15,7 C 50 % 1012,3 hPa 0,0 l/m 1,4 km/h (1 Bft) SW 231 0 min 0,000 mm 0,0 UV-I 27 W/m 5,3 C 15,7 C 3,2 km/h (1 Bft) 95,45 %
12.04.2017 19:18 15,6 C 50 % 1012,3 hPa 0,0 l/m 0,3 km/h (0 Bft) SW 231 0 min 0,000 mm 0,0 UV-I 24 W/m 5,2 C 15,6 C 3,2 km/h (1 Bft) 91,49 %
12.04.2017 19:20 15,5 C 51 % 1012,3 hPa 0,0 l/m 0,0 km/h (0 Bft) SW 231 0 min 0,000 mm 0,0 UV-I 20 W/m 5,4 C 15,5 C 0,0 km/h (0 Bft) 98,00 %
12.04.2017 19:22 15,4 C 51 % 1012,2 hPa 0,0 l/m 0,0 km/h (0 Bft) SW 231 0 min 0,000 mm 0,0 UV-I 18 W/m 5,3 C 15,4 C 0,0 km/h (0 Bft) 94,87 %
12.04.2017 19:24 15,3 C 51 % 1012,2 hPa 0,0 l/m 0,0 km/h (0 Bft) SW 231 0 min 0,000 mm 0,0 UV-I 15 W/m 5,2 C 15,3 C 1,6 km/h (1 Bft) 93,62 %
12.04.2017 19:26 15,2 C 51 % 1012,2 hPa 0,0 l/m 0,0 km/h (0 Bft) SW 231 0 min 0,000 mm 0,0 UV-I 14 W/m 5,1 C 15,2 C 0,0 km/h (0 Bft) 97,87 %
12.04.2017 19:28 15,1 C 57 % 1012,1 hPa 0,0 l/m 0,7 km/h (0 Bft) SW 231 0 min 0,000 mm 0,0 UV-I 12 W/m 6,6 C 15,1 C 1,6 km/h (1 Bft) 96,15 %
12.04.2017 19:30 14,8 C 60 % 1012,1 hPa 0,0 l/m 0,3 km/h (0 Bft) SW 231 0 min 0,000 mm 0,0 UV-I 12 W/m 7,1 C 14,8 C 3,2 km/h (1 Bft) 95,38 %
12.04.2017 19:32 14,7 C 58 % 1012,1 hPa 0,0 l/m 1,7 km/h (1 Bft) SW 231 0 min 0,000 mm 0,0 UV-I 11 W/m 6,5 C 14,7 C 3,2 km/h (1 Bft) 96,23 %
12.04.2017 19:34 14,6 C 59 % 1012,0 hPa 0,0 l/m 0,2 km/h (0 Bft) SW 231 0 min 0,000 mm 0,0 UV-I 11 W/m 6,7 C 14,6 C 1,6 km/h (1 Bft) 95,12 %
12.04.2017 19:36 14,4 C 61 % 1012,0 hPa 0,0 l/m 0,0 km/h (0 Bft) SW 231 0 min 0,000 mm 0,0 UV-I 10 W/m 7,0 C 14,4 C 0,0 km/h (0 Bft) 96,00 %
12.04.2017 19:38 14,3 C 64 % 1012,0 hPa 0,0 l/m 0,0 km/h (0 Bft) SW 231 0 min 0,000 mm 0,0 UV-I 9 W/m 7,6 C 14,3 C 1,6 km/h (1 Bft) 98,00 %
12.04.2017 19:40 14,0 C 66 % 1012,0 hPa 0,0 l/m 0,6 km/h (0 Bft) SW 231 0 min 0,000 mm 0,0 UV-I 9 W/m 7,7 C 14,0 C 1,6 km/h (1 Bft) 93,62 %
12.04.2017 19:42 13,7 C 67 % 1012,0 hPa 0,0 l/m 1,0 km/h (0 Bft) SW 231 0 min 0,000 mm 0,0 UV-I 7 W/m 7,7 C 13,7 C 1,6 km/h (1 Bft) 97,37 %
12.04.2017 19:44 13,6 C 68 % 1012,0 hPa 0,0 l/m 1,1 km/h (1 Bft) SW 231 0 min 0,000 mm 0,0 UV-I 7 W/m 7,8 C 13,6 C 1,6 km/h (1 Bft) 98,11 %
12.04.2017 19:46 13,4 C 70 % 1011,9 hPa 0,0 l/m 2,0 km/h (1 Bft) SW 231 0 min 0,000 mm 0,0 UV-I 7 W/m 8,0 C 13,4 C 3,2 km/h (1 Bft) 94,34 %
12.04.2017 19:48 13,2 C 70 % 1012,0 hPa 0,0 l/m 2,7 km/h (1 Bft) SW 231 0 min 0,000 mm 0,0 UV-I 5 W/m 7,9 C 13,2 C 3,2 km/h (1 Bft) 93,18 %
12.04.2017 19:50 13,2 C 72 % 1011,9 hPa 0,0 l/m 2,0 km/h (1 Bft) SW 231 0 min 0,000 mm 0,0 UV-I 5 W/m 8,3 C 13,2 C 3,2 km/h (1 Bft) 95,83 %
12.04.2017 19:52 13,2 C 72 % 1011,9 hPa 0,0 l/m 2,1 km/h (1 Bft) SW 231 0 min 0,000 mm 0,0 UV-I 5 W/m 8,3 C 13,2 C 3,2 km/h (1 Bft) 95,31 %
12.04.2017 19:54 13,1 C 72 % 1011,9 hPa 0,0 l/m 1,4 km/h (1 Bft) SW 231 0 min 0,000 mm 0,0 UV-I 3 W/m 8,2 C 13,1 C 1,6 km/h (1 Bft) 100,00 %
12.04.2017 19:56 13,1 C 72 % 1011,8 hPa 0,0 l/m 1,7 km/h (1 Bft) SW 231 0 min 0,000 mm 0,0 UV-I 0 W/m 8,2 C 13,1 C 3,2 km/h (1 Bft) 95,12 %
12.04.2017 19:58 13,0 C 71 % 1011,8 hPa 0,0 l/m 1,6 km/h (1 Bft) SW 231 0 min 0,000 mm 0,0 UV-I 0 W/m 7,9 C 13,0 C 3,2 km/h (1 Bft) 98,11 %
12.04.2017 20:00 12,9 C 69 % 1011,8 hPa 0,0 l/m 1,7 km/h (1 Bft) SW 231 0 min 0,000 mm 0,0 UV-I 0 W/m 7,4 C 12,9 C 3,2 km/h (1 Bft) 98,11 %
12.04.2017 20:02 12,8 C 70 % 1011,8 hPa 0,0 l/m 1,7 km/h (1 Bft) SW 231 0 min 0,025 mm 0,0 UV-I 0 W/m 7,5 C 12,8 C 3,2 km/h (1 Bft) 95,45 %
12.04.2017 20:04 12,8 C 70 % 1011,8 hPa 0,0 l/m 2,2 km/h (1 Bft) SW 231 0 min 0,000 mm 0,0 UV-I 0 W/m 7,5 C 12,8 C 3,2 km/h (1 Bft) 94,00 %
12.04.2017 20:06 12,8 C 70 % 1011,8 hPa 0,0 l/m 2,8 km/h (1 Bft) SW 231 0 min 0,000 mm 0,0 UV-I 0 W/m 7,5 C 12,8 C 3,2 km/h (1 Bft) 95,74 %
12.04.2017 20:08 12,7 C 71 % 1011,8 hPa 0,0 l/m 3,0 km/h (1 Bft) SW 231 0 min 0,000 mm 0,0 UV-I 0 W/m 7,6 C 12,7 C 3,2 km/h (1 Bft) 94,74 %
12.04.2017 20:10 12,7 C 71 % 1011,8 hPa 0,0 l/m 3,3 km/h (1 Bft) SW 231 0 min 0,000 mm 0,0 UV-I 0 W/m 7,6 C 12,7 C 4,8 km/h (1 Bft) 100,00 %
12.04.2017 20:12 12,7 C 71 % 1011,8 hPa 0,0 l/m 3,3 km/h (1 Bft) SW 231 0 min 0,000 mm 0,0 UV-I 0 W/m 7,6 C 12,7 C 4,8 km/h (1 Bft) 97,87 %
12.04.2017 20:14 12,7 C 70 % 1011,8 hPa 0,0 l/m 3,3 km/h (1 Bft) SW 231 0 min 0,000 mm 0,0 UV-I 0 W/m 7,4 C 12,7 C 4,8 km/h (1 Bft) 100,00 %
12.04.2017 20:16 12,8 C 67 % 1011,8 hPa 0,0 l/m 3,7 km/h (1 Bft) SW 231 0 min 0,000 mm 0,0 UV-I 0 W/m 6,8 C 12,8 C 4,8 km/h (1 Bft) 95,74 %
12.04.2017 20:18 12,9 C 66 % 1011,8 hPa 0,0 l/m 3,1 km/h (1 Bft) SW 231 0 min 0,000 mm 0,0 UV-I 0 W/m 6,7 C 12,9 C 4,8 km/h (1 Bft) 92,11 %
12.04.2017 20:20 13,0 C 65 % 1011,8 hPa 0,0 l/m 3,2 km/h (1 Bft) SW 231 0 min 0,000 mm 0,0 UV-I 0 W/m 6,6 C 13,0 C 4,8 km/h (1 Bft) 95,74 %
12.04.2017 20:22 13,1 C 66 % 1011,8 hPa 0,0 l/m 3,6 km/h (1 Bft) SW 231 0 min 0,000 mm 0,0 UV-I 0 W/m 6,9 C 13,1 C 4,8 km/h (1 Bft) 96,00 %
12.04.2017 20:24 13,1 C 66 % 1011,8 hPa 0,0 l/m 3,9 km/h (1 Bft) SW 230 0 min 0,000 mm 0,0 UV-I 0 W/m 6,9 C 13,1 C 4,8 km/h (1 Bft) 100,00 %
12.04.2017 20:26 13,2 C 67 % 1011,8 hPa 0,0 l/m 3,3 km/h (1 Bft) SW 230 0 min 0,000 mm 0,0 UV-I 0 W/m 7,2 C 13,2 C 4,8 km/h (1 Bft) 100,00 %
12.04.2017 20:28 13,2 C 69 % 1011,8 hPa 0,0 l/m 2,8 km/h (1 Bft) SW 230 0 min 0,000 mm 0,0 UV-I 0 W/m 7,6 C 13,2 C 3,2 km/h (1 Bft) 96,00 %
12.04.2017 20:30 13,2 C 68 % 1011,8 hPa 0,0 l/m 2,4 km/h (1 Bft) SW 230 0 min 0,000 mm 0,0 UV-I 0 W/m 7,4 C 13,2 C 3,2 km/h (1 Bft) 98,11 %
12.04.2017 20:32 13,2 C 69 % 1011,8 hPa 0,0 l/m 3,0 km/h (1 Bft) SW 230 0 min 0,000 mm 0,0 UV-I 0 W/m 7,6 C 13,2 C 4,8 km/h (1 Bft) 100,00 %
12.04.2017 20:34 13,2 C 69 % 1011,7 hPa 0,0 l/m 3,3 km/h (1 Bft) SW 230 0 min 0,000 mm 0,0 UV-I 0 W/m 7,6 C 13,2 C 4,8 km/h (1 Bft) 100,00 %
12.04.2017 20:36 13,2 C 70 % 1011,7 hPa 0,0 l/m 4,3 km/h (1 Bft) SW 230 0 min 0,000 mm 0,0 UV-I 0 W/m 7,9 C 13,2 C 4,8 km/h (1 Bft) 100,00 %
12.04.2017 20:38 13,2 C 71 % 1011,6 hPa 0,0 l/m 3,7 km/h (1 Bft) SW 229 0 min 0,000 mm 0,0 UV-I 0 W/m 8,1 C 13,2 C 4,8 km/h (1 Bft) 100,00 %
12.04.2017 20:40 13,1 C 72 % 1011,7 hPa 0,0 l/m 3,8 km/h (1 Bft) SW 227 0 min 0,000 mm 0,0 UV-I 0 W/m 8,2 C 13,1 C 4,8 km/h (1 Bft) 94,44 %
12.04.2017 20:42 12,9 C 73 % 1011,6 hPa 0,0 l/m 3,4 km/h (1 Bft) SW 227 0 min 0,000 mm 0,0 UV-I 0 W/m 8,2 C 12,9 C 4,8 km/h (1 Bft) 96,23 %
12.04.2017 20:44 12,9 C 72 % 1011,6 hPa 0,0 l/m 3,5 km/h (1 Bft) SW 227 0 min 0,000 mm 0,0 UV-I 0 W/m 8,0 C 12,9 C 4,8 km/h (1 Bft) 97,37 %
12.04.2017 20:46 12,9 C 72 % 1011,7 hPa 0,0 l/m 3,8 km/h (1 Bft) SW 223 0 min 0,000 mm 0,0 UV-I 0 W/m 8,0 C 12,9 C 6,4 km/h (2 Bft) 100,00 %
12.04.2017 20:48 13,0 C 72 % 1011,6 hPa 0,0 l/m 2,7 km/h (1 Bft) SW 223 0 min 0,000 mm 0,0 UV-I 0 W/m 8,1 C 13,0 C 4,8 km/h (1 Bft) 100,00 %
12.04.2017 20:50 13,0 C 71 % 1011,6 hPa 0,0 l/m 1,7 km/h (1 Bft) SW 223 0 min 0,000 mm 0,0 UV-I 0 W/m 7,9 C 13,0 C 3,2 km/h (1 Bft) 100,00 %
12.04.2017 20:52 13,1 C 71 % 1011,7 hPa 0,0 l/m 1,5 km/h (1 Bft) SW 222 0 min 0,000 mm 0,0 UV-I 0 W/m 8,0 C 13,1 C 4,8 km/h (1 Bft) 93,62 %
12.04.2017 20:54 13,1 C 72 % 1011,7 hPa 0,0 l/m 1,3 km/h (1 Bft) SW 222 0 min 0,000 mm 0,0 UV-I 0 W/m 8,2 C 13,1 C 3,2 km/h (1 Bft) 100,00 %
12.04.2017 20:56 13,1 C 71 % 1011,6 hPa 0,0 l/m 1,0 km/h (0 Bft) SW 222 0 min 0,000 mm 0,0 UV-I 0 W/m 8,0 C 13,1 C 3,2 km/h (1 Bft) 100,00 %
12.04.2017 20:58 13,1 C 71 % 1011,6 hPa 0,0 l/m 0,1 km/h (0 Bft) SW 222 0 min 0,000 mm 0,0 UV-I 0 W/m 8,0 C 13,1 C 1,6 km/h (1 Bft) 93,62 %
12.04.2017 21:00 13,2 C 71 % 1011,6 hPa 0,0 l/m 0,1 km/h (0 Bft) SW 222 0 min 0,000 mm 0,0 UV-I 0 W/m 8,1 C 13,2 C 1,6 km/h (1 Bft) 97,87 %
12.04.2017 21:02 13,2 C 72 % 1011,6 hPa 0,0 l/m 0,2 km/h (0 Bft) SW 222 0 min 0,026 mm 0,0 UV-I 0 W/m 8,3 C 13,2 C 1,6 km/h (1 Bft) 92,68 %
12.04.2017 21:04 13,1 C 71 % 1011,6 hPa 0,0 l/m 0,0 km/h (0 Bft) SW 222 0 min 0,000 mm 0,0 UV-I 0 W/m 8,0 C 13,1 C 1,6 km/h (1 Bft) 96,23 %
12.04.2017 21:06 13,1 C 71 % 1011,6 hPa 0,0 l/m 1,6 km/h (1 Bft) SW 222 0 min 0,000 mm 0,0 UV-I 0 W/m 8,0 C 13,1 C 3,2 km/h (1 Bft) 95,74 %
12.04.2017 21:08 13,1 C 71 % 1011,6 hPa 0,0 l/m 0,6 km/h (0 Bft) SW 222 0 min 0,000 mm 0,0 UV-I 0 W/m 8,0 C 13,1 C 3,2 km/h (1 Bft) 95,12 %
12.04.2017 21:10 13,1 C 72 % 1011,5 hPa 0,0 l/m 0,0 km/h (0 Bft) SW 222 0 min 0,000 mm 0,0 UV-I 0 W/m 8,2 C 13,1 C 0,0 km/h (0 Bft) 96,00 %
12.04.2017 21:12 12,9 C 72 % 1011,5 hPa 0,0 l/m 0,0 km/h (0 Bft) SW 222 0 min 0,000 mm 0,0 UV-I 0 W/m 8,0 C 12,9 C 0,0 km/h (0 Bft) 97,87 %
12.04.2017 21:14 12,9 C 72 % 1011,5 hPa 0,0 l/m 0,0 km/h (0 Bft) SW 222 0 min 0,000 mm 0,0 UV-I 0 W/m 8,0 C 12,9 C 0,0 km/h (0 Bft) 97,92 %
12.04.2017 21:16 12,9 C 72 % 1011,5 hPa 0,0 l/m 0,0 km/h (0 Bft) SW 222 0 min 0,000 mm 0,0 UV-I 0 W/m 8,0 C 12,9 C 1,6 km/h (1 Bft) 91,84 %
12.04.2017 21:18 12,8 C 73 % 1011,5 hPa 0,0 l/m 0,0 km/h (0 Bft) SW 222 0 min 0,000 mm 0,0 UV-I 0 W/m 8,1 C 12,8 C 0,0 km/h (0 Bft) 97,92 %
12.04.2017 21:20 12,8 C 73 % 1011,5 hPa 0,0 l/m 0,0 km/h (0 Bft) SW 222 0 min 0,000 mm 0,0 UV-I 0 W/m 8,1 C 12,8 C 0,0 km/h (0 Bft) 97,37 %
12.04.2017 21:22 12,8 C 73 % 1011,5 hPa 0,0 l/m 0,2 km/h (0 Bft) SW 222 0 min 0,000 mm 0,0 UV-I 0 W/m 8,1 C 12,8 C 1,6 km/h (1 Bft) 98,00 %
12.04.2017 21:24 12,8 C 74 % 1011,5 hPa 0,0 l/m 0,4 km/h (0 Bft) SW 222 0 min 0,000 mm 0,0 UV-I 0 W/m 8,3 C 12,8 C 1,6 km/h (1 Bft) 92,45 %
12.04.2017 21:26 12,7 C 74 % 1011,5 hPa 0,0 l/m 0,0 km/h (0 Bft) SW 222 0 min 0,000 mm 0,0 UV-I 0 W/m 8,2 C 12,7 C 0,0 km/h (0 Bft) 95,74 %
12.04.2017 21:28 12,7 C 73 % 1011,4 hPa 0,0 l/m 0,2 km/h (0 Bft) SW 222 0 min 0,000 mm 0,0 UV-I 0 W/m 8,0 C 12,7 C 1,6 km/h (1 Bft) 95,74 %
12.04.2017 21:30 12,7 C 73 % 1011,5 hPa 0,0 l/m 0,1 km/h (0 Bft) SW 222 0 min 0,000 mm 0,0 UV-I 0 W/m 8,0 C 12,7 C 1,6 km/h (1 Bft) 94,74 %
12.04.2017 21:32 12,6 C 72 % 1011,5 hPa 0,0 l/m 0,0 km/h (0 Bft) SW 222 0 min 0,000 mm 0,0 UV-I 0 W/m 7,7 C 12,6 C 0,0 km/h (0 Bft) 95,74 %
12.04.2017 21:34 12,6 C 72 % 1011,5 hPa 0,0 l/m 0,0 km/h (0 Bft) SW 222 0 min 0,000 mm 0,0 UV-I 0 W/m 7,7 C 12,6 C 1,6 km/h (1 Bft) 93,62 %
12.04.2017 21:36 12,7 C 71 % 1011,5 hPa 0,0 l/m 1,0 km/h (0 Bft) SW 222 0 min 0,000 mm 0,0 UV-I 0 W/m 7,6 C 12,7 C 1,6 km/h (1 Bft) 92,45 %
12.04.2017 21:38 12,7 C 70 % 1011,5 hPa 0,0 l/m 1,1 km/h (1 Bft) SW 222 0 min 0,000 mm 0,0 UV-I 0 W/m 7,4 C 12,7 C 3,2 km/h (1 Bft) 95,74 %
12.04.2017 21:40 12,7 C 72 % 1011,5 hPa 0,0 l/m 1,7 km/h (1 Bft) SW 222 0 min 0,000 mm 0,0 UV-I 0 W/m 7,8 C 12,7 C 3,2 km/h (1 Bft) 88,57 %
12.04.2017 21:42 12,7 C 73 % 1011,5 hPa 0,0 l/m 1,6 km/h (1 Bft) SW 222 0 min 0,000 mm 0,0 UV-I 0 W/m 8,0 C 12,7 C 3,2 km/h (1 Bft) 94,64 %
12.04.2017 21:44 12,6 C 75 % 1011,5 hPa 0,0 l/m 1,8 km/h (1 Bft) SW 222 0 min 0,000 mm 0,0 UV-I 0 W/m 8,3 C 12,6 C 3,2 km/h (1 Bft) 95,12 %
12.04.2017 21:46 12,4 C 76 % 1011,5 hPa 0,0 l/m 1,6 km/h (1 Bft) SW 222 0 min 0,000 mm 0,0 UV-I 0 W/m 8,3 C 12,4 C 3,2 km/h (1 Bft) 96,36 %
12.04.2017 21:48 12,2 C 77 % 1011,5 hPa 0,0 l/m 0,5 km/h (0 Bft) SW 222 0 min 0,000 mm 0,0 UV-I 0 W/m 8,3 C 12,2 C 1,6 km/h (1 Bft) 95,12 %
12.04.2017 21:50 12,2 C 76 % 1011,4 hPa 0,0 l/m 0,4 km/h (0 Bft) SW 222 0 min 0,000 mm 0,0 UV-I 0 W/m 8,1 C 12,2 C 1,6 km/h (1 Bft) 92,45 %
12.04.2017 21:52 12,1 C 74 % 1011,4 hPa 0,0 l/m 0,1 km/h (0 Bft) SW 222 0 min 0,000 mm 0,0 UV-I 0 W/m 7,6 C 12,1 C 1,6 km/h (1 Bft) 94,87 %
12.04.2017 21:54 12,2 C 73 % 1011,4 hPa 0,0 l/m 0,0 km/h (0 Bft) SW 222 0 min 0,000 mm 0,0 UV-I 0 W/m 7,5 C 12,2 C 0,0 km/h (0 Bft) 94,00 %
12.04.2017 21:56 12,2 C 74 % 1011,4 hPa 0,0 l/m 0,1 km/h (0 Bft) SW 222 0 min 0,000 mm 0,0 UV-I 0 W/m 7,7 C 12,2 C 1,6 km/h (1 Bft) 90,91 %
12.04.2017 21:58 12,1 C 74 % 1011,4 hPa 0,0 l/m 0,1 km/h (0 Bft) SW 222 0 min 0,000 mm 0,0 UV-I 0 W/m 7,6 C 12,1 C 1,6 km/h (1 Bft) 93,62 %
12.04.2017 22:00 12,2 C 73 % 1011,4 hPa 0,0 l/m 1,0 km/h (0 Bft) SW 222 0 min 0,000 mm 0,0 UV-I 0 W/m 7,5 C 12,2 C 1,6 km/h (1 Bft) 90,57 %
12.04.2017 22:02 12,1 C 74 % 1011,4 hPa 0,0 l/m 1,0 km/h (0 Bft) SW 222 0 min 0,000 mm 0,0 UV-I 0 W/m 7,6 C 12,1 C 1,6 km/h (1 Bft) 97,56 %
12.04.2017 22:04 12,2 C 74 % 1011,4 hPa 0,0 l/m 1,5 km/h (1 Bft) SW 222 0 min 0,000 mm 0,0 UV-I 0 W/m 7,7 C 12,2 C 1,6 km/h (1 Bft) 92,45 %
12.04.2017 22:06 12,1 C 74 % 1011,3 hPa 0,0 l/m 1,9 km/h (1 Bft) SW 222 0 min 0,000 mm 0,0 UV-I 0 W/m 7,6 C 12,1 C 3,2 km/h (1 Bft) 98,00 %
12.04.2017 22:08 12,2 C 73 % 1011,4 hPa 0,0 l/m 3,3 km/h (1 Bft) SW 222 0 min 0,000 mm 0,0 UV-I 0 W/m 7,5 C 12,2 C 4,8 km/h (1 Bft) 94,74 %
12.04.2017 22:10 12,2 C 73 % 1011,3 hPa 0,0 l/m 2,7 km/h (1 Bft) SW 222 0 min 0,000 mm 0,0 UV-I 0 W/m 7,5 C 12,2 C 4,8 km/h (1 Bft) 96,23 %
12.04.2017 22:12 12,1 C 73 % 1011,2 hPa 0,0 l/m 1,9 km/h (1 Bft) SW 222 0 min 0,000 mm 0,0 UV-I 0 W/m 7,4 C 12,1 C 3,2 km/h (1 Bft) 97,37 %
12.04.2017 22:14 12,0 C 74 % 1011,2 hPa 0,0 l/m 1,7 km/h (1 Bft) SW 222 0 min 0,000 mm 0,0 UV-I 0 W/m 7,5 C 12,0 C 3,2 km/h (1 Bft) 96,23 %
12.04.2017 22:16 11,8 C 73 % 1011,2 hPa 0,0 l/m 1,2 km/h (1 Bft) SW 222 0 min 0,000 mm 0,0 UV-I 0 W/m 7,1 C 11,8 C 3,2 km/h (1 Bft) 100,00 %
12.04.2017 22:18 11,7 C 73 % 1011,1 hPa 0,0 l/m 1,2 km/h (1 Bft) SW 222 0 min 0,000 mm 0,0 UV-I 0 W/m 7,0 C 11,7 C 3,2 km/h (1 Bft) 100,00 %
12.04.2017 22:20 11,7 C 73 % 1011,1 hPa 0,0 l/m 1,6 km/h (1 Bft) SW 222 0 min 0,000 mm 0,0 UV-I 0 W/m 7,0 C 11,7 C 3,2 km/h (1 Bft) 98,00 %
12.04.2017 22:22 11,7 C 72 % 1011,1 hPa 0,0 l/m 1,6 km/h (1 Bft) SW 222 0 min 0,000 mm 0,0 UV-I 0 W/m 6,8 C 11,7 C 3,2 km/h (1 Bft) 97,37 %
12.04.2017 22:24 11,8 C 72 % 1011,1 hPa 0,0 l/m 2,4 km/h (1 Bft) SW 222 0 min 0,000 mm 0,0 UV-I 0 W/m 6,9 C 11,8 C 3,2 km/h (1 Bft) 100,00 %
12.04.2017 22:26 11,8 C 72 % 1011,1 hPa 0,0 l/m 1,9 km/h (1 Bft) SW 222 0 min 0,000 mm 0,0 UV-I 0 W/m 6,9 C 11,8 C 3,2 km/h (1 Bft) 98,11 %
12.04.2017 22:28 11,9 C 72 % 1011,0 hPa 0,0 l/m 0,8 km/h (0 Bft) SW 222 0 min 0,000 mm 0,0 UV-I 0 W/m 7,0 C 11,9 C 3,2 km/h (1 Bft) 96,30 %
12.04.2017 22:30 12,0 C 71 % 1011,0 hPa 0,0 l/m 1,1 km/h (1 Bft) SW 222 0 min 0,000 mm 0,0 UV-I 0 W/m 6,9 C 12,0 C 3,2 km/h (1 Bft) 98,44 %
12.04.2017 22:33 11,9 C 72 % 1011,1 hPa 0,0 l/m 2,7 km/h (1 Bft) SW 222 0 min 0,000 mm 0,0 UV-I 0 W/m 7,0 C 11,9 C 4,8 km/h (1 Bft) 100,00 %
12.04.2017 22:34 12,0 C 72 % 1011,1 hPa 0,0 l/m 2,0 km/h (1 Bft) SW 222 0 min 0,000 mm 0,0 UV-I 0 W/m 7,1 C 12,0 C 3,2 km/h (1 Bft) 100,00 %
12.04.2017 22:36 11,9 C 72 % 1011,1 hPa 0,0 l/m 3,3 km/h (1 Bft) SW 222 0 min 0,000 mm 0,0 UV-I 0 W/m 7,0 C 11,9 C 4,8 km/h (1 Bft) 100,00 %
12.04.2017 22:38 11,9 C 72 % 1011,1 hPa 0,0 l/m 2,8 km/h (1 Bft) SW 222 0 min 0,000 mm 0,0 UV-I 0 W/m 7,0 C 11,9 C 4,8 km/h (1 Bft) 98,00 %
12.04.2017 22:40 11,9 C 72 % 1011,1 hPa 0,0 l/m 2,4 km/h (1 Bft) SW 222 0 min 0,000 mm 0,0 UV-I 0 W/m 7,0 C 11,9 C 4,8 km/h (1 Bft) 100,00 %
12.04.2017 22:42 11,8 C 73 % 1011,1 hPa 0,0 l/m 2,0 km/h (1 Bft) SW 222 0 min 0,000 mm 0,0 UV-I 0 W/m 7,1 C 11,8 C 3,2 km/h (1 Bft) 97,87 %
12.04.2017 22:44 11,8 C 73 % 1011,1 hPa 0,0 l/m 3,0 km/h (1 Bft) SW 222 0 min 0,000 mm 0,0 UV-I 0 W/m 7,1 C 11,8 C 4,8 km/h (1 Bft) 100,00 %
12.04.2017 22:46 11,7 C 74 % 1011,1 hPa 0,0 l/m 2,5 km/h (1 Bft) SW 222 0 min 0,000 mm 0,0 UV-I 0 W/m 7,2 C 11,7 C 4,8 km/h (1 Bft) 98,21 %
12.04.2017 22:48 11,7 C 74 % 1011,1 hPa 0,0 l/m 1,6 km/h (1 Bft) SW 221 0 min 0,000 mm 0,0 UV-I 0 W/m 7,2 C 11,7 C 4,8 km/h (1 Bft) 97,37 %
12.04.2017 22:50 11,7 C 74 % 1011,2 hPa 0,0 l/m 3,4 km/h (1 Bft) SW 214 0 min 0,000 mm 0,0 UV-I 0 W/m 7,2 C 11,7 C 6,4 km/h (2 Bft) 100,00 %
12.04.2017 22:52 11,7 C 73 % 1011,1 hPa 0,0 l/m 3,1 km/h (1 Bft) S-SW 207 0 min 0,000 mm 0,0 UV-I 0 W/m 7,0 C 11,7 C 4,8 km/h (1 Bft) 98,00 %
12.04.2017 22:54 11,8 C 73 % 1011,1 hPa 0,0 l/m 3,8 km/h (1 Bft) S-SW 198 0 min 0,000 mm 0,0 UV-I 0 W/m 7,1 C 11,8 C 6,4 km/h (2 Bft) 97,73 %
12.04.2017 22:56 11,9 C 72 % 1011,1 hPa 0,0 l/m 2,9 km/h (1 Bft) S-SW 198 0 min 0,000 mm 0,0 UV-I 0 W/m 7,0 C 11,9 C 3,2 km/h (1 Bft) 97,37 %
12.04.2017 22:58 11,9 C 71 % 1011,1 hPa 0,0 l/m 3,7 km/h (1 Bft) S-SW 198 0 min 0,000 mm 0,0 UV-I 0 W/m 6,8 C 11,9 C 6,4 km/h (2 Bft) 98,00 %
12.04.2017 23:00 11,9 C 72 % 1011,1 hPa 0,0 l/m 3,0 km/h (1 Bft) S-SW 198 0 min 0,000 mm 0,0 UV-I 0 W/m 7,0 C 11,9 C 4,8 km/h (1 Bft) 100,00 %
12.04.2017 23:02 12,0 C 71 % 1011,1 hPa 0,0 l/m 4,4 km/h (1 Bft) S-SW 198 0 min 0,025 mm 0,0 UV-I 0 W/m 6,9 C 12,0 C 6,4 km/h (2 Bft) 98,11 %
12.04.2017 23:04 12,0 C 72 % 1011,0 hPa 0,0 l/m 3,0 km/h (1 Bft) S-SW 198 0 min 0,000 mm 0,0 UV-I 0 W/m 7,1 C 12,0 C 4,8 km/h (1 Bft) 100,00 %
12.04.2017 23:06 12,0 C 72 % 1011,0 hPa 0,0 l/m 2,2 km/h (1 Bft) S-SW 198 0 min 0,000 mm 0,0 UV-I 0 W/m 7,1 C 12,0 C 6,4 km/h (2 Bft) 98,00 %
12.04.2017 23:08 12,0 C 72 % 1011,0 hPa 0,0 l/m 3,0 km/h (1 Bft) S-SW 198 0 min 0,000 mm 0,0 UV-I 0 W/m 7,1 C 12,0 C 4,8 km/h (1 Bft) 98,11 %
12.04.2017 23:10 12,1 C 72 % 1011,0 hPa 0,0 l/m 3,6 km/h (1 Bft) S-SW 198 0 min 0,000 mm 0,0 UV-I 0 W/m 7,2 C 12,1 C 4,8 km/h (1 Bft) 100,00 %
12.04.2017 23:13 12,0 C 73 % 1011,0 hPa 0,0 l/m 3,8 km/h (1 Bft) S-SW 198 0 min 0,000 mm 0,0 UV-I 0 W/m 7,3 C 12,0 C 6,4 km/h (2 Bft) 98,57 %
12.04.2017 23:14 12,0 C 73 % 1011,0 hPa 0,0 l/m 3,4 km/h (1 Bft) S-SW 198 0 min 0,000 mm 0,0 UV-I 0 W/m 7,3 C 12,0 C 4,8 km/h (1 Bft) 100,00 %
12.04.2017 23:16 11,9 C 73 % 1011,0 hPa 0,0 l/m 2,7 km/h (1 Bft) S-SW 198 0 min 0,000 mm 0,0 UV-I 0 W/m 7,2 C 11,9 C 4,8 km/h (1 Bft) 96,43 %
12.04.2017 23:18 11,9 C 73 % 1011,0 hPa 0,0 l/m 2,8 km/h (1 Bft) S-SW 198 0 min 0,000 mm 0,0 UV-I 0 W/m 7,2 C 11,9 C 4,8 km/h (1 Bft) 100,00 %
12.04.2017 23:20 11,9 C 74 % 1011,0 hPa 0,0 l/m 2,5 km/h (1 Bft) S-SW 198 0 min 0,000 mm 0,0 UV-I 0 W/m 7,4 C 11,9 C 6,4 km/h (2 Bft) 100,00 %
12.04.2017 23:22 12,0 C 73 % 1011,1 hPa 0,0 l/m 3,5 km/h (1 Bft) S-SW 198 0 min 0,000 mm 0,0 UV-I 0 W/m 7,3 C 12,0 C 4,8 km/h (1 Bft) 100,00 %
12.04.2017 23:24 12,0 C 74 % 1011,1 hPa 0,0 l/m 3,3 km/h (1 Bft) S-SW 198 0 min 0,000 mm 0,0 UV-I 0 W/m 7,5 C 12,0 C 4,8 km/h (1 Bft) 98,21 %
12.04.2017 23:26 11,9 C 74 % 1011,0 hPa 0,0 l/m 4,0 km/h (1 Bft) S-SW 198 0 min 0,000 mm 0,0 UV-I 0 W/m 7,4 C 11,9 C 6,4 km/h (2 Bft) 100,00 %
12.04.2017 23:28 11,9 C 74 % 1011,1 hPa 0,0 l/m 5,7 km/h (1 Bft) S-SW 198 0 min 0,000 mm 0,0 UV-I 0 W/m 7,4 C 11,9 C 8,0 km/h (2 Bft) 97,73 %
12.04.2017 23:30 11,9 C 75 % 1011,0 hPa 0,0 l/m 4,1 km/h (1 Bft) S-SW 198 0 min 0,000 mm 0,0 UV-I 0 W/m 7,6 C 11,9 C 8,0 km/h (2 Bft) 100,00 %
12.04.2017 23:32 11,9 C 75 % 1011,1 hPa 0,0 l/m 3,8 km/h (1 Bft) S-SW 197 0 min 0,000 mm 0,0 UV-I 0 W/m 7,6 C 11,9 C 6,4 km/h (2 Bft) 94,12 %
12.04.2017 23:34 11,9 C 75 % 1011,1 hPa 0,0 l/m 7,5 km/h (2 Bft) SW 233 0 min 0,000 mm 0,0 UV-I 0 W/m 7,6 C 11,2 C 11,3 km/h (2 Bft) 96,00 %
12.04.2017 23:36 11,9 C 74 % 1011,2 hPa 0,0 l/m 7,6 km/h (2 Bft) SW 228 0 min 0,000 mm 0,0 UV-I 0 W/m 7,4 C 11,1 C 14,5 km/h (3 Bft) 97,73 %
12.04.2017 23:38 12,1 C 73 % 1011,2 hPa 0,0 l/m 14,3 km/h (3 Bft) SW 230 0 min 0,000 mm 0,0 UV-I 0 W/m 7,4 C 8,0 C 20,9 km/h (4 Bft) 96,23 %
12.04.2017 23:40 12,2 C 73 % 1011,2 hPa 0,0 l/m 10,3 km/h (2 Bft) SW 232 0 min 0,000 mm 0,0 UV-I 0 W/m 7,5 C 9,9 C 17,7 km/h (3 Bft) 97,56 %
12.04.2017 23:42 12,3 C 72 % 1011,1 hPa 0,0 l/m 9,2 km/h (2 Bft) W-SW 244 0 min 0,000 mm 0,0 UV-I 0 W/m 7,4 C 10,6 C 14,5 km/h (3 Bft) 95,45 %
12.04.2017 23:44 12,4 C 72 % 1011,1 hPa 0,0 l/m 11,5 km/h (2 Bft) W-SW 244 0 min 0,000 mm 0,0 UV-I 0 W/m 7,5 C 9,5 C 16,1 km/h (3 Bft) 96,43 %
12.04.2017 23:46 12,5 C 71 % 1011,1 hPa 0,0 l/m 9,4 km/h (2 Bft) SW 223 0 min 0,000 mm 0,0 UV-I 0 W/m 7,4 C 10,7 C 16,1 km/h (3 Bft) 95,83 %
12.04.2017 23:48 12,6 C 71 % 1011,1 hPa 0,0 l/m 12,5 km/h (3 Bft) S 180 0 min 0,000 mm 0,0 UV-I 0 W/m 7,5 C 9,3 C 17,7 km/h (3 Bft) 98,44 %
12.04.2017 23:50 12,7 C 71 % 1011,0 hPa 0,0 l/m 12,7 km/h (3 Bft) S-SW 196 0 min 0,000 mm 0,0 UV-I 0 W/m 7,6 C 9,3 C 19,3 km/h (3 Bft) 94,34 %
12.04.2017 23:52 12,7 C 70 % 1011,0 hPa 0,0 l/m 13,1 km/h (3 Bft) S-SW 207 0 min 0,000 mm 0,0 UV-I 0 W/m 7,4 C 9,2 C 22,5 km/h (4 Bft) 94,87 %
12.04.2017 23:54 12,8 C 70 % 1011,0 hPa 0,0 l/m 9,2 km/h (2 Bft) S-SW 208 0 min 0,000 mm 0,0 UV-I 0 W/m 7,5 C 11,1 C 14,5 km/h (3 Bft) 97,56 %
12.04.2017 23:56 12,8 C 69 % 1011,0 hPa 0,0 l/m 10,2 km/h (2 Bft) SW 233 0 min 0,000 mm 0,0 UV-I 0 W/m 7,3 C 10,6 C 16,1 km/h (3 Bft) 93,22 %
12.04.2017 23:58 12,8 C 69 % 1011,0 hPa 0,0 l/m 10,3 km/h (2 Bft) S-SW 209 0 min 0,000 mm 0,0 UV-I 0 W/m 7,3 C 10,5 C 16,1 km/h (3 Bft) 93,18 %
_ Min-Zeit 06:32 17:32 22:28 - 00:36 - - - - - - 06:00 07:14 00:36 09:54
Minimum _ 4,0 C 46 % 1011,0 hPa - 0,0 km/h (0 Bft) - - - - - - 2,6 C 4,0 C 0,0 km/h (0 Bft) 85,71 %
_ Max-Zeit 17:56 07:18 00:38 00:00 23:38 - - 10:09 14:02 12:04 13:58 21:46 16:24 23:52 00:02
Maximum _ 17,0 C 92 % 1022,8 hPa 0,0 l/m 14,3 km/h
SW (3 Bft)
- - 3 min 0,356 mm 3,3 UV-I 705 W/m 8,3 C 16,9 C 22,5 km/h
SW (4 Bft)
100,00 %
Durchschnitt _ 10,4 C 72 % 1017,6 hPa #0,0 l/m 2,7 km/h (1 Bft) S-SW - #8:30 h #2,667 mm 2,0 UV-I 356 W/m 5,1 C 10,3 C 5,1 km/h (1 Bft) 96,94 %